Wetterdaten: Mittwoch, 20.04.2016
Datum Zeit Temp. A. Feuchte A. Luftdruck Regen Wind Richtung Richtung Sonnenschein ET UV Solar Taupunkt Windchill Windben Empfang
20.04.2016 00:00 8,7 C 72 % 1024,6 hPa 0,0 l/m 8,9 km/h (2 Bft) W-SW 241 0 min 0,000 mm 0,0 UV-I 0 W/m 3,9 C 6,9 C 14,5 km/h (3 Bft) 100,00 %
20.04.2016 00:02 8,7 C 72 % 1024,6 hPa 0,0 l/m 9,4 km/h (2 Bft) SW 221 0 min 0,000 mm 0,0 UV-I 0 W/m 3,9 C 6,5 C 14,5 km/h (3 Bft) 97,67 %
20.04.2016 00:03 8,7 C 72 % 1024,6 hPa 0,0 l/m 9,7 km/h (2 Bft) SW 217 0 min 0,000 mm 0,0 UV-I 0 W/m 3,9 C 6,3 C 14,5 km/h (3 Bft) 100,00 %
20.04.2016 00:04 8,7 C 72 % 1024,6 hPa 0,0 l/m 11,5 km/h (2 Bft) SW 226 0 min 0,000 mm 0,0 UV-I 0 W/m 3,9 C 5,3 C 14,5 km/h (3 Bft) 100,00 %
20.04.2016 00:05 8,7 C 72 % 1024,6 hPa 0,0 l/m 9,0 km/h (2 Bft) SW 233 0 min 0,000 mm 0,0 UV-I 0 W/m 3,9 C 6,8 C 12,9 km/h (3 Bft) 100,00 %
20.04.2016 00:06 8,7 C 72 % 1024,6 hPa 0,0 l/m 11,3 km/h (2 Bft) SW 235 0 min 0,000 mm 0,0 UV-I 0 W/m 3,9 C 5,4 C 14,5 km/h (3 Bft) 100,00 %
20.04.2016 00:07 8,7 C 72 % 1024,6 hPa 0,0 l/m 8,3 km/h (2 Bft) SW 224 0 min 0,000 mm 0,0 UV-I 0 W/m 3,9 C 7,3 C 11,3 km/h (2 Bft) 100,00 %
20.04.2016 00:08 8,7 C 72 % 1024,6 hPa 0,0 l/m 8,2 km/h (2 Bft) SW 223 0 min 0,000 mm 0,0 UV-I 0 W/m 3,9 C 7,3 C 11,3 km/h (2 Bft) 100,00 %
20.04.2016 00:09 8,7 C 72 % 1024,6 hPa 0,0 l/m 8,2 km/h (2 Bft) SW 218 0 min 0,000 mm 0,0 UV-I 0 W/m 3,9 C 7,3 C 11,3 km/h (2 Bft) 100,00 %
20.04.2016 00:10 8,7 C 72 % 1024,6 hPa 0,0 l/m 7,5 km/h (2 Bft) SW 221 0 min 0,000 mm 0,0 UV-I 0 W/m 3,9 C 7,9 C 9,7 km/h (2 Bft) 96,15 %
20.04.2016 00:11 8,7 C 72 % 1024,6 hPa 0,0 l/m 7,4 km/h (2 Bft) SW 235 0 min 0,000 mm 0,0 UV-I 0 W/m 3,9 C 7,9 C 12,9 km/h (3 Bft) 100,00 %
20.04.2016 00:12 8,7 C 72 % 1024,5 hPa 0,0 l/m 9,0 km/h (2 Bft) W-SW 242 0 min 0,000 mm 0,0 UV-I 0 W/m 3,9 C 6,8 C 11,3 km/h (2 Bft) 96,15 %
20.04.2016 00:13 8,7 C 72 % 1024,6 hPa 0,0 l/m 9,2 km/h (2 Bft) SW 229 0 min 0,000 mm 0,0 UV-I 0 W/m 3,9 C 6,7 C 12,9 km/h (3 Bft) 100,00 %
20.04.2016 00:14 8,7 C 72 % 1024,6 hPa 0,0 l/m 7,2 km/h (2 Bft) SW 230 0 min 0,000 mm 0,0 UV-I 0 W/m 3,9 C 8,1 C 9,7 km/h (2 Bft) 100,00 %
20.04.2016 00:15 8,7 C 72 % 1024,5 hPa 0,0 l/m 7,8 km/h (2 Bft) SW 215 0 min 0,000 mm 0,0 UV-I 0 W/m 3,9 C 7,6 C 11,3 km/h (2 Bft) 96,30 %
20.04.2016 00:16 8,7 C 72 % 1024,6 hPa 0,0 l/m 6,6 km/h (2 Bft) SW 223 0 min 0,000 mm 0,0 UV-I 0 W/m 3,9 C 8,6 C 9,7 km/h (2 Bft) 100,00 %
20.04.2016 00:17 8,6 C 72 % 1024,5 hPa 0,0 l/m 9,7 km/h (2 Bft) W-SW 239 0 min 0,000 mm 0,0 UV-I 0 W/m 3,8 C 6,2 C 12,9 km/h (3 Bft) 96,30 %
20.04.2016 00:18 8,6 C 72 % 1024,6 hPa 0,0 l/m 9,2 km/h (2 Bft) W-SW 238 0 min 0,000 mm 0,0 UV-I 0 W/m 3,8 C 6,6 C 11,3 km/h (2 Bft) 100,00 %
20.04.2016 00:19 8,6 C 72 % 1024,6 hPa 0,0 l/m 10,5 km/h (2 Bft) W-SW 237 0 min 0,000 mm 0,0 UV-I 0 W/m 3,8 C 5,7 C 14,5 km/h (3 Bft) 92,31 %
20.04.2016 00:20 8,6 C 72 % 1024,6 hPa 0,0 l/m 11,6 km/h (2 Bft) SW 234 0 min 0,000 mm 0,0 UV-I 0 W/m 3,8 C 5,1 C 14,5 km/h (3 Bft) 100,00 %
20.04.2016 00:21 8,6 C 72 % 1024,5 hPa 0,0 l/m 8,4 km/h (2 Bft) SW 234 0 min 0,000 mm 0,0 UV-I 0 W/m 3,8 C 7,1 C 11,3 km/h (2 Bft) 100,00 %
20.04.2016 00:22 8,6 C 72 % 1024,5 hPa 0,0 l/m 10,4 km/h (2 Bft) SW 232 0 min 0,000 mm 0,0 UV-I 0 W/m 3,8 C 5,8 C 14,5 km/h (3 Bft) 100,00 %
20.04.2016 00:23 8,6 C 73 % 1024,6 hPa 0,0 l/m 10,6 km/h (2 Bft) W-SW 237 0 min 0,000 mm 0,0 UV-I 0 W/m 4,0 C 5,7 C 14,5 km/h (3 Bft) 100,00 %
20.04.2016 00:24 8,6 C 72 % 1024,6 hPa 0,0 l/m 10,2 km/h (2 Bft) SW 221 0 min 0,000 mm 0,0 UV-I 0 W/m 3,8 C 5,9 C 11,3 km/h (2 Bft) 95,83 %
20.04.2016 00:25 8,6 C 72 % 1024,6 hPa 0,0 l/m 9,4 km/h (2 Bft) SW 231 0 min 0,000 mm 0,0 UV-I 0 W/m 3,8 C 6,4 C 12,9 km/h (3 Bft) 100,00 %
20.04.2016 00:26 8,6 C 72 % 1024,6 hPa 0,0 l/m 11,7 km/h (2 Bft) W-SW 239 0 min 0,000 mm 0,0 UV-I 0 W/m 3,8 C 5,1 C 16,1 km/h (3 Bft) 96,30 %
20.04.2016 00:27 8,6 C 72 % 1024,6 hPa 0,0 l/m 12,2 km/h (2 Bft) SW 216 0 min 0,000 mm 0,0 UV-I 0 W/m 3,8 C 4,8 C 16,1 km/h (3 Bft) 100,00 %
20.04.2016 00:28 8,6 C 72 % 1024,6 hPa 0,0 l/m 10,4 km/h (2 Bft) W-SW 248 0 min 0,000 mm 0,0 UV-I 0 W/m 3,8 C 5,8 C 16,1 km/h (3 Bft) 95,83 %
20.04.2016 00:29 8,6 C 72 % 1024,5 hPa 0,0 l/m 10,0 km/h (2 Bft) W 272 0 min 0,000 mm 0,0 UV-I 0 W/m 3,8 C 6,0 C 16,1 km/h (3 Bft) 95,65 %
20.04.2016 00:30 8,6 C 72 % 1024,5 hPa 0,0 l/m 8,2 km/h (2 Bft) S-SW 212 0 min 0,000 mm 0,0 UV-I 0 W/m 3,8 C 7,2 C 12,9 km/h (3 Bft) 100,00 %
20.04.2016 00:31 8,6 C 72 % 1024,5 hPa 0,0 l/m 7,6 km/h (2 Bft) SW 235 0 min 0,000 mm 0,0 UV-I 0 W/m 3,8 C 7,7 C 11,3 km/h (2 Bft) 92,86 %
20.04.2016 00:32 8,6 C 71 % 1024,5 hPa 0,0 l/m 8,8 km/h (2 Bft) SW 236 0 min 0,000 mm 0,0 UV-I 0 W/m 3,6 C 6,8 C 12,9 km/h (3 Bft) 100,00 %
20.04.2016 00:33 8,6 C 72 % 1024,5 hPa 0,0 l/m 8,3 km/h (2 Bft) S-SW 207 0 min 0,000 mm 0,0 UV-I 0 W/m 3,8 C 7,2 C 12,9 km/h (3 Bft) 96,15 %
20.04.2016 00:34 8,6 C 72 % 1024,5 hPa 0,0 l/m 9,4 km/h (2 Bft) W-SW 246 0 min 0,000 mm 0,0 UV-I 0 W/m 3,8 C 6,4 C 11,3 km/h (2 Bft) 100,00 %
20.04.2016 00:35 8,6 C 72 % 1024,5 hPa 0,0 l/m 6,7 km/h (2 Bft) SW 219 0 min 0,000 mm 0,0 UV-I 0 W/m 3,8 C 8,4 C 11,3 km/h (2 Bft) 92,86 %
20.04.2016 00:36 8,6 C 72 % 1024,5 hPa 0,0 l/m 8,4 km/h (2 Bft) W-SW 244 0 min 0,000 mm 0,0 UV-I 0 W/m 3,8 C 7,1 C 12,9 km/h (3 Bft) 100,00 %
20.04.2016 00:37 8,6 C 72 % 1024,5 hPa 0,0 l/m 8,1 km/h (2 Bft) SW 229 0 min 0,000 mm 0,0 UV-I 0 W/m 3,8 C 7,3 C 12,9 km/h (3 Bft) 95,65 %
20.04.2016 00:38 8,6 C 72 % 1024,5 hPa 0,0 l/m 9,0 km/h (2 Bft) W 261 0 min 0,000 mm 0,0 UV-I 0 W/m 3,8 C 6,7 C 11,3 km/h (2 Bft) 95,83 %
20.04.2016 00:39 8,6 C 73 % 1024,5 hPa 0,0 l/m 9,2 km/h (2 Bft) SW 223 0 min 0,000 mm 0,0 UV-I 0 W/m 4,0 C 6,6 C 14,5 km/h (3 Bft) 100,00 %
20.04.2016 00:40 8,6 C 73 % 1024,5 hPa 0,0 l/m 9,9 km/h (2 Bft) S-SW 197 0 min 0,000 mm 0,0 UV-I 0 W/m 4,0 C 6,1 C 12,9 km/h (3 Bft) 95,83 %
20.04.2016 00:41 8,6 C 73 % 1024,6 hPa 0,0 l/m 10,1 km/h (2 Bft) SW 226 0 min 0,000 mm 0,0 UV-I 0 W/m 4,0 C 6,0 C 14,5 km/h (3 Bft) 100,00 %
20.04.2016 00:42 8,6 C 72 % 1024,6 hPa 0,0 l/m 10,7 km/h (2 Bft) SW 236 0 min 0,000 mm 0,0 UV-I 0 W/m 3,8 C 5,6 C 14,5 km/h (3 Bft) 95,83 %
20.04.2016 00:43 8,6 C 72 % 1024,6 hPa 0,0 l/m 9,1 km/h (2 Bft) SW 232 0 min 0,000 mm 0,0 UV-I 0 W/m 3,8 C 6,6 C 11,3 km/h (2 Bft) 100,00 %
20.04.2016 00:44 8,5 C 73 % 1024,6 hPa 0,0 l/m 12,7 km/h (3 Bft) SW 236 0 min 0,000 mm 0,0 UV-I 0 W/m 3,9 C 4,4 C 16,1 km/h (3 Bft) 91,30 %
20.04.2016 00:45 8,6 C 73 % 1024,6 hPa 0,0 l/m 10,7 km/h (2 Bft) SW 232 0 min 0,000 mm 0,0 UV-I 0 W/m 4,0 C 5,6 C 14,5 km/h (3 Bft) 100,00 %
20.04.2016 00:46 8,5 C 73 % 1024,6 hPa 0,0 l/m 11,0 km/h (2 Bft) SW 229 0 min 0,000 mm 0,0 UV-I 0 W/m 3,9 C 5,3 C 16,1 km/h (3 Bft) 95,65 %
20.04.2016 00:47 8,5 C 73 % 1024,6 hPa 0,0 l/m 8,6 km/h (2 Bft) W-SW 244 0 min 0,000 mm 0,0 UV-I 0 W/m 3,9 C 6,9 C 11,3 km/h (2 Bft) 96,30 %
20.04.2016 00:48 8,5 C 73 % 1024,6 hPa 0,0 l/m 8,6 km/h (2 Bft) W-SW 239 0 min 0,000 mm 0,0 UV-I 0 W/m 3,9 C 6,9 C 9,7 km/h (2 Bft) 96,15 %
20.04.2016 00:49 8,5 C 72 % 1024,6 hPa 0,0 l/m 8,1 km/h (2 Bft) SW 217 0 min 0,000 mm 0,0 UV-I 0 W/m 3,7 C 7,2 C 9,7 km/h (2 Bft) 96,30 %
20.04.2016 00:50 8,5 C 72 % 1024,7 hPa 0,0 l/m 9,1 km/h (2 Bft) SW 235 0 min 0,000 mm 0,0 UV-I 0 W/m 3,7 C 6,5 C 14,5 km/h (3 Bft) 100,00 %
20.04.2016 00:51 8,5 C 72 % 1024,7 hPa 0,0 l/m 12,8 km/h (3 Bft) SW 228 0 min 0,000 mm 0,0 UV-I 0 W/m 3,7 C 4,4 C 16,1 km/h (3 Bft) 96,67 %
20.04.2016 00:52 8,6 C 72 % 1024,6 hPa 0,0 l/m 10,9 km/h (2 Bft) SW 217 0 min 0,000 mm 0,0 UV-I 0 W/m 3,8 C 5,5 C 14,5 km/h (3 Bft) 95,65 %
20.04.2016 00:53 8,6 C 72 % 1024,6 hPa 0,0 l/m 11,4 km/h (2 Bft) SW 234 0 min 0,000 mm 0,0 UV-I 0 W/m 3,8 C 5,2 C 16,1 km/h (3 Bft) 96,30 %
20.04.2016 00:54 8,6 C 72 % 1024,6 hPa 0,0 l/m 11,1 km/h (2 Bft) SW 230 0 min 0,000 mm 0,0 UV-I 0 W/m 3,8 C 5,4 C 14,5 km/h (3 Bft) 100,00 %
20.04.2016 00:55 8,6 C 72 % 1024,6 hPa 0,0 l/m 8,4 km/h (2 Bft) W-SW 238 0 min 0,000 mm 0,0 UV-I 0 W/m 3,8 C 7,1 C 11,3 km/h (2 Bft) 96,30 %
20.04.2016 00:56 8,6 C 72 % 1024,7 hPa 0,0 l/m 10,5 km/h (2 Bft) SW 232 0 min 0,000 mm 0,0 UV-I 0 W/m 3,8 C 5,7 C 17,7 km/h (3 Bft) 91,30 %
20.04.2016 00:57 8,6 C 72 % 1024,6 hPa 0,0 l/m 10,9 km/h (2 Bft) S-SW 211 0 min 0,000 mm 0,0 UV-I 0 W/m 3,8 C 5,5 C 16,1 km/h (3 Bft) 100,00 %
20.04.2016 00:58 8,6 C 72 % 1024,6 hPa 0,0 l/m 11,1 km/h (2 Bft) SW 227 0 min 0,000 mm 0,0 UV-I 0 W/m 3,8 C 5,4 C 16,1 km/h (3 Bft) 96,15 %
20.04.2016 00:59 8,6 C 72 % 1024,7 hPa 0,0 l/m 10,5 km/h (2 Bft) SW 225 0 min 0,000 mm 0,0 UV-I 0 W/m 3,8 C 5,7 C 16,1 km/h (3 Bft) 93,33 %
20.04.2016 01:00 8,6 C 72 % 1024,7 hPa 0,0 l/m 8,9 km/h (2 Bft) W-SW 245 0 min 0,025 mm 0,0 UV-I 0 W/m 3,8 C 6,8 C 12,9 km/h (3 Bft) 96,15 %
20.04.2016 01:01 8,6 C 72 % 1024,7 hPa 0,0 l/m 8,3 km/h (2 Bft) W-SW 240 0 min 0,000 mm 0,0 UV-I 0 W/m 3,8 C 7,2 C 12,9 km/h (3 Bft) 100,00 %
20.04.2016 01:02 8,6 C 72 % 1024,7 hPa 0,0 l/m 6,0 km/h (2 Bft) W-SW 257 0 min 0,000 mm 0,0 UV-I 0 W/m 3,8 C 8,6 C 8,0 km/h (2 Bft) 95,83 %
20.04.2016 01:03 8,6 C 72 % 1024,6 hPa 0,0 l/m 8,8 km/h (2 Bft) W-SW 248 0 min 0,000 mm 0,0 UV-I 0 W/m 3,8 C 6,8 C 12,9 km/h (3 Bft) 100,00 %
20.04.2016 01:04 8,6 C 72 % 1024,6 hPa 0,0 l/m 9,6 km/h (2 Bft) SW 234 0 min 0,000 mm 0,0 UV-I 0 W/m 3,8 C 6,3 C 14,5 km/h (3 Bft) 100,00 %
20.04.2016 01:05 8,6 C 72 % 1024,6 hPa 0,0 l/m 9,3 km/h (2 Bft) W-SW 239 0 min 0,000 mm 0,0 UV-I 0 W/m 3,8 C 6,5 C 12,9 km/h (3 Bft) 96,55 %
20.04.2016 01:06 8,6 C 72 % 1024,7 hPa 0,0 l/m 8,4 km/h (2 Bft) SW 234 0 min 0,000 mm 0,0 UV-I 0 W/m 3,8 C 7,1 C 9,7 km/h (2 Bft) 100,00 %
20.04.2016 01:07 8,6 C 73 % 1024,7 hPa 0,0 l/m 10,6 km/h (2 Bft) SW 234 0 min 0,000 mm 0,0 UV-I 0 W/m 4,0 C 5,7 C 14,5 km/h (3 Bft) 100,00 %
20.04.2016 01:08 8,6 C 73 % 1024,7 hPa 0,0 l/m 11,5 km/h (2 Bft) SW 217 0 min 0,000 mm 0,0 UV-I 0 W/m 4,0 C 5,2 C 14,5 km/h (3 Bft) 100,00 %
20.04.2016 01:09 8,6 C 73 % 1024,7 hPa 0,0 l/m 8,6 km/h (2 Bft) SW 230 0 min 0,000 mm 0,0 UV-I 0 W/m 4,0 C 7,0 C 12,9 km/h (3 Bft) 91,30 %
20.04.2016 01:10 8,5 C 73 % 1024,7 hPa 0,0 l/m 11,9 km/h (2 Bft) S-SW 201 0 min 0,000 mm 0,0 UV-I 0 W/m 3,9 C 4,8 C 14,5 km/h (3 Bft) 95,83 %
20.04.2016 01:11 8,5 C 73 % 1024,7 hPa 0,0 l/m 9,3 km/h (2 Bft) SW 236 0 min 0,000 mm 0,0 UV-I 0 W/m 3,9 C 6,4 C 14,5 km/h (3 Bft) 100,00 %
20.04.2016 01:12 8,5 C 73 % 1024,7 hPa 0,0 l/m 9,5 km/h (2 Bft) W-SW 244 0 min 0,000 mm 0,0 UV-I 0 W/m 3,9 C 6,3 C 11,3 km/h (2 Bft) 95,83 %
20.04.2016 01:13 8,4 C 73 % 1024,7 hPa 0,0 l/m 10,0 km/h (2 Bft) SW 230 0 min 0,000 mm 0,0 UV-I 0 W/m 3,8 C 5,8 C 14,5 km/h (3 Bft) 96,15 %
20.04.2016 01:14 8,4 C 74 % 1024,7 hPa 0,0 l/m 10,3 km/h (2 Bft) W-SW 252 0 min 0,000 mm 0,0 UV-I 0 W/m 4,0 C 5,6 C 14,5 km/h (3 Bft) 100,00 %
20.04.2016 01:15 8,4 C 74 % 1024,7 hPa 0,0 l/m 8,4 km/h (2 Bft) W-SW 244 0 min 0,000 mm 0,0 UV-I 0 W/m 4,0 C 6,9 C 11,3 km/h (2 Bft) 100,00 %
20.04.2016 01:16 8,4 C 74 % 1024,7 hPa 0,0 l/m 10,8 km/h (2 Bft) W-SW 239 0 min 0,000 mm 0,0 UV-I 0 W/m 4,0 C 5,3 C 14,5 km/h (3 Bft) 100,00 %
20.04.2016 01:17 8,4 C 74 % 1024,7 hPa 0,0 l/m 8,8 km/h (2 Bft) W-SW 246 0 min 0,000 mm 0,0 UV-I 0 W/m 4,0 C 6,6 C 11,3 km/h (2 Bft) 100,00 %
20.04.2016 01:18 8,4 C 74 % 1024,7 hPa 0,0 l/m 7,7 km/h (2 Bft) S-SW 211 0 min 0,000 mm 0,0 UV-I 0 W/m 4,0 C 7,4 C 11,3 km/h (2 Bft) 100,00 %
20.04.2016 01:19 8,4 C 74 % 1024,7 hPa 0,0 l/m 8,5 km/h (2 Bft) W-SW 256 0 min 0,000 mm 0,0 UV-I 0 W/m 4,0 C 6,8 C 11,3 km/h (2 Bft) 100,00 %
20.04.2016 01:20 8,4 C 74 % 1024,7 hPa 0,0 l/m 8,0 km/h (2 Bft) SW 230 0 min 0,000 mm 0,0 UV-I 0 W/m 4,0 C 7,2 C 17,7 km/h (3 Bft) 100,00 %
20.04.2016 01:21 8,4 C 74 % 1024,7 hPa 0,0 l/m 10,3 km/h (2 Bft) W-SW 240 0 min 0,000 mm 0,0 UV-I 0 W/m 4,0 C 5,6 C 16,1 km/h (3 Bft) 100,00 %
20.04.2016 01:22 8,3 C 74 % 1024,8 hPa 0,0 l/m 8,3 km/h (2 Bft) W 267 0 min 0,000 mm 0,0 UV-I 0 W/m 3,9 C 6,9 C 12,9 km/h (3 Bft) 100,00 %
20.04.2016 01:23 8,3 C 74 % 1024,7 hPa 0,0 l/m 9,8 km/h (2 Bft) SW 226 0 min 0,000 mm 0,0 UV-I 0 W/m 3,9 C 5,8 C 12,9 km/h (3 Bft) 96,30 %
20.04.2016 01:24 8,3 C 74 % 1024,8 hPa 0,0 l/m 11,9 km/h (2 Bft) SW 236 0 min 0,000 mm 0,0 UV-I 0 W/m 3,9 C 4,6 C 14,5 km/h (3 Bft) 100,00 %
20.04.2016 01:25 8,3 C 74 % 1024,8 hPa 0,0 l/m 9,4 km/h (2 Bft) W-SW 245 0 min 0,000 mm 0,0 UV-I 0 W/m 3,9 C 6,1 C 14,5 km/h (3 Bft) 100,00 %
20.04.2016 01:26 8,3 C 74 % 1024,8 hPa 0,0 l/m 9,9 km/h (2 Bft) S-SW 207 0 min 0,000 mm 0,0 UV-I 0 W/m 3,9 C 5,8 C 14,5 km/h (3 Bft) 92,86 %
20.04.2016 01:27 8,3 C 75 % 1024,8 hPa 0,0 l/m 10,0 km/h (2 Bft) S-SW 205 0 min 0,000 mm 0,0 UV-I 0 W/m 4,1 C 5,7 C 12,9 km/h (3 Bft) 100,00 %
20.04.2016 01:28 8,3 C 75 % 1024,8 hPa 0,0 l/m 10,7 km/h (2 Bft) SW 218 0 min 0,000 mm 0,0 UV-I 0 W/m 4,1 C 5,3 C 14,5 km/h (3 Bft) 92,86 %
20.04.2016 01:29 8,3 C 75 % 1024,8 hPa 0,0 l/m 10,6 km/h (2 Bft) SW 220 0 min 0,000 mm 0,0 UV-I 0 W/m 4,1 C 5,4 C 16,1 km/h (3 Bft) 100,00 %
20.04.2016 01:30 8,3 C 75 % 1024,8 hPa 0,0 l/m 10,8 km/h (2 Bft) SW 230 0 min 0,000 mm 0,0 UV-I 0 W/m 4,1 C 5,2 C 12,9 km/h (3 Bft) 100,00 %
20.04.2016 01:31 8,3 C 75 % 1024,9 hPa 0,0 l/m 9,5 km/h (2 Bft) SW 222 0 min 0,000 mm 0,0 UV-I 0 W/m 4,1 C 6,0 C 12,9 km/h (3 Bft) 96,30 %
20.04.2016 01:32 8,3 C 75 % 1024,8 hPa 0,0 l/m 9,4 km/h (2 Bft) SW 221 0 min 0,000 mm 0,0 UV-I 0 W/m 4,1 C 6,1 C 14,5 km/h (3 Bft) 100,00 %
20.04.2016 01:33 8,3 C 75 % 1024,8 hPa 0,0 l/m 11,8 km/h (2 Bft) S-SW 211 0 min 0,000 mm 0,0 UV-I 0 W/m 4,1 C 4,7 C 16,1 km/h (3 Bft) 100,00 %
20.04.2016 01:34 8,3 C 75 % 1024,8 hPa 0,0 l/m 11,1 km/h (2 Bft) S-SW 203 0 min 0,000 mm 0,0 UV-I 0 W/m 4,1 C 5,1 C 17,7 km/h (3 Bft) 100,00 %
20.04.2016 01:35 8,3 C 75 % 1024,8 hPa 0,0 l/m 10,9 km/h (2 Bft) W-SW 254 0 min 0,000 mm 0,0 UV-I 0 W/m 4,1 C 5,2 C 14,5 km/h (3 Bft) 100,00 %
20.04.2016 01:36 8,3 C 75 % 1024,8 hPa 0,0 l/m 10,6 km/h (2 Bft) W-SW 246 0 min 0,000 mm 0,0 UV-I 0 W/m 4,1 C 5,4 C 14,5 km/h (3 Bft) 100,00 %
20.04.2016 01:37 8,2 C 76 % 1024,8 hPa 0,0 l/m 10,6 km/h (2 Bft) SW 230 0 min 0,000 mm 0,0 UV-I 0 W/m 4,2 C 5,2 C 12,9 km/h (3 Bft) 95,83 %
20.04.2016 01:38 8,2 C 76 % 1024,8 hPa 0,0 l/m 9,3 km/h (2 Bft) SW 232 0 min 0,000 mm 0,0 UV-I 0 W/m 4,2 C 6,1 C 14,5 km/h (3 Bft) 95,65 %
20.04.2016 01:39 8,2 C 76 % 1024,8 hPa 0,0 l/m 9,1 km/h (2 Bft) SW 219 0 min 0,000 mm 0,0 UV-I 0 W/m 4,2 C 6,2 C 14,5 km/h (3 Bft) 100,00 %
20.04.2016 01:40 8,2 C 75 % 1024,8 hPa 0,0 l/m 9,5 km/h (2 Bft) SW 230 0 min 0,000 mm 0,0 UV-I 0 W/m 4,0 C 5,9 C 16,1 km/h (3 Bft) 100,00 %
20.04.2016 01:41 8,2 C 75 % 1024,8 hPa 0,0 l/m 10,9 km/h (2 Bft) W-SW 244 0 min 0,000 mm 0,0 UV-I 0 W/m 4,0 C 5,1 C 14,5 km/h (3 Bft) 100,00 %
20.04.2016 01:42 8,2 C 75 % 1024,8 hPa 0,0 l/m 8,9 km/h (2 Bft) SW 221 0 min 0,000 mm 0,0 UV-I 0 W/m 4,0 C 6,3 C 12,9 km/h (3 Bft) 100,00 %
20.04.2016 01:43 8,2 C 76 % 1024,8 hPa 0,0 l/m 12,4 km/h (3 Bft) SW 232 0 min 0,000 mm 0,0 UV-I 0 W/m 4,2 C 4,2 C 16,1 km/h (3 Bft) 100,00 %
20.04.2016 01:44 8,2 C 76 % 1024,8 hPa 0,0 l/m 10,0 km/h (2 Bft) SW 227 0 min 0,000 mm 0,0 UV-I 0 W/m 4,2 C 5,6 C 14,5 km/h (3 Bft) 92,59 %
20.04.2016 01:45 8,2 C 76 % 1024,8 hPa 0,0 l/m 12,3 km/h (3 Bft) SW 226 0 min 0,000 mm 0,0 UV-I 0 W/m 4,2 C 4,3 C 16,1 km/h (3 Bft) 100,00 %
20.04.2016 01:46 8,2 C 76 % 1024,8 hPa 0,0 l/m 10,9 km/h (2 Bft) SW 232 0 min 0,000 mm 0,0 UV-I 0 W/m 4,2 C 5,1 C 14,5 km/h (3 Bft) 100,00 %
20.04.2016 01:47 8,2 C 76 % 1024,8 hPa 0,0 l/m 9,6 km/h (2 Bft) W-SW 246 0 min 0,000 mm 0,0 UV-I 0 W/m 4,2 C 5,9 C 12,9 km/h (3 Bft) 100,00 %
20.04.2016 01:48 8,2 C 76 % 1024,8 hPa 0,0 l/m 11,6 km/h (2 Bft) SW 233 0 min 0,000 mm 0,0 UV-I 0 W/m 4,2 C 4,7 C 16,1 km/h (3 Bft) 100,00 %
20.04.2016 01:49 8,2 C 76 % 1024,9 hPa 0,0 l/m 10,3 km/h (2 Bft) W-SW 252 0 min 0,000 mm 0,0 UV-I 0 W/m 4,2 C 5,4 C 14,5 km/h (3 Bft) 100,00 %
20.04.2016 01:50 8,2 C 76 % 1024,9 hPa 0,0 l/m 12,8 km/h (3 Bft) W-SW 240 0 min 0,000 mm 0,0 UV-I 0 W/m 4,2 C 4,0 C 17,7 km/h (3 Bft) 100,00 %
20.04.2016 01:51 8,2 C 76 % 1024,9 hPa 0,0 l/m 10,7 km/h (2 Bft) SW 229 0 min 0,000 mm 0,0 UV-I 0 W/m 4,2 C 5,2 C 16,1 km/h (3 Bft) 100,00 %
20.04.2016 01:52 8,2 C 76 % 1024,8 hPa 0,0 l/m 11,9 km/h (2 Bft) SW 231 0 min 0,000 mm 0,0 UV-I 0 W/m 4,2 C 4,5 C 17,7 km/h (3 Bft) 100,00 %
20.04.2016 01:53 8,2 C 76 % 1024,9 hPa 0,0 l/m 10,9 km/h (2 Bft) W-SW 246 0 min 0,000 mm 0,0 UV-I 0 W/m 4,2 C 5,1 C 14,5 km/h (3 Bft) 100,00 %
20.04.2016 01:54 8,2 C 76 % 1024,9 hPa 0,0 l/m 11,1 km/h (2 Bft) SW 221 0 min 0,000 mm 0,0 UV-I 0 W/m 4,2 C 4,9 C 17,7 km/h (3 Bft) 100,00 %
20.04.2016 01:55 8,1 C 76 % 1024,9 hPa 0,0 l/m 11,0 km/h (2 Bft) SW 236 0 min 0,000 mm 0,0 UV-I 0 W/m 4,1 C 4,9 C 14,5 km/h (3 Bft) 100,00 %
20.04.2016 01:56 8,1 C 77 % 1024,9 hPa 0,0 l/m 13,7 km/h (3 Bft) SW 223 0 min 0,000 mm 0,0 UV-I 0 W/m 4,3 C 3,4 C 19,3 km/h (3 Bft) 96,55 %
20.04.2016 01:57 8,1 C 77 % 1024,9 hPa 0,0 l/m 14,2 km/h (3 Bft) W-SW 239 0 min 0,000 mm 0,0 UV-I 0 W/m 4,3 C 3,2 C 19,3 km/h (3 Bft) 95,83 %
20.04.2016 01:58 8,1 C 77 % 1024,9 hPa 0,0 l/m 14,7 km/h (3 Bft) SW 233 0 min 0,000 mm 0,0 UV-I 0 W/m 4,3 C 3,0 C 17,7 km/h (3 Bft) 100,00 %
20.04.2016 01:59 8,1 C 77 % 1024,9 hPa 0,0 l/m 14,5 km/h (3 Bft) W-SW 238 0 min 0,000 mm 0,0 UV-I 0 W/m 4,3 C 3,1 C 17,7 km/h (3 Bft) 100,00 %
20.04.2016 02:00 8,1 C 77 % 1024,9 hPa 0,0 l/m 14,2 km/h (3 Bft) W-SW 246 0 min 0,026 mm 0,0 UV-I 0 W/m 4,3 C 3,2 C 17,7 km/h (3 Bft) 100,00 %
20.04.2016 02:02 8,1 C 77 % 1024,9 hPa 0,0 l/m 12,9 km/h (3 Bft) W-SW 242 0 min 0,000 mm 0,0 UV-I 0 W/m 4,3 C 3,8 C 19,3 km/h (3 Bft) 100,00 %
20.04.2016 02:03 8,1 C 77 % 1024,9 hPa 0,0 l/m 13,9 km/h (3 Bft) SW 217 0 min 0,000 mm 0,0 UV-I 0 W/m 4,3 C 3,3 C 17,7 km/h (3 Bft) 100,00 %
20.04.2016 02:04 8,1 C 77 % 1024,9 hPa 0,0 l/m 12,0 km/h (2 Bft) S-SW 192 0 min 0,000 mm 0,0 UV-I 0 W/m 4,3 C 4,3 C 14,5 km/h (3 Bft) 100,00 %
20.04.2016 02:05 8,1 C 77 % 1024,9 hPa 0,0 l/m 11,5 km/h (2 Bft) W-SW 250 0 min 0,000 mm 0,0 UV-I 0 W/m 4,3 C 4,6 C 16,1 km/h (3 Bft) 100,00 %
20.04.2016 02:06 8,1 C 77 % 1024,9 hPa 0,0 l/m 12,2 km/h (2 Bft) W-SW 239 0 min 0,000 mm 0,0 UV-I 0 W/m 4,3 C 4,2 C 16,1 km/h (3 Bft) 96,15 %
20.04.2016 02:07 8,1 C 77 % 1024,9 hPa 0,0 l/m 11,5 km/h (2 Bft) SW 220 0 min 0,000 mm 0,0 UV-I 0 W/m 4,3 C 4,6 C 16,1 km/h (3 Bft) 100,00 %
20.04.2016 02:08 8,1 C 77 % 1024,9 hPa 0,0 l/m 12,7 km/h (3 Bft) SW 223 0 min 0,000 mm 0,0 UV-I 0 W/m 4,3 C 4,0 C 16,1 km/h (3 Bft) 100,00 %
20.04.2016 02:09 8,1 C 77 % 1025,0 hPa 0,0 l/m 10,3 km/h (2 Bft) SW 231 0 min 0,000 mm 0,0 UV-I 0 W/m 4,3 C 5,3 C 12,9 km/h (3 Bft) 100,00 %
20.04.2016 02:10 8,1 C 77 % 1024,9 hPa 0,0 l/m 9,9 km/h (2 Bft) SW 229 0 min 0,000 mm 0,0 UV-I 0 W/m 4,3 C 5,6 C 16,1 km/h (3 Bft) 100,00 %
20.04.2016 02:11 8,1 C 77 % 1024,9 hPa 0,0 l/m 11,5 km/h (2 Bft) SW 232 0 min 0,000 mm 0,0 UV-I 0 W/m 4,3 C 4,6 C 16,1 km/h (3 Bft) 100,00 %
20.04.2016 02:12 8,1 C 77 % 1024,9 hPa 0,0 l/m 13,3 km/h (3 Bft) W-SW 243 0 min 0,000 mm 0,0 UV-I 0 W/m 4,3 C 3,6 C 17,7 km/h (3 Bft) 95,65 %
20.04.2016 02:13 8,0 C 77 % 1024,9 hPa 0,0 l/m 11,9 km/h (2 Bft) SW 229 0 min 0,000 mm 0,0 UV-I 0 W/m 4,2 C 4,3 C 16,1 km/h (3 Bft) 100,00 %
20.04.2016 02:14 8,0 C 77 % 1024,9 hPa 0,0 l/m 12,6 km/h (3 Bft) W-SW 242 0 min 0,000 mm 0,0 UV-I 0 W/m 4,2 C 3,9 C 14,5 km/h (3 Bft) 92,86 %
20.04.2016 02:15 8,0 C 77 % 1024,9 hPa 0,0 l/m 12,0 km/h (2 Bft) W-SW 238 0 min 0,000 mm 0,0 UV-I 0 W/m 4,2 C 4,2 C 16,1 km/h (3 Bft) 100,00 %
20.04.2016 02:16 8,0 C 77 % 1024,9 hPa 0,0 l/m 11,3 km/h (2 Bft) W-SW 242 0 min 0,000 mm 0,0 UV-I 0 W/m 4,2 C 4,6 C 16,1 km/h (3 Bft) 100,00 %
20.04.2016 02:17 8,0 C 77 % 1024,9 hPa 0,0 l/m 11,1 km/h (2 Bft) SW 225 0 min 0,000 mm 0,0 UV-I 0 W/m 4,2 C 4,7 C 12,9 km/h (3 Bft) 100,00 %
20.04.2016 02:18 8,0 C 77 % 1024,9 hPa 0,0 l/m 12,0 km/h (2 Bft) W-SW 250 0 min 0,000 mm 0,0 UV-I 0 W/m 4,2 C 4,2 C 16,1 km/h (3 Bft) 100,00 %
20.04.2016 02:19 8,0 C 78 % 1024,9 hPa 0,0 l/m 12,6 km/h (3 Bft) SW 232 0 min 0,000 mm 0,0 UV-I 0 W/m 4,4 C 3,9 C 16,1 km/h (3 Bft) 96,55 %
20.04.2016 02:20 7,9 C 77 % 1024,9 hPa 0,0 l/m 11,3 km/h (2 Bft) SW 215 0 min 0,000 mm 0,0 UV-I 0 W/m 4,1 C 4,5 C 16,1 km/h (3 Bft) 96,30 %
20.04.2016 02:21 7,9 C 78 % 1024,9 hPa 0,0 l/m 12,6 km/h (3 Bft) SW 227 0 min 0,000 mm 0,0 UV-I 0 W/m 4,3 C 3,8 C 17,7 km/h (3 Bft) 100,00 %
20.04.2016 02:22 7,9 C 78 % 1024,9 hPa 0,0 l/m 12,5 km/h (3 Bft) W-SW 240 0 min 0,000 mm 0,0 UV-I 0 W/m 4,3 C 3,8 C 16,1 km/h (3 Bft) 100,00 %
20.04.2016 02:23 7,9 C 78 % 1024,9 hPa 0,0 l/m 11,7 km/h (2 Bft) SW 214 0 min 0,000 mm 0,0 UV-I 0 W/m 4,3 C 4,3 C 16,1 km/h (3 Bft) 100,00 %
20.04.2016 02:24 7,9 C 78 % 1024,9 hPa 0,0 l/m 11,1 km/h (2 Bft) W-SW 239 0 min 0,000 mm 0,0 UV-I 0 W/m 4,3 C 4,6 C 14,5 km/h (3 Bft) 100,00 %
20.04.2016 02:25 7,9 C 78 % 1024,9 hPa 0,0 l/m 11,3 km/h (2 Bft) SW 236 0 min 0,000 mm 0,0 UV-I 0 W/m 4,3 C 4,5 C 14,5 km/h (3 Bft) 100,00 %
20.04.2016 02:26 7,9 C 78 % 1024,9 hPa 0,0 l/m 9,6 km/h (2 Bft) S-SW 207 0 min 0,000 mm 0,0 UV-I 0 W/m 4,3 C 5,5 C 14,5 km/h (3 Bft) 95,83 %
20.04.2016 02:27 7,9 C 78 % 1024,9 hPa 0,0 l/m 9,8 km/h (2 Bft) SW 227 0 min 0,000 mm 0,0 UV-I 0 W/m 4,3 C 5,4 C 14,5 km/h (3 Bft) 100,00 %
20.04.2016 02:28 7,9 C 78 % 1024,9 hPa 0,0 l/m 14,1 km/h (3 Bft) W-SW 242 0 min 0,000 mm 0,0 UV-I 0 W/m 4,3 C 3,0 C 17,7 km/h (3 Bft) 100,00 %
20.04.2016 02:29 7,9 C 78 % 1024,9 hPa 0,0 l/m 8,7 km/h (2 Bft) SW 226 0 min 0,000 mm 0,0 UV-I 0 W/m 4,3 C 6,1 C 12,9 km/h (3 Bft) 100,00 %
20.04.2016 02:30 7,9 C 78 % 1024,9 hPa 0,0 l/m 11,6 km/h (2 Bft) S-SW 205 0 min 0,000 mm 0,0 UV-I 0 W/m 4,3 C 4,3 C 16,1 km/h (3 Bft) 97,56 %
20.04.2016 02:31 7,9 C 78 % 1024,9 hPa 0,0 l/m 12,1 km/h (2 Bft) SW 227 0 min 0,000 mm 0,0 UV-I 0 W/m 4,3 C 4,0 C 17,7 km/h (3 Bft) 96,15 %
20.04.2016 02:32 7,9 C 78 % 1024,9 hPa 0,0 l/m 11,6 km/h (2 Bft) S-SW 213 0 min 0,000 mm 0,0 UV-I 0 W/m 4,3 C 4,3 C 16,1 km/h (3 Bft) 98,36 %
20.04.2016 02:33 7,9 C 78 % 1024,9 hPa 0,0 l/m 11,0 km/h (2 Bft) SW 224 0 min 0,000 mm 0,0 UV-I 0 W/m 4,3 C 4,7 C 14,5 km/h (3 Bft) 97,56 %
20.04.2016 02:34 7,9 C 78 % 1024,9 hPa 0,0 l/m 12,4 km/h (3 Bft) SW 234 0 min 0,000 mm 0,0 UV-I 0 W/m 4,3 C 3,9 C 17,7 km/h (3 Bft) 100,00 %
20.04.2016 02:35 7,9 C 78 % 1024,9 hPa 0,0 l/m 11,5 km/h (2 Bft) SW 224 0 min 0,000 mm 0,0 UV-I 0 W/m 4,3 C 4,4 C 16,1 km/h (3 Bft) 96,15 %
20.04.2016 02:36 7,9 C 78 % 1024,9 hPa 0,0 l/m 10,6 km/h (2 Bft) W-SW 248 0 min 0,000 mm 0,0 UV-I 0 W/m 4,3 C 4,9 C 16,1 km/h (3 Bft) 100,00 %
20.04.2016 02:37 7,9 C 78 % 1024,9 hPa 0,0 l/m 10,3 km/h (2 Bft) W-SW 240 0 min 0,000 mm 0,0 UV-I 0 W/m 4,3 C 5,1 C 14,5 km/h (3 Bft) 95,65 %
20.04.2016 02:38 7,9 C 78 % 1024,9 hPa 0,0 l/m 12,1 km/h (2 Bft) SW 229 0 min 0,000 mm 0,0 UV-I 0 W/m 4,3 C 4,0 C 16,1 km/h (3 Bft) 95,83 %
20.04.2016 02:39 7,9 C 78 % 1024,9 hPa 0,0 l/m 10,3 km/h (2 Bft) S-SW 211 0 min 0,000 mm 0,0 UV-I 0 W/m 4,3 C 5,1 C 12,9 km/h (3 Bft) 100,00 %
20.04.2016 02:40 7,9 C 78 % 1024,8 hPa 0,0 l/m 13,1 km/h (3 Bft) SW 227 0 min 0,000 mm 0,0 UV-I 0 W/m 4,3 C 3,5 C 17,7 km/h (3 Bft) 100,00 %
20.04.2016 02:41 7,9 C 78 % 1024,8 hPa 0,0 l/m 12,8 km/h (3 Bft) SW 234 0 min 0,000 mm 0,0 UV-I 0 W/m 4,3 C 3,7 C 17,7 km/h (3 Bft) 96,30 %
20.04.2016 02:42 7,8 C 78 % 1024,9 hPa 0,0 l/m 12,2 km/h (2 Bft) SW 236 0 min 0,000 mm 0,0 UV-I 0 W/m 4,2 C 3,9 C 17,7 km/h (3 Bft) 92,31 %
20.04.2016 02:43 7,8 C 78 % 1024,9 hPa 0,0 l/m 13,8 km/h (3 Bft) SW 232 0 min 0,000 mm 0,0 UV-I 0 W/m 4,2 C 3,0 C 17,7 km/h (3 Bft) 100,00 %
20.04.2016 02:44 7,8 C 78 % 1024,9 hPa 0,0 l/m 11,4 km/h (2 Bft) SW 225 0 min 0,000 mm 0,0 UV-I 0 W/m 4,2 C 4,3 C 16,1 km/h (3 Bft) 93,33 %
20.04.2016 02:45 7,8 C 78 % 1024,9 hPa 0,0 l/m 11,1 km/h (2 Bft) SW 228 0 min 0,000 mm 0,0 UV-I 0 W/m 4,2 C 4,5 C 16,1 km/h (3 Bft) 100,00 %
20.04.2016 02:46 7,8 C 78 % 1024,9 hPa 0,0 l/m 12,6 km/h (3 Bft) SW 230 0 min 0,000 mm 0,0 UV-I 0 W/m 4,2 C 3,7 C 16,1 km/h (3 Bft) 96,15 %
20.04.2016 02:47 7,8 C 78 % 1024,9 hPa 0,0 l/m 9,4 km/h (2 Bft) SW 235 0 min 0,000 mm 0,0 UV-I 0 W/m 4,2 C 5,6 C 12,9 km/h (3 Bft) 100,00 %
20.04.2016 02:48 7,8 C 78 % 1024,9 hPa 0,0 l/m 10,9 km/h (2 Bft) SW 224 0 min 0,000 mm 0,0 UV-I 0 W/m 4,2 C 4,6 C 14,5 km/h (3 Bft) 96,15 %
20.04.2016 02:49 7,8 C 78 % 1024,9 hPa 0,0 l/m 11,0 km/h (2 Bft) W-SW 238 0 min 0,000 mm 0,0 UV-I 0 W/m 4,2 C 4,6 C 14,5 km/h (3 Bft) 96,30 %
20.04.2016 02:50 7,8 C 78 % 1024,9 hPa 0,0 l/m 10,8 km/h (2 Bft) SW 235 0 min 0,000 mm 0,0 UV-I 0 W/m 4,2 C 4,7 C 16,1 km/h (3 Bft) 92,31 %
20.04.2016 02:51 7,8 C 78 % 1024,9 hPa 0,0 l/m 10,4 km/h (2 Bft) SW 230 0 min 0,000 mm 0,0 UV-I 0 W/m 4,2 C 4,9 C 16,1 km/h (3 Bft) 95,83 %
20.04.2016 02:52 7,8 C 78 % 1024,9 hPa 0,0 l/m 11,9 km/h (2 Bft) SW 230 0 min 0,000 mm 0,0 UV-I 0 W/m 4,2 C 4,0 C 14,5 km/h (3 Bft) 92,86 %
20.04.2016 02:53 7,8 C 78 % 1024,9 hPa 0,0 l/m 11,3 km/h (2 Bft) W-SW 237 0 min 0,000 mm 0,0 UV-I 0 W/m 4,2 C 4,4 C 17,7 km/h (3 Bft) 95,83 %
20.04.2016 02:54 7,8 C 78 % 1024,9 hPa 0,0 l/m 12,2 km/h (2 Bft) W-SW 243 0 min 0,000 mm 0,0 UV-I 0 W/m 4,2 C 3,9 C 14,5 km/h (3 Bft) 96,88 %
20.04.2016 02:55 7,8 C 78 % 1024,9 hPa 0,0 l/m 12,2 km/h (2 Bft) W-SW 243 0 min 0,000 mm 0,0 UV-I 0 W/m 4,2 C 3,9 C 16,1 km/h (3 Bft) 91,67 %
20.04.2016 02:56 7,8 C 78 % 1024,9 hPa 0,0 l/m 10,5 km/h (2 Bft) SW 225 0 min 0,000 mm 0,0 UV-I 0 W/m 4,2 C 4,9 C 16,1 km/h (3 Bft) 100,00 %
20.04.2016 02:57 7,8 C 78 % 1024,9 hPa 0,0 l/m 10,2 km/h (2 Bft) SW 229 0 min 0,000 mm 0,0 UV-I 0 W/m 4,2 C 5,0 C 12,9 km/h (3 Bft) 87,50 %
20.04.2016 02:58 7,8 C 78 % 1024,9 hPa 0,0 l/m 11,7 km/h (2 Bft) SW 235 0 min 0,000 mm 0,0 UV-I 0 W/m 4,2 C 4,1 C 16,1 km/h (3 Bft) 92,31 %
20.04.2016 02:59 7,8 C 78 % 1024,9 hPa 0,0 l/m 11,9 km/h (2 Bft) SW 223 0 min 0,000 mm 0,0 UV-I 0 W/m 4,2 C 4,0 C 14,5 km/h (3 Bft) 100,00 %
20.04.2016 03:00 7,8 C 78 % 1024,9 hPa 0,0 l/m 9,1 km/h (2 Bft) W-SW 250 0 min 0,000 mm 0,0 UV-I 0 W/m 4,2 C 5,8 C 11,3 km/h (2 Bft) 91,67 %
20.04.2016 03:02 7,8 C 78 % 1024,9 hPa 0,0 l/m 9,9 km/h (2 Bft) SW 227 0 min 0,025 mm 0,0 UV-I 0 W/m 4,2 C 5,2 C 12,9 km/h (3 Bft) 98,21 %
20.04.2016 03:03 7,8 C 78 % 1024,9 hPa 0,0 l/m 9,8 km/h (2 Bft) SW 231 0 min 0,000 mm 0,0 UV-I 0 W/m 4,2 C 5,3 C 12,9 km/h (3 Bft) 100,00 %
20.04.2016 03:04 7,8 C 78 % 1024,9 hPa 0,0 l/m 10,3 km/h (2 Bft) W-SW 246 0 min 0,000 mm 0,0 UV-I 0 W/m 4,2 C 5,0 C 12,9 km/h (3 Bft) 93,33 %
20.04.2016 03:05 7,7 C 78 % 1024,9 hPa 0,0 l/m 9,7 km/h (2 Bft) SW 228 0 min 0,000 mm 0,0 UV-I 0 W/m 4,1 C 5,2 C 12,9 km/h (3 Bft) 100,00 %
20.04.2016 03:06 7,7 C 78 % 1024,9 hPa 0,0 l/m 10,5 km/h (2 Bft) SW 225 0 min 0,000 mm 0,0 UV-I 0 W/m 4,1 C 4,7 C 14,5 km/h (3 Bft) 95,83 %
20.04.2016 03:07 7,7 C 78 % 1024,9 hPa 0,0 l/m 8,2 km/h (2 Bft) S-SW 211 0 min 0,000 mm 0,0 UV-I 0 W/m 4,1 C 6,3 C 12,9 km/h (3 Bft) 100,00 %
20.04.2016 03:08 7,7 C 78 % 1024,9 hPa 0,0 l/m 9,6 km/h (2 Bft) SW 226 0 min 0,000 mm 0,0 UV-I 0 W/m 4,1 C 5,3 C 16,1 km/h (3 Bft) 100,00 %
20.04.2016 03:09 7,7 C 78 % 1024,9 hPa 0,0 l/m 9,8 km/h (2 Bft) SW 236 0 min 0,000 mm 0,0 UV-I 0 W/m 4,1 C 5,2 C 14,5 km/h (3 Bft) 100,00 %
20.04.2016 03:10 7,7 C 78 % 1024,9 hPa 0,0 l/m 9,9 km/h (2 Bft) SW 217 0 min 0,000 mm 0,0 UV-I 0 W/m 4,1 C 5,1 C 12,9 km/h (3 Bft) 100,00 %
20.04.2016 03:11 7,7 C 78 % 1024,9 hPa 0,0 l/m 8,6 km/h (2 Bft) S-SW 209 0 min 0,000 mm 0,0 UV-I 0 W/m 4,1 C 6,0 C 12,9 km/h (3 Bft) 100,00 %
20.04.2016 03:12 7,7 C 78 % 1024,9 hPa 0,0 l/m 9,7 km/h (2 Bft) W-SW 247 0 min 0,000 mm 0,0 UV-I 0 W/m 4,1 C 5,2 C 12,9 km/h (3 Bft) 95,83 %
20.04.2016 03:13 7,7 C 78 % 1024,9 hPa 0,0 l/m 9,7 km/h (2 Bft) W-SW 243 0 min 0,000 mm 0,0 UV-I 0 W/m 4,1 C 5,2 C 12,9 km/h (3 Bft) 100,00 %
20.04.2016 03:14 7,7 C 78 % 1024,9 hPa 0,0 l/m 8,6 km/h (2 Bft) W-SW 240 0 min 0,000 mm 0,0 UV-I 0 W/m 4,1 C 6,0 C 12,9 km/h (3 Bft) 96,30 %
20.04.2016 03:15 7,7 C 78 % 1024,9 hPa 0,0 l/m 9,7 km/h (2 Bft) SW 221 0 min 0,000 mm 0,0 UV-I 0 W/m 4,1 C 5,2 C 14,5 km/h (3 Bft) 100,00 %
20.04.2016 03:16 7,7 C 78 % 1024,9 hPa 0,0 l/m 10,7 km/h (2 Bft) SW 232 0 min 0,000 mm 0,0 UV-I 0 W/m 4,1 C 4,6 C 14,5 km/h (3 Bft) 100,00 %
20.04.2016 03:17 7,7 C 78 % 1025,0 hPa 0,0 l/m 8,9 km/h (2 Bft) W-SW 241 0 min 0,000 mm 0,0 UV-I 0 W/m 4,1 C 5,8 C 12,9 km/h (3 Bft) 100,00 %
20.04.2016 03:18 7,7 C 78 % 1025,0 hPa 0,0 l/m 9,7 km/h (2 Bft) W-SW 244 0 min 0,000 mm 0,0 UV-I 0 W/m 4,1 C 5,2 C 11,3 km/h (2 Bft) 96,15 %
20.04.2016 03:19 7,7 C 78 % 1025,0 hPa 0,0 l/m 6,9 km/h (2 Bft) W-SW 250 0 min 0,000 mm 0,0 UV-I 0 W/m 4,1 C 7,3 C 9,7 km/h (2 Bft) 100,00 %
20.04.2016 03:20 7,7 C 78 % 1024,9 hPa 0,0 l/m 7,8 km/h (2 Bft) W-SW 253 0 min 0,000 mm 0,0 UV-I 0 W/m 4,1 C 6,6 C 11,3 km/h (2 Bft) 100,00 %
20.04.2016 03:21 7,7 C 78 % 1025,0 hPa 0,0 l/m 6,8 km/h (2 Bft) W-SW 257 0 min 0,000 mm 0,0 UV-I 0 W/m 4,1 C 7,4 C 11,3 km/h (2 Bft) 100,00 %
20.04.2016 03:22 7,7 C 78 % 1025,0 hPa 0,0 l/m 6,8 km/h (2 Bft) W-SW 252 0 min 0,000 mm 0,0 UV-I 0 W/m 4,1 C 7,4 C 11,3 km/h (2 Bft) 100,00 %
20.04.2016 03:23 7,7 C 77 % 1025,0 hPa 0,0 l/m 8,8 km/h (2 Bft) SW 232 0 min 0,000 mm 0,0 UV-I 0 W/m 3,9 C 5,9 C 12,9 km/h (3 Bft) 100,00 %
20.04.2016 03:24 7,7 C 77 % 1025,0 hPa 0,0 l/m 6,7 km/h (2 Bft) W-SW 242 0 min 0,000 mm 0,0 UV-I 0 W/m 3,9 C 7,5 C 11,3 km/h (2 Bft) 100,00 %
20.04.2016 03:25 7,7 C 78 % 1025,0 hPa 0,0 l/m 5,3 km/h (1 Bft) W-SW 240 0 min 0,000 mm 0,0 UV-I 0 W/m 4,1 C 7,7 C 6,4 km/h (2 Bft) 100,00 %
20.04.2016 03:26 7,7 C 78 % 1025,0 hPa 0,0 l/m 5,5 km/h (1 Bft) SW 235 0 min 0,000 mm 0,0 UV-I 0 W/m 4,1 C 7,7 C 6,4 km/h (2 Bft) 100,00 %
20.04.2016 03:27 7,7 C 78 % 1025,0 hPa 0,0 l/m 6,4 km/h (2 Bft) W-SW 247 0 min 0,000 mm 0,0 UV-I 0 W/m 4,1 C 7,7 C 8,0 km/h (2 Bft) 100,00 %
20.04.2016 03:28 7,7 C 77 % 1025,1 hPa 0,0 l/m 6,9 km/h (2 Bft) W 261 0 min 0,000 mm 0,0 UV-I 0 W/m 3,9 C 7,3 C 9,7 km/h (2 Bft) 96,15 %
20.04.2016 03:29 7,7 C 78 % 1025,1 hPa 0,0 l/m 6,4 km/h (2 Bft) W-SW 252 0 min 0,000 mm 0,0 UV-I 0 W/m 4,1 C 7,7 C 8,0 km/h (2 Bft) 100,00 %
20.04.2016 03:30 7,7 C 78 % 1025,0 hPa 0,0 l/m 6,0 km/h (2 Bft) W-SW 239 0 min 0,000 mm 0,0 UV-I 0 W/m 4,1 C 7,7 C 8,0 km/h (2 Bft) 100,00 %
20.04.2016 03:31 7,7 C 78 % 1025,1 hPa 0,0 l/m 6,6 km/h (2 Bft) S-SW 207 0 min 0,000 mm 0,0 UV-I 0 W/m 4,1 C 7,6 C 8,0 km/h (2 Bft) 97,56 %
20.04.2016 03:32 7,6 C 78 % 1025,1 hPa 0,0 l/m 6,2 km/h (2 Bft) SW 234 0 min 0,000 mm 0,0 UV-I 0 W/m 4,0 C 7,6 C 8,0 km/h (2 Bft) 100,00 %
20.04.2016 03:33 7,7 C 78 % 1025,1 hPa 0,0 l/m 6,6 km/h (2 Bft) SW 219 0 min 0,000 mm 0,0 UV-I 0 W/m 4,1 C 7,6 C 9,7 km/h (2 Bft) 100,00 %
20.04.2016 03:34 7,7 C 77 % 1025,1 hPa 0,0 l/m 4,7 km/h (1 Bft) SW 232 0 min 0,000 mm 0,0 UV-I 0 W/m 3,9 C 7,7 C 6,4 km/h (2 Bft) 92,86 %
20.04.2016 03:35 7,7 C 78 % 1025,1 hPa 0,0 l/m 6,0 km/h (2 Bft) W-SW 250 0 min 0,000 mm 0,0 UV-I 0 W/m 4,1 C 7,7 C 8,0 km/h (2 Bft) 95,83 %
20.04.2016 03:36 7,7 C 78 % 1025,1 hPa 0,0 l/m 4,6 km/h (1 Bft) SW 231 0 min 0,000 mm 0,0 UV-I 0 W/m 4,1 C 7,7 C 6,4 km/h (2 Bft) 100,00 %
20.04.2016 03:37 7,7 C 78 % 1025,1 hPa 0,0 l/m 7,5 km/h (2 Bft) W 261 0 min 0,000 mm 0,0 UV-I 0 W/m 4,1 C 6,8 C 9,7 km/h (2 Bft) 100,00 %
20.04.2016 03:38 7,6 C 78 % 1025,1 hPa 0,0 l/m 6,8 km/h (2 Bft) SW 224 0 min 0,000 mm 0,0 UV-I 0 W/m 4,0 C 7,3 C 8,0 km/h (2 Bft) 100,00 %
20.04.2016 03:39 7,6 C 78 % 1025,1 hPa 0,0 l/m 6,4 km/h (2 Bft) SW 227 0 min 0,000 mm 0,0 UV-I 0 W/m 4,0 C 7,6 C 9,7 km/h (2 Bft) 100,00 %
20.04.2016 03:40 7,6 C 78 % 1025,1 hPa 0,0 l/m 6,7 km/h (2 Bft) SW 234 0 min 0,000 mm 0,0 UV-I 0 W/m 4,0 C 7,4 C 9,7 km/h (2 Bft) 100,00 %
20.04.2016 03:41 7,6 C 78 % 1025,1 hPa 0,0 l/m 7,2 km/h (2 Bft) SW 236 0 min 0,000 mm 0,0 UV-I 0 W/m 4,0 C 7,0 C 9,7 km/h (2 Bft) 100,00 %
20.04.2016 03:42 7,6 C 78 % 1025,1 hPa 0,0 l/m 6,0 km/h (2 Bft) SW 227 0 min 0,000 mm 0,0 UV-I 0 W/m 4,0 C 7,6 C 8,0 km/h (2 Bft) 100,00 %
20.04.2016 03:43 7,6 C 78 % 1025,1 hPa 0,0 l/m 6,6 km/h (2 Bft) SW 217 0 min 0,000 mm 0,0 UV-I 0 W/m 4,0 C 7,5 C 9,7 km/h (2 Bft) 100,00 %
20.04.2016 03:44 7,6 C 78 % 1025,1 hPa 0,0 l/m 6,1 km/h (2 Bft) W-SW 252 0 min 0,000 mm 0,0 UV-I 0 W/m 4,0 C 7,6 C 8,0 km/h (2 Bft) 100,00 %
20.04.2016 03:45 7,6 C 78 % 1025,1 hPa 0,0 l/m 5,9 km/h (2 Bft) W-SW 242 0 min 0,000 mm 0,0 UV-I 0 W/m 4,0 C 7,6 C 8,0 km/h (2 Bft) 100,00 %
20.04.2016 03:46 7,6 C 78 % 1025,1 hPa 0,0 l/m 6,1 km/h (2 Bft) W-SW 239 0 min 0,000 mm 0,0 UV-I 0 W/m 4,0 C 7,6 C 8,0 km/h (2 Bft) 91,67 %
20.04.2016 03:47 7,6 C 78 % 1025,1 hPa 0,0 l/m 7,4 km/h (2 Bft) SW 229 0 min 0,000 mm 0,0 UV-I 0 W/m 4,0 C 6,8 C 11,3 km/h (2 Bft) 100,00 %
20.04.2016 03:48 7,6 C 78 % 1025,1 hPa 0,0 l/m 5,0 km/h (1 Bft) S-SW 211 0 min 0,000 mm 0,0 UV-I 0 W/m 4,0 C 7,6 C 8,0 km/h (2 Bft) 100,00 %
20.04.2016 03:49 7,6 C 78 % 1025,1 hPa 0,0 l/m 5,9 km/h (2 Bft) S-SW 198 0 min 0,000 mm 0,0 UV-I 0 W/m 4,0 C 7,6 C 8,0 km/h (2 Bft) 100,00 %
20.04.2016 03:50 7,6 C 78 % 1025,0 hPa 0,0 l/m 7,6 km/h (2 Bft) SW 225 0 min 0,000 mm 0,0 UV-I 0 W/m 4,0 C 6,6 C 11,3 km/h (2 Bft) 100,00 %
20.04.2016 03:51 7,6 C 78 % 1025,0 hPa 0,0 l/m 6,2 km/h (2 Bft) SW 230 0 min 0,000 mm 0,0 UV-I 0 W/m 4,0 C 7,6 C 9,7 km/h (2 Bft) 100,00 %
20.04.2016 03:52 7,6 C 78 % 1025,0 hPa 0,0 l/m 6,4 km/h (2 Bft) SW 236 0 min 0,000 mm 0,0 UV-I 0 W/m 4,0 C 7,6 C 9,7 km/h (2 Bft) 100,00 %
20.04.2016 03:53 7,6 C 79 % 1025,0 hPa 0,0 l/m 7,5 km/h (2 Bft) SW 214 0 min 0,000 mm 0,0 UV-I 0 W/m 4,2 C 6,7 C 9,7 km/h (2 Bft) 100,00 %
20.04.2016 03:54 7,6 C 79 % 1025,0 hPa 0,0 l/m 6,8 km/h (2 Bft) W-SW 240 0 min 0,000 mm 0,0 UV-I 0 W/m 4,2 C 7,3 C 9,7 km/h (2 Bft) 100,00 %
20.04.2016 03:55 7,6 C 79 % 1025,0 hPa 0,0 l/m 7,2 km/h (2 Bft) SW 223 0 min 0,000 mm 0,0 UV-I 0 W/m 4,2 C 7,0 C 8,0 km/h (2 Bft) 100,00 %
20.04.2016 03:56 7,6 C 79 % 1025,0 hPa 0,0 l/m 6,5 km/h (2 Bft) SW 225 0 min 0,000 mm 0,0 UV-I 0 W/m 4,2 C 7,5 C 8,0 km/h (2 Bft) 100,00 %
20.04.2016 03:57 7,6 C 79 % 1025,0 hPa 0,0 l/m 6,4 km/h (2 Bft) W-SW 241 0 min 0,000 mm 0,0 UV-I 0 W/m 4,2 C 7,6 C 9,7 km/h (2 Bft) 100,00 %
20.04.2016 03:58 7,6 C 79 % 1024,9 hPa 0,0 l/m 5,8 km/h (2 Bft) SW 232 0 min 0,000 mm 0,0 UV-I 0 W/m 4,2 C 7,6 C 8,0 km/h (2 Bft) 100,00 %
20.04.2016 03:59 7,6 C 79 % 1024,9 hPa 0,0 l/m 5,0 km/h (1 Bft) SW 224 0 min 0,000 mm 0,0 UV-I 0 W/m 4,2 C 7,6 C 6,4 km/h (2 Bft) 100,00 %
20.04.2016 04:00 7,6 C 79 % 1025,0 hPa 0,0 l/m 5,7 km/h (1 Bft) SW 228 0 min 0,026 mm 0,0 UV-I 0 W/m 4,2 C 7,6 C 6,4 km/h (2 Bft) 96,30 %
20.04.2016 04:01 7,6 C 79 % 1025,0 hPa 0,0 l/m 6,0 km/h (2 Bft) SW 231 0 min 0,000 mm 0,0 UV-I 0 W/m 4,2 C 7,6 C 6,4 km/h (2 Bft) 100,00 %
20.04.2016 04:02 7,5 C 79 % 1025,0 hPa 0,0 l/m 6,1 km/h (2 Bft) W-SW 244 0 min 0,000 mm 0,0 UV-I 0 W/m 4,1 C 7,5 C 8,0 km/h (2 Bft) 100,00 %
20.04.2016 04:03 7,5 C 79 % 1025,0 hPa 0,0 l/m 6,4 km/h (2 Bft) SW 232 0 min 0,000 mm 0,0 UV-I 0 W/m 4,1 C 7,5 C 8,0 km/h (2 Bft) 100,00 %
20.04.2016 04:04 7,5 C 79 % 1025,0 hPa 0,0 l/m 5,4 km/h (1 Bft) SW 230 0 min 0,000 mm 0,0 UV-I 0 W/m 4,1 C 7,5 C 6,4 km/h (2 Bft) 95,65 %
20.04.2016 04:05 7,5 C 79 % 1025,0 hPa 0,0 l/m 5,8 km/h (2 Bft) SW 223 0 min 0,000 mm 0,0 UV-I 0 W/m 4,1 C 7,5 C 8,0 km/h (2 Bft) 100,00 %
20.04.2016 04:06 7,5 C 79 % 1024,9 hPa 0,0 l/m 5,2 km/h (1 Bft) W-SW 243 0 min 0,000 mm 0,0 UV-I 0 W/m 4,1 C 7,5 C 6,4 km/h (2 Bft) 91,30 %
20.04.2016 04:07 7,5 C 79 % 1025,0 hPa 0,0 l/m 4,5 km/h (1 Bft) S-SW 196 0 min 0,000 mm 0,0 UV-I 0 W/m 4,1 C 7,5 C 6,4 km/h (2 Bft) 96,30 %
20.04.2016 04:08 7,5 C 79 % 1025,0 hPa 0,0 l/m 5,2 km/h (1 Bft) SW 234 0 min 0,000 mm 0,0 UV-I 0 W/m 4,1 C 7,5 C 6,4 km/h (2 Bft) 100,00 %
20.04.2016 04:09 7,4 C 79 % 1025,0 hPa 0,0 l/m 4,6 km/h (1 Bft) SW 217 0 min 0,000 mm 0,0 UV-I 0 W/m 4,0 C 7,4 C 6,4 km/h (2 Bft) 100,00 %
20.04.2016 04:10 7,4 C 79 % 1025,0 hPa 0,0 l/m 3,9 km/h (1 Bft) SW 224 0 min 0,000 mm 0,0 UV-I 0 W/m 4,0 C 7,4 C 6,4 km/h (2 Bft) 100,00 %
20.04.2016 04:11 7,5 C 79 % 1025,0 hPa 0,0 l/m 3,9 km/h (1 Bft) SW 224 0 min 0,000 mm 0,0 UV-I 0 W/m 4,1 C 7,5 C 4,8 km/h (1 Bft) 100,00 %
20.04.2016 04:12 7,5 C 79 % 1025,0 hPa 0,0 l/m 3,0 km/h (1 Bft) SW 221 0 min 0,000 mm 0,0 UV-I 0 W/m 4,1 C 7,5 C 4,8 km/h (1 Bft) 95,65 %
20.04.2016 04:13 7,5 C 79 % 1025,0 hPa 0,0 l/m 3,3 km/h (1 Bft) SW 220 0 min 0,000 mm 0,0 UV-I 0 W/m 4,1 C 7,5 C 4,8 km/h (1 Bft) 100,00 %
20.04.2016 04:14 7,5 C 79 % 1025,0 hPa 0,0 l/m 4,0 km/h (1 Bft) S 186 0 min 0,000 mm 0,0 UV-I 0 W/m 4,1 C 7,5 C 6,4 km/h (2 Bft) 100,00 %
20.04.2016 04:15 7,4 C 79 % 1025,0 hPa 0,0 l/m 4,0 km/h (1 Bft) W-SW 245 0 min 0,000 mm 0,0 UV-I 0 W/m 4,0 C 7,4 C 6,4 km/h (2 Bft) 100,00 %
20.04.2016 04:16 7,4 C 79 % 1025,0 hPa 0,0 l/m 5,6 km/h (1 Bft) W-SW 241 0 min 0,000 mm 0,0 UV-I 0 W/m 4,0 C 7,4 C 8,0 km/h (2 Bft) 100,00 %
20.04.2016 04:17 7,4 C 79 % 1025,0 hPa 0,0 l/m 6,0 km/h (2 Bft) SW 227 0 min 0,000 mm 0,0 UV-I 0 W/m 4,0 C 7,4 C 8,0 km/h (2 Bft) 100,00 %
20.04.2016 04:18 7,4 C 79 % 1025,0 hPa 0,0 l/m 6,6 km/h (2 Bft) SW 217 0 min 0,000 mm 0,0 UV-I 0 W/m 4,0 C 7,3 C 8,0 km/h (2 Bft) 92,31 %
20.04.2016 04:19 7,4 C 79 % 1025,1 hPa 0,0 l/m 5,7 km/h (1 Bft) SW 229 0 min 0,000 mm 0,0 UV-I 0 W/m 4,0 C 7,4 C 8,0 km/h (2 Bft) 100,00 %
20.04.2016 04:20 7,4 C 79 % 1025,0 hPa 0,0 l/m 5,7 km/h (1 Bft) SW 221 0 min 0,000 mm 0,0 UV-I 0 W/m 4,0 C 7,4 C 8,0 km/h (2 Bft) 100,00 %
20.04.2016 04:21 7,4 C 79 % 1025,0 hPa 0,0 l/m 5,3 km/h (1 Bft) SW 232 0 min 0,000 mm 0,0 UV-I 0 W/m 4,0 C 7,4 C 6,4 km/h (2 Bft) 100,00 %
20.04.2016 04:22 7,4 C 79 % 1025,0 hPa 0,0 l/m 6,2 km/h (2 Bft) W-SW 240 0 min 0,000 mm 0,0 UV-I 0 W/m 4,0 C 7,4 C 8,0 km/h (2 Bft) 100,00 %
20.04.2016 04:23 7,4 C 80 % 1025,0 hPa 0,0 l/m 5,2 km/h (1 Bft) SW 222 0 min 0,000 mm 0,0 UV-I 0 W/m 4,2 C 7,4 C 6,4 km/h (2 Bft) 100,00 %
20.04.2016 04:24 7,4 C 80 % 1025,0 hPa 0,0 l/m 5,7 km/h (1 Bft) SW 225 0 min 0,000 mm 0,0 UV-I 0 W/m 4,2 C 7,4 C 8,0 km/h (2 Bft) 100,00 %
20.04.2016 04:25 7,4 C 80 % 1025,0 hPa 0,0 l/m 5,6 km/h (1 Bft) SW 235 0 min 0,000 mm 0,0 UV-I 0 W/m 4,2 C 7,4 C 6,4 km/h (2 Bft) 96,55 %
20.04.2016 04:26 7,4 C 80 % 1025,0 hPa 0,0 l/m 5,7 km/h (1 Bft) SW 229 0 min 0,000 mm 0,0 UV-I 0 W/m 4,2 C 7,4 C 8,0 km/h (2 Bft) 100,00 %
20.04.2016 04:27 7,4 C 80 % 1025,0 hPa 0,0 l/m 5,7 km/h (1 Bft) SW 227 0 min 0,000 mm 0,0 UV-I 0 W/m 4,2 C 7,4 C 8,0 km/h (2 Bft) 100,00 %
20.04.2016 04:28 7,4 C 80 % 1025,0 hPa 0,0 l/m 6,0 km/h (2 Bft) SW 235 0 min 0,000 mm 0,0 UV-I 0 W/m 4,2 C 7,4 C 8,0 km/h (2 Bft) 100,00 %
20.04.2016 04:29 7,4 C 80 % 1025,0 hPa 0,0 l/m 6,8 km/h (2 Bft) W-SW 241 0 min 0,000 mm 0,0 UV-I 0 W/m 4,2 C 7,1 C 9,7 km/h (2 Bft) 96,88 %
20.04.2016 04:30 7,4 C 80 % 1025,0 hPa 0,0 l/m 6,3 km/h (2 Bft) SW 227 0 min 0,000 mm 0,0 UV-I 0 W/m 4,2 C 7,4 C 9,7 km/h (2 Bft) 95,83 %
20.04.2016 04:31 7,4 C 80 % 1025,0 hPa 0,0 l/m 6,9 km/h (2 Bft) SW 233 0 min 0,000 mm 0,0 UV-I 0 W/m 4,2 C 7,0 C 9,7 km/h (2 Bft) 100,00 %
20.04.2016 04:32 7,4 C 80 % 1025,0 hPa 0,0 l/m 4,6 km/h (1 Bft) W-SW 239 0 min 0,000 mm 0,0 UV-I 0 W/m 4,2 C 7,4 C 8,0 km/h (2 Bft) 96,67 %
20.04.2016 04:33 7,4 C 80 % 1025,0 hPa 0,0 l/m 3,0 km/h (1 Bft) W-SW 240 0 min 0,000 mm 0,0 UV-I 0 W/m 4,2 C 7,4 C 6,4 km/h (2 Bft) 100,00 %
20.04.2016 04:34 7,4 C 80 % 1025,0 hPa 0,0 l/m 4,6 km/h (1 Bft) W-SW 242 0 min 0,000 mm 0,0 UV-I 0 W/m 4,2 C 7,4 C 6,4 km/h (2 Bft) 96,30 %
20.04.2016 04:35 7,4 C 79 % 1025,0 hPa 0,0 l/m 4,1 km/h (1 Bft) SW 224 0 min 0,000 mm 0,0 UV-I 0 W/m 4,0 C 7,4 C 4,8 km/h (1 Bft) 95,65 %
20.04.2016 04:36 7,4 C 79 % 1025,0 hPa 0,0 l/m 5,4 km/h (1 Bft) W-SW 242 0 min 0,000 mm 0,0 UV-I 0 W/m 4,0 C 7,4 C 8,0 km/h (2 Bft) 100,00 %
20.04.2016 04:37 7,4 C 79 % 1025,1 hPa 0,0 l/m 7,0 km/h (2 Bft) SW 229 0 min 0,000 mm 0,0 UV-I 0 W/m 4,0 C 6,9 C 9,7 km/h (2 Bft) 95,65 %
20.04.2016 04:38 7,4 C 80 % 1025,1 hPa 0,0 l/m 5,8 km/h (2 Bft) SW 224 0 min 0,000 mm 0,0 UV-I 0 W/m 4,2 C 7,4 C 8,0 km/h (2 Bft) 100,00 %
20.04.2016 04:39 7,4 C 80 % 1025,0 hPa 0,0 l/m 5,7 km/h (1 Bft) W-SW 239 0 min 0,000 mm 0,0 UV-I 0 W/m 4,2 C 7,4 C 8,0 km/h (2 Bft) 91,67 %
20.04.2016 04:40 7,4 C 80 % 1025,0 hPa 0,0 l/m 5,1 km/h (1 Bft) S-SW 198 0 min 0,000 mm 0,0 UV-I 0 W/m 4,2 C 7,4 C 6,4 km/h (2 Bft) 95,12 %
20.04.2016 04:41 7,4 C 80 % 1025,0 hPa 0,0 l/m 4,4 km/h (1 Bft) S-SW 201 0 min 0,000 mm 0,0 UV-I 0 W/m 4,2 C 7,4 C 6,4 km/h (2 Bft) 100,00 %
20.04.2016 04:42 7,4 C 79 % 1025,0 hPa 0,0 l/m 3,8 km/h (1 Bft) S-SW 208 0 min 0,000 mm 0,0 UV-I 0 W/m 4,0 C 7,4 C 6,4 km/h (2 Bft) 100,00 %
20.04.2016 04:43 7,4 C 79 % 1025,0 hPa 0,0 l/m 4,7 km/h (1 Bft) SW 222 0 min 0,000 mm 0,0 UV-I 0 W/m 4,0 C 7,4 C 6,4 km/h (2 Bft) 95,83 %
20.04.2016 04:44 7,4 C 80 % 1025,0 hPa 0,0 l/m 4,5 km/h (1 Bft) SW 236 0 min 0,000 mm 0,0 UV-I 0 W/m 4,2 C 7,4 C 6,4 km/h (2 Bft) 95,65 %
20.04.2016 04:45 7,4 C 80 % 1025,1 hPa 0,0 l/m 3,6 km/h (1 Bft) SW 220 0 min 0,000 mm 0,0 UV-I 0 W/m 4,2 C 7,4 C 8,0 km/h (2 Bft) 100,00 %
20.04.2016 04:46 7,4 C 80 % 1025,0 hPa 0,0 l/m 5,8 km/h (2 Bft) SW 221 0 min 0,000 mm 0,0 UV-I 0 W/m 4,2 C 7,4 C 8,0 km/h (2 Bft) 95,65 %
20.04.2016 04:47 7,4 C 80 % 1025,0 hPa 0,0 l/m 4,7 km/h (1 Bft) SW 221 0 min 0,000 mm 0,0 UV-I 0 W/m 4,2 C 7,4 C 8,0 km/h (2 Bft) 100,00 %
20.04.2016 04:48 7,4 C 80 % 1025,0 hPa 0,0 l/m 5,5 km/h (1 Bft) S-SW 201 0 min 0,000 mm 0,0 UV-I 0 W/m 4,2 C 7,4 C 8,0 km/h (2 Bft) 95,65 %
20.04.2016 04:49 7,4 C 80 % 1025,0 hPa 0,0 l/m 5,1 km/h (1 Bft) SW 235 0 min 0,000 mm 0,0 UV-I 0 W/m 4,2 C 7,4 C 8,0 km/h (2 Bft) 96,30 %
20.04.2016 04:50 7,4 C 80 % 1025,0 hPa 0,0 l/m 5,9 km/h (2 Bft) SW 220 0 min 0,000 mm 0,0 UV-I 0 W/m 4,2 C 7,4 C 8,0 km/h (2 Bft) 100,00 %
20.04.2016 04:51 7,4 C 79 % 1025,0 hPa 0,0 l/m 5,4 km/h (1 Bft) SW 221 0 min 0,000 mm 0,0 UV-I 0 W/m 4,0 C 7,4 C 8,0 km/h (2 Bft) 95,83 %
20.04.2016 04:52 7,4 C 80 % 1025,0 hPa 0,0 l/m 5,4 km/h (1 Bft) SW 236 0 min 0,000 mm 0,0 UV-I 0 W/m 4,2 C 7,4 C 8,0 km/h (2 Bft) 100,00 %
20.04.2016 04:53 7,4 C 80 % 1025,1 hPa 0,0 l/m 5,2 km/h (1 Bft) SW 223 0 min 0,000 mm 0,0 UV-I 0 W/m 4,2 C 7,4 C 9,7 km/h (2 Bft) 92,59 %
20.04.2016 04:54 7,4 C 80 % 1025,1 hPa 0,0 l/m 5,8 km/h (2 Bft) W-SW 257 0 min 0,000 mm 0,0 UV-I 0 W/m 4,2 C 7,4 C 9,7 km/h (2 Bft) 100,00 %
20.04.2016 04:55 7,4 C 80 % 1025,0 hPa 0,0 l/m 5,1 km/h (1 Bft) W-SW 238 0 min 0,000 mm 0,0 UV-I 0 W/m 4,2 C 7,4 C 9,7 km/h (2 Bft) 96,67 %
20.04.2016 04:56 7,4 C 80 % 1025,0 hPa 0,0 l/m 5,1 km/h (1 Bft) W-SW 238 0 min 0,000 mm 0,0 UV-I 0 W/m 4,2 C 7,4 C 8,0 km/h (2 Bft) 88,46 %
20.04.2016 04:57 7,4 C 80 % 1025,0 hPa 0,0 l/m 6,7 km/h (2 Bft) SW 225 0 min 0,000 mm 0,0 UV-I 0 W/m 4,2 C 7,2 C 9,7 km/h (2 Bft) 100,00 %
20.04.2016 04:58 7,4 C 80 % 1025,0 hPa 0,0 l/m 6,6 km/h (2 Bft) W-SW 248 0 min 0,000 mm 0,0 UV-I 0 W/m 4,2 C 7,3 C 11,3 km/h (2 Bft) 100,00 %
20.04.2016 04:59 7,4 C 80 % 1025,0 hPa 0,0 l/m 6,2 km/h (2 Bft) SW 232 0 min 0,000 mm 0,0 UV-I 0 W/m 4,2 C 7,4 C 11,3 km/h (2 Bft) 96,55 %
20.04.2016 05:00 7,4 C 80 % 1025,0 hPa 0,0 l/m 5,4 km/h (1 Bft) SW 227 0 min 0,025 mm 0,0 UV-I 0 W/m 4,2 C 7,4 C 6,4 km/h (2 Bft) 100,00 %
20.04.2016 05:02 7,4 C 80 % 1025,0 hPa 0,0 l/m 7,0 km/h (2 Bft) W-SW 256 0 min 0,000 mm 0,0 UV-I 0 W/m 4,2 C 6,9 C 12,9 km/h (3 Bft) 94,92 %
20.04.2016 05:03 7,4 C 80 % 1025,0 hPa 0,0 l/m 7,7 km/h (2 Bft) S-SW 208 0 min 0,000 mm 0,0 UV-I 0 W/m 4,2 C 6,4 C 12,9 km/h (3 Bft) 100,00 %
20.04.2016 05:04 7,4 C 80 % 1025,0 hPa 0,0 l/m 8,6 km/h (2 Bft) W-SW 240 0 min 0,000 mm 0,0 UV-I 0 W/m 4,2 C 5,7 C 11,3 km/h (2 Bft) 95,83 %
20.04.2016 05:05 7,3 C 80 % 1025,0 hPa 0,0 l/m 6,0 km/h (2 Bft) SW 229 0 min 0,000 mm 0,0 UV-I 0 W/m 4,1 C 7,3 C 9,7 km/h (2 Bft) 97,71 %
20.04.2016 05:06 7,3 C 80 % 1025,1 hPa 0,0 l/m 7,4 km/h (2 Bft) W-SW 248 0 min 0,000 mm 0,0 UV-I 0 W/m 4,1 C 6,5 C 11,3 km/h (2 Bft) 100,00 %
20.04.2016 05:07 7,3 C 80 % 1025,1 hPa 0,0 l/m 9,0 km/h (2 Bft) W-SW 248 0 min 0,000 mm 0,0 UV-I 0 W/m 4,1 C 5,3 C 12,9 km/h (3 Bft) 100,00 %
20.04.2016 05:08 7,3 C 80 % 1025,1 hPa 0,0 l/m 8,3 km/h (2 Bft) SW 229 0 min 0,000 mm 0,0 UV-I 0 W/m 4,1 C 5,8 C 11,3 km/h (2 Bft) 96,67 %
20.04.2016 05:09 7,3 C 81 % 1025,1 hPa 0,0 l/m 8,7 km/h (2 Bft) SW 227 0 min 0,000 mm 0,0 UV-I 0 W/m 4,3 C 5,5 C 11,3 km/h (2 Bft) 100,00 %
20.04.2016 05:10 7,3 C 81 % 1025,1 hPa 0,0 l/m 8,3 km/h (2 Bft) SW 228 0 min 0,000 mm 0,0 UV-I 0 W/m 4,3 C 5,8 C 11,3 km/h (2 Bft) 100,00 %
20.04.2016 05:11 7,3 C 81 % 1025,1 hPa 0,0 l/m 7,4 km/h (2 Bft) SW 236 0 min 0,000 mm 0,0 UV-I 0 W/m 4,3 C 6,5 C 9,7 km/h (2 Bft) 95,65 %
20.04.2016 05:12 7,3 C 81 % 1025,1 hPa 0,0 l/m 7,6 km/h (2 Bft) SW 224 0 min 0,000 mm 0,0 UV-I 0 W/m 4,3 C 6,3 C 9,7 km/h (2 Bft) 100,00 %
20.04.2016 05:13 7,3 C 81 % 1025,1 hPa 0,0 l/m 7,1 km/h (2 Bft) SW 214 0 min 0,000 mm 0,0 UV-I 0 W/m 4,3 C 6,7 C 9,7 km/h (2 Bft) 100,00 %
20.04.2016 05:14 7,3 C 81 % 1025,1 hPa 0,0 l/m 8,1 km/h (2 Bft) SW 220 0 min 0,000 mm 0,0 UV-I 0 W/m 4,3 C 5,9 C 9,7 km/h (2 Bft) 100,00 %
20.04.2016 05:15 7,3 C 81 % 1025,1 hPa 0,0 l/m 8,0 km/h (2 Bft) SW 227 0 min 0,000 mm 0,0 UV-I 0 W/m 4,3 C 6,0 C 11,3 km/h (2 Bft) 100,00 %
20.04.2016 05:16 7,3 C 81 % 1025,1 hPa 0,0 l/m 7,5 km/h (2 Bft) SW 234 0 min 0,000 mm 0,0 UV-I 0 W/m 4,3 C 6,4 C 11,3 km/h (2 Bft) 100,00 %
20.04.2016 05:17 7,3 C 81 % 1025,1 hPa 0,0 l/m 7,4 km/h (2 Bft) SW 227 0 min 0,000 mm 0,0 UV-I 0 W/m 4,3 C 6,5 C 9,7 km/h (2 Bft) 100,00 %
20.04.2016 05:18 7,3 C 81 % 1025,1 hPa 0,0 l/m 6,4 km/h (2 Bft) SW 228 0 min 0,000 mm 0,0 UV-I 0 W/m 4,3 C 7,3 C 9,7 km/h (2 Bft) 100,00 %
20.04.2016 05:19 7,3 C 81 % 1025,1 hPa 0,0 l/m 7,0 km/h (2 Bft) SW 223 0 min 0,000 mm 0,0 UV-I 0 W/m 4,3 C 6,8 C 9,7 km/h (2 Bft) 100,00 %
20.04.2016 05:20 7,3 C 81 % 1025,1 hPa 0,0 l/m 6,7 km/h (2 Bft) SW 223 0 min 0,000 mm 0,0 UV-I 0 W/m 4,3 C 7,1 C 9,7 km/h (2 Bft) 93,33 %
20.04.2016 05:21 7,3 C 81 % 1025,2 hPa 0,0 l/m 7,0 km/h (2 Bft) SW 227 0 min 0,000 mm 0,0 UV-I 0 W/m 4,3 C 6,8 C 9,7 km/h (2 Bft) 100,00 %
20.04.2016 05:22 7,3 C 81 % 1025,1 hPa 0,0 l/m 7,1 km/h (2 Bft) SW 232 0 min 0,000 mm 0,0 UV-I 0 W/m 4,3 C 6,7 C 9,7 km/h (2 Bft) 100,00 %
20.04.2016 05:23 7,3 C 81 % 1025,1 hPa 0,0 l/m 7,2 km/h (2 Bft) W-SW 237 0 min 0,000 mm 0,0 UV-I 0 W/m 4,3 C 6,7 C 11,3 km/h (2 Bft) 100,00 %
20.04.2016 05:24 7,3 C 81 % 1025,1 hPa 0,0 l/m 6,6 km/h (2 Bft) SW 225 0 min 0,000 mm 0,0 UV-I 0 W/m 4,3 C 7,2 C 8,0 km/h (2 Bft) 96,15 %
20.04.2016 05:25 7,3 C 81 % 1025,1 hPa 0,0 l/m 5,8 km/h (2 Bft) SW 232 0 min 0,000 mm 0,0 UV-I 0 W/m 4,3 C 7,3 C 8,0 km/h (2 Bft) 100,00 %
20.04.2016 05:26 7,3 C 81 % 1025,2 hPa 0,0 l/m 5,5 km/h (1 Bft) SW 216 0 min 0,000 mm 0,0 UV-I 0 W/m 4,3 C 7,3 C 6,4 km/h (2 Bft) 100,00 %
20.04.2016 05:27 7,3 C 81 % 1025,2 hPa 0,0 l/m 4,6 km/h (1 Bft) SW 220 0 min 0,000 mm 0,0 UV-I 0 W/m 4,3 C 7,3 C 6,4 km/h (2 Bft) 100,00 %
20.04.2016 05:28 7,3 C 81 % 1025,2 hPa 0,0 l/m 5,3 km/h (1 Bft) SW 227 0 min 0,000 mm 0,0 UV-I 0 W/m 4,3 C 7,3 C 8,0 km/h (2 Bft) 100,00 %
20.04.2016 05:29 7,3 C 81 % 1025,3 hPa 0,0 l/m 7,2 km/h (2 Bft) SW 224 0 min 0,000 mm 0,0 UV-I 0 W/m 4,3 C 6,7 C 9,7 km/h (2 Bft) 100,00 %
20.04.2016 05:30 7,3 C 81 % 1025,2 hPa 0,0 l/m 6,8 km/h (2 Bft) SW 229 0 min 0,000 mm 0,0 UV-I 0 W/m 4,3 C 7,0 C 9,7 km/h (2 Bft) 100,00 %
20.04.2016 05:31 7,3 C 81 % 1025,2 hPa 0,0 l/m 5,6 km/h (1 Bft) SW 216 0 min 0,000 mm 0,0 UV-I 0 W/m 4,3 C 7,3 C 8,0 km/h (2 Bft) 100,00 %
20.04.2016 05:32 7,3 C 81 % 1025,2 hPa 0,0 l/m 4,0 km/h (1 Bft) SW 225 0 min 0,000 mm 0,0 UV-I 0 W/m 4,3 C 7,3 C 6,4 km/h (2 Bft) 100,00 %
20.04.2016 05:33 7,3 C 81 % 1025,2 hPa 0,0 l/m 4,6 km/h (1 Bft) SW 223 0 min 0,000 mm 0,0 UV-I 0 W/m 4,3 C 7,3 C 8,0 km/h (2 Bft) 100,00 %
20.04.2016 05:34 7,3 C 81 % 1025,2 hPa 0,0 l/m 5,2 km/h (1 Bft) SW 217 0 min 0,000 mm 0,0 UV-I 0 W/m 4,3 C 7,3 C 6,4 km/h (2 Bft) 100,00 %
20.04.2016 05:35 7,3 C 81 % 1025,2 hPa 0,0 l/m 5,3 km/h (1 Bft) SW 217 0 min 0,000 mm 0,0 UV-I 0 W/m 4,3 C 7,3 C 6,4 km/h (2 Bft) 100,00 %
20.04.2016 05:36 7,3 C 81 % 1025,2 hPa 0,0 l/m 3,8 km/h (1 Bft) S-SW 209 0 min 0,000 mm 0,0 UV-I 0 W/m 4,3 C 7,3 C 6,4 km/h (2 Bft) 95,65 %
20.04.2016 05:37 7,2 C 81 % 1025,2 hPa 0,0 l/m 4,5 km/h (1 Bft) SW 215 0 min 0,000 mm 0,0 UV-I 0 W/m 4,2 C 7,2 C 6,4 km/h (2 Bft) 100,00 %
20.04.2016 05:38 7,2 C 81 % 1025,3 hPa 0,0 l/m 4,2 km/h (1 Bft) SW 218 0 min 0,000 mm 0,0 UV-I 0 W/m 4,2 C 7,2 C 4,8 km/h (1 Bft) 100,00 %
20.04.2016 05:39 7,3 C 81 % 1025,2 hPa 0,0 l/m 5,0 km/h (1 Bft) S-SW 204 0 min 0,000 mm 0,0 UV-I 0 W/m 4,3 C 7,3 C 6,4 km/h (2 Bft) 100,00 %
20.04.2016 05:40 7,3 C 81 % 1025,3 hPa 0,0 l/m 3,8 km/h (1 Bft) S-SW 206 0 min 0,000 mm 0,0 UV-I 0 W/m 4,3 C 7,3 C 4,8 km/h (1 Bft) 100,00 %
20.04.2016 05:41 7,2 C 81 % 1025,2 hPa 0,0 l/m 4,5 km/h (1 Bft) SW 226 0 min 0,000 mm 0,0 UV-I 0 W/m 4,2 C 7,2 C 6,4 km/h (2 Bft) 100,00 %
20.04.2016 05:42 7,2 C 81 % 1025,2 hPa 0,0 l/m 5,1 km/h (1 Bft) S-SW 211 0 min 0,000 mm 0,0 UV-I 0 W/m 4,2 C 7,2 C 6,4 km/h (2 Bft) 100,00 %
20.04.2016 05:43 7,3 C 81 % 1025,3 hPa 0,0 l/m 4,5 km/h (1 Bft) SW 234 0 min 0,000 mm 0,0 UV-I 0 W/m 4,3 C 7,3 C 6,4 km/h (2 Bft) 100,00 %
20.04.2016 05:44 7,2 C 81 % 1025,3 hPa 0,0 l/m 5,1 km/h (1 Bft) SW 229 0 min 0,000 mm 0,0 UV-I 0 W/m 4,2 C 7,2 C 8,0 km/h (2 Bft) 100,00 %
20.04.2016 05:45 7,3 C 81 % 1025,3 hPa 0,0 l/m 6,3 km/h (2 Bft) S-SW 205 0 min 0,000 mm 0,0 UV-I 0 W/m 4,3 C 7,3 C 8,0 km/h (2 Bft) 100,00 %
20.04.2016 05:46 7,2 C 81 % 1025,3 hPa 0,0 l/m 5,9 km/h (2 Bft) SW 234 0 min 0,000 mm 0,0 UV-I 0 W/m 4,2 C 7,2 C 8,0 km/h (2 Bft) 95,83 %
20.04.2016 05:47 7,3 C 81 % 1025,3 hPa 0,0 l/m 6,2 km/h (2 Bft) W-SW 242 0 min 0,000 mm 0,0 UV-I 0 W/m 4,3 C 7,3 C 8,0 km/h (2 Bft) 100,00 %
20.04.2016 05:48 7,3 C 82 % 1025,3 hPa 0,0 l/m 6,2 km/h (2 Bft) SW 225 0 min 0,000 mm 0,0 UV-I 0 W/m 4,4 C 7,3 C 8,0 km/h (2 Bft) 100,00 %
20.04.2016 05:49 7,2 C 82 % 1025,3 hPa 0,0 l/m 6,7 km/h (2 Bft) W-SW 238 0 min 0,000 mm 0,0 UV-I 0 W/m 4,3 C 7,0 C 9,7 km/h (2 Bft) 100,00 %
20.04.2016 05:50 7,2 C 82 % 1025,3 hPa 0,0 l/m 6,0 km/h (2 Bft) SW 229 0 min 0,000 mm 0,0 UV-I 0 W/m 4,3 C 7,2 C 8,0 km/h (2 Bft) 100,00 %
20.04.2016 05:51 7,3 C 82 % 1025,3 hPa 0,0 l/m 6,9 km/h (2 Bft) SW 227 0 min 0,000 mm 0,0 UV-I 0 W/m 4,4 C 6,9 C 8,0 km/h (2 Bft) 100,00 %
20.04.2016 05:52 7,2 C 82 % 1025,3 hPa 0,0 l/m 6,1 km/h (2 Bft) SW 228 0 min 0,000 mm 0,0 UV-I 0 W/m 4,3 C 7,2 C 8,0 km/h (2 Bft) 100,00 %
20.04.2016 05:53 7,2 C 82 % 1025,3 hPa 0,0 l/m 6,1 km/h (2 Bft) SW 214 0 min 0,000 mm 0,0 UV-I 0 W/m 4,3 C 7,2 C 8,0 km/h (2 Bft) 96,15 %
20.04.2016 05:54 7,2 C 82 % 1025,3 hPa 0,0 l/m 6,5 km/h (2 Bft) SW 232 0 min 0,000 mm 0,0 UV-I 0 W/m 4,3 C 7,1 C 8,0 km/h (2 Bft) 100,00 %
20.04.2016 05:55 7,2 C 82 % 1025,4 hPa 0,0 l/m 6,1 km/h (2 Bft) SW 232 0 min 0,000 mm 0,0 UV-I 0 W/m 4,3 C 7,2 C 8,0 km/h (2 Bft) 100,00 %
20.04.2016 05:56 7,2 C 82 % 1025,3 hPa 0,0 l/m 6,0 km/h (2 Bft) SW 217 0 min 0,000 mm 0,0 UV-I 0 W/m 4,3 C 7,2 C 8,0 km/h (2 Bft) 100,00 %
20.04.2016 05:57 7,2 C 82 % 1025,3 hPa 0,0 l/m 5,2 km/h (1 Bft) SW 230 0 min 0,000 mm 0,0 UV-I 0 W/m 4,3 C 7,2 C 6,4 km/h (2 Bft) 100,00 %
20.04.2016 05:58 7,2 C 82 % 1025,3 hPa 0,0 l/m 6,2 km/h (2 Bft) W-SW 237 0 min 0,000 mm 0,0 UV-I 0 W/m 4,3 C 7,2 C 9,7 km/h (2 Bft) 100,00 %
20.04.2016 05:59 7,2 C 82 % 1025,4 hPa 0,0 l/m 5,7 km/h (1 Bft) W-SW 240 0 min 0,000 mm 0,0 UV-I 0 W/m 4,3 C 7,2 C 8,0 km/h (2 Bft) 100,00 %
20.04.2016 06:00 7,2 C 82 % 1025,4 hPa 0,0 l/m 4,5 km/h (1 Bft) SW 218 0 min 0,000 mm 0,0 UV-I 0 W/m 4,3 C 7,2 C 6,4 km/h (2 Bft) 100,00 %
20.04.2016 06:01 7,2 C 82 % 1025,4 hPa 0,0 l/m 4,6 km/h (1 Bft) SW 223 0 min 0,025 mm 0,0 UV-I 0 W/m 4,3 C 7,2 C 6,4 km/h (2 Bft) 100,00 %
20.04.2016 06:02 7,2 C 82 % 1025,4 hPa 0,0 l/m 3,9 km/h (1 Bft) SW 226 0 min 0,000 mm 0,0 UV-I 0 W/m 4,3 C 7,2 C 6,4 km/h (2 Bft) 100,00 %
20.04.2016 06:03 7,2 C 82 % 1025,4 hPa 0,0 l/m 4,1 km/h (1 Bft) W-SW 249 0 min 0,000 mm 0,0 UV-I 0 W/m 4,3 C 7,2 C 6,4 km/h (2 Bft) 100,00 %
20.04.2016 06:04 7,2 C 82 % 1025,4 hPa 0,0 l/m 4,3 km/h (1 Bft) SW 215 0 min 0,000 mm 0,0 UV-I 0 W/m 4,3 C 7,2 C 6,4 km/h (2 Bft) 100,00 %
20.04.2016 06:05 7,2 C 82 % 1025,4 hPa 0,0 l/m 4,7 km/h (1 Bft) SW 225 0 min 0,000 mm 0,0 UV-I 0 W/m 4,3 C 7,2 C 6,4 km/h (2 Bft) 100,00 %
20.04.2016 06:06 7,2 C 82 % 1025,4 hPa 0,0 l/m 4,1 km/h (1 Bft) W-SW 256 0 min 0,000 mm 0,0 UV-I 0 W/m 4,3 C 7,2 C 4,8 km/h (1 Bft) 100,00 %
20.04.2016 06:07 7,2 C 82 % 1025,4 hPa 0,0 l/m 3,9 km/h (1 Bft) W-SW 256 0 min 0,000 mm 0,0 UV-I 0 W/m 4,3 C 7,2 C 6,4 km/h (2 Bft) 96,30 %
20.04.2016 06:08 7,2 C 82 % 1025,4 hPa 0,0 l/m 4,3 km/h (1 Bft) W-SW 252 0 min 0,000 mm 0,0 UV-I 0 W/m 4,3 C 7,2 C 4,8 km/h (1 Bft) 100,00 %
20.04.2016 06:09 7,2 C 82 % 1025,5 hPa 0,0 l/m 3,5 km/h (1 Bft) W-SW 252 0 min 0,000 mm 0,0 UV-I 0 W/m 4,3 C 7,2 C 4,8 km/h (1 Bft) 100,00 %
20.04.2016 06:10 7,2 C 82 % 1025,5 hPa 0,0 l/m 3,6 km/h (1 Bft) W-SW 252 0 min 0,000 mm 0,0 UV-I 0 W/m 4,3 C 7,2 C 4,8 km/h (1 Bft) 100,00 %
20.04.2016 06:11 7,2 C 82 % 1025,5 hPa 0,0 l/m 4,3 km/h (1 Bft) W-SW 246 0 min 0,000 mm 0,0 UV-I 0 W/m 4,3 C 7,2 C 4,8 km/h (1 Bft) 100,00 %
20.04.2016 06:12 7,2 C 82 % 1025,5 hPa 0,0 l/m 3,4 km/h (1 Bft) W-SW 246 0 min 0,000 mm 0,0 UV-I 0 W/m 4,3 C 7,2 C 4,8 km/h (1 Bft) 100,00 %
20.04.2016 06:13 7,2 C 82 % 1025,5 hPa 0,0 l/m 3,6 km/h (1 Bft) W-SW 248 0 min 0,000 mm 0,0 UV-I 3 W/m 4,3 C 7,2 C 4,8 km/h (1 Bft) 100,00 %
20.04.2016 06:14 7,2 C 82 % 1025,6 hPa 0,0 l/m 3,5 km/h (1 Bft) W-SW 248 0 min 0,000 mm 0,0 UV-I 5 W/m 4,3 C 7,2 C 4,8 km/h (1 Bft) 100,00 %
20.04.2016 06:15 7,2 C 82 % 1025,6 hPa 0,0 l/m 2,5 km/h (1 Bft) W-SW 248 0 min 0,000 mm 0,0 UV-I 5 W/m 4,3 C 7,2 C 3,2 km/h (1 Bft) 96,30 %
20.04.2016 06:16 7,2 C 82 % 1025,6 hPa 0,0 l/m 3,8 km/h (1 Bft) W-SW 248 0 min 0,000 mm 0,0 UV-I 5 W/m 4,3 C 7,2 C 4,8 km/h (1 Bft) 96,15 %
20.04.2016 06:17 7,2 C 82 % 1025,6 hPa 0,0 l/m 3,5 km/h (1 Bft) W-SW 248 0 min 0,000 mm 0,0 UV-I 5 W/m 4,3 C 7,2 C 4,8 km/h (1 Bft) 100,00 %
20.04.2016 06:18 7,2 C 82 % 1025,6 hPa 0,0 l/m 3,0 km/h (1 Bft) W-SW 248 0 min 0,000 mm 0,0 UV-I 5 W/m 4,3 C 7,2 C 4,8 km/h (1 Bft) 100,00 %
20.04.2016 06:19 7,1 C 82 % 1025,6 hPa 0,0 l/m 3,2 km/h (1 Bft) W-SW 248 0 min 0,000 mm 0,0 UV-I 6 W/m 4,2 C 7,1 C 4,8 km/h (1 Bft) 100,00 %
20.04.2016 06:20 7,1 C 82 % 1025,6 hPa 0,0 l/m 3,0 km/h (1 Bft) W-SW 248 0 min 0,000 mm 0,0 UV-I 7 W/m 4,2 C 7,1 C 3,2 km/h (1 Bft) 95,83 %
20.04.2016 06:21 7,1 C 82 % 1025,6 hPa 0,0 l/m 3,2 km/h (1 Bft) W-SW 244 0 min 0,000 mm 0,0 UV-I 7 W/m 4,2 C 7,1 C 4,8 km/h (1 Bft) 95,65 %
20.04.2016 06:22 7,1 C 82 % 1025,6 hPa 0,0 l/m 4,6 km/h (1 Bft) SW 229 0 min 0,000 mm 0,0 UV-I 7 W/m 4,2 C 7,1 C 6,4 km/h (2 Bft) 100,00 %
20.04.2016 06:23 7,1 C 82 % 1025,6 hPa 0,0 l/m 4,2 km/h (1 Bft) SW 228 0 min 0,000 mm 0,0 UV-I 8 W/m 4,2 C 7,1 C 4,8 km/h (1 Bft) 100,00 %
20.04.2016 06:24 7,1 C 82 % 1025,6 hPa 0,0 l/m 3,5 km/h (1 Bft) SW 228 0 min 0,000 mm 0,0 UV-I 9 W/m 4,2 C 7,1 C 4,8 km/h (1 Bft) 100,00 %
20.04.2016 06:25 7,1 C 82 % 1025,6 hPa 0,0 l/m 2,8 km/h (1 Bft) SW 228 0 min 0,000 mm 0,0 UV-I 9 W/m 4,2 C 7,1 C 3,2 km/h (1 Bft) 100,00 %
20.04.2016 06:26 7,1 C 82 % 1025,7 hPa 0,0 l/m 4,0 km/h (1 Bft) SW 226 0 min 0,000 mm 0,0 UV-I 9 W/m 4,2 C 7,1 C 4,8 km/h (1 Bft) 100,00 %
20.04.2016 06:27 7,1 C 82 % 1025,7 hPa 0,0 l/m 3,0 km/h (1 Bft) SW 225 0 min 0,000 mm 0,0 UV-I 9 W/m 4,2 C 7,1 C 6,4 km/h (2 Bft) 100,00 %
20.04.2016 06:28 7,1 C 82 % 1025,7 hPa 0,0 l/m 4,4 km/h (1 Bft) SW 225 0 min 0,000 mm 0,0 UV-I 9 W/m 4,2 C 7,1 C 6,4 km/h (2 Bft) 100,00 %
20.04.2016 06:29 7,1 C 82 % 1025,7 hPa 0,0 l/m 5,3 km/h (1 Bft) SW 215 0 min 0,000 mm 0,0 UV-I 11 W/m 4,2 C 7,1 C 6,4 km/h (2 Bft) 100,00 %
20.04.2016 06:30 7,1 C 82 % 1025,7 hPa 0,0 l/m 4,2 km/h (1 Bft) SW 234 0 min 0,000 mm 0,0 UV-I 11 W/m 4,2 C 7,1 C 4,8 km/h (1 Bft) 100,00 %
20.04.2016 06:31 7,1 C 82 % 1025,7 hPa 0,0 l/m 4,5 km/h (1 Bft) SW 224 0 min 0,000 mm 0,0 UV-I 11 W/m 4,2 C 7,1 C 6,4 km/h (2 Bft) 100,00 %
20.04.2016 06:32 7,1 C 82 % 1025,7 hPa 0,0 l/m 4,3 km/h (1 Bft) S 189 0 min 0,000 mm 0,0 UV-I 11 W/m 4,2 C 7,1 C 6,4 km/h (2 Bft) 100,00 %
20.04.2016 06:33 7,1 C 82 % 1025,8 hPa 0,0 l/m 3,6 km/h (1 Bft) SW 216 0 min 0,000 mm 0,0 UV-I 11 W/m 4,2 C 7,1 C 4,8 km/h (1 Bft) 95,83 %
20.04.2016 06:34 7,1 C 82 % 1025,8 hPa 0,0 l/m 4,6 km/h (1 Bft) SW 222 0 min 0,000 mm 0,0 UV-I 12 W/m 4,2 C 7,1 C 6,4 km/h (2 Bft) 100,00 %
20.04.2016 06:35 7,1 C 82 % 1025,8 hPa 0,0 l/m 5,7 km/h (1 Bft) S-SW 200 0 min 0,000 mm 0,0 UV-I 12 W/m 4,2 C 7,1 C 8,0 km/h (2 Bft) 100,00 %
20.04.2016 06:36 7,1 C 82 % 1025,8 hPa 0,0 l/m 3,0 km/h (1 Bft) S-SW 202 0 min 0,000 mm 0,0 UV-I 13 W/m 4,2 C 7,1 C 4,8 km/h (1 Bft) 100,00 %
20.04.2016 06:37 7,1 C 82 % 1025,9 hPa 0,0 l/m 4,9 km/h (1 Bft) SW 215 0 min 0,000 mm 0,0 UV-I 14 W/m 4,2 C 7,1 C 6,4 km/h (2 Bft) 95,83 %
20.04.2016 06:38 7,1 C 82 % 1025,9 hPa 0,0 l/m 3,7 km/h (1 Bft) W-SW 238 0 min 0,000 mm 0,0 UV-I 14 W/m 4,2 C 7,1 C 4,8 km/h (1 Bft) 100,00 %
20.04.2016 06:39 7,1 C 82 % 1025,9 hPa 0,0 l/m 4,3 km/h (1 Bft) SW 217 0 min 0,000 mm 0,0 UV-I 16 W/m 4,2 C 7,1 C 4,8 km/h (1 Bft) 96,15 %
20.04.2016 06:40 7,1 C 82 % 1025,8 hPa 0,0 l/m 3,1 km/h (1 Bft) SW 217 0 min 0,000 mm 0,0 UV-I 16 W/m 4,2 C 7,1 C 4,8 km/h (1 Bft) 95,83 %
20.04.2016 06:41 7,1 C 82 % 1025,8 hPa 0,0 l/m 3,8 km/h (1 Bft) SW 217 0 min 0,000 mm 0,0 UV-I 18 W/m 4,2 C 7,1 C 4,8 km/h (1 Bft) 100,00 %
20.04.2016 06:42 7,2 C 82 % 1025,9 hPa 0,0 l/m 3,6 km/h (1 Bft) SW 219 0 min 0,000 mm 0,0 UV-I 19 W/m 4,3 C 7,2 C 4,8 km/h (1 Bft) 100,00 %
20.04.2016 06:43 7,2 C 82 % 1025,9 hPa 0,0 l/m 4,1 km/h (1 Bft) SW 219 0 min 0,000 mm 0,0 UV-I 20 W/m 4,3 C 7,2 C 6,4 km/h (2 Bft) 96,30 %
20.04.2016 06:44 7,2 C 82 % 1025,9 hPa 0,0 l/m 4,4 km/h (1 Bft) SW 231 0 min 0,000 mm 0,0 UV-I 21 W/m 4,3 C 7,2 C 6,4 km/h (2 Bft) 96,15 %
20.04.2016 06:45 7,2 C 82 % 1025,9 hPa 0,0 l/m 4,6 km/h (1 Bft) SW 226 0 min 0,000 mm 0,0 UV-I 21 W/m 4,3 C 7,2 C 6,4 km/h (2 Bft) 100,00 %
20.04.2016 06:46 7,2 C 82 % 1025,9 hPa 0,0 l/m 4,7 km/h (1 Bft) SW 222 0 min 0,000 mm 0,0 UV-I 24 W/m 4,3 C 7,2 C 6,4 km/h (2 Bft) 92,31 %
20.04.2016 06:47 7,2 C 82 % 1025,9 hPa 0,0 l/m 4,7 km/h (1 Bft) S-SW 209 0 min 0,000 mm 0,0 UV-I 25 W/m 4,3 C 7,2 C 6,4 km/h (2 Bft) 100,00 %
20.04.2016 06:48 7,2 C 82 % 1025,9 hPa 0,0 l/m 4,4 km/h (1 Bft) S-SW 207 0 min 0,000 mm 0,0 UV-I 26 W/m 4,3 C 7,2 C 6,4 km/h (2 Bft) 95,65 %
20.04.2016 06:49 7,2 C 82 % 1025,9 hPa 0,0 l/m 4,8 km/h (1 Bft) S-SW 204 0 min 0,000 mm 0,0 UV-I 26 W/m 4,3 C 7,2 C 6,4 km/h (2 Bft) 95,83 %
20.04.2016 06:50 7,2 C 82 % 1026,0 hPa 0,0 l/m 4,5 km/h (1 Bft) S-SW 208 0 min 0,000 mm 0,0 UV-I 28 W/m 4,3 C 7,2 C 6,4 km/h (2 Bft) 100,00 %
20.04.2016 06:51 7,2 C 82 % 1025,9 hPa 0,0 l/m 4,2 km/h (1 Bft) S-SW 207 0 min 0,000 mm 0,0 UV-I 28 W/m 4,3 C 7,2 C 6,4 km/h (2 Bft) 95,83 %
20.04.2016 06:52 7,2 C 82 % 1026,0 hPa 0,0 l/m 4,0 km/h (1 Bft) S-SW 209 0 min 0,000 mm 0,0 UV-I 29 W/m 4,3 C 7,2 C 4,8 km/h (1 Bft) 100,00 %
20.04.2016 06:53 7,2 C 82 % 1026,0 hPa 0,0 l/m 4,8 km/h (1 Bft) S-SW 211 0 min 0,000 mm 0,0 UV-I 30 W/m 4,3 C 7,2 C 6,4 km/h (2 Bft) 91,67 %
20.04.2016 06:54 7,2 C 82 % 1026,0 hPa 0,0 l/m 4,1 km/h (1 Bft) S-SW 203 0 min 0,000 mm 0,0 UV-I 31 W/m 4,3 C 7,2 C 6,4 km/h (2 Bft) 100,00 %
20.04.2016 06:55 7,2 C 81 % 1026,0 hPa 0,0 l/m 4,2 km/h (1 Bft) SW 219 0 min 0,000 mm 0,0 UV-I 32 W/m 4,2 C 7,2 C 6,4 km/h (2 Bft) 96,15 %
20.04.2016 06:56 7,2 C 81 % 1026,0 hPa 0,0 l/m 4,8 km/h (1 Bft) S-SW 208 0 min 0,000 mm 0,0 UV-I 33 W/m 4,2 C 7,2 C 6,4 km/h (2 Bft) 100,00 %
20.04.2016 06:57 7,2 C 81 % 1026,0 hPa 0,0 l/m 4,3 km/h (1 Bft) SW 219 0 min 0,000 mm 0,0 UV-I 33 W/m 4,2 C 7,2 C 4,8 km/h (1 Bft) 96,30 %
20.04.2016 06:58 7,2 C 81 % 1026,0 hPa 0,0 l/m 5,3 km/h (1 Bft) SW 216 0 min 0,000 mm 0,0 UV-I 33 W/m 4,2 C 7,2 C 8,0 km/h (2 Bft) 95,65 %
20.04.2016 06:59 7,2 C 81 % 1026,1 hPa 0,0 l/m 4,5 km/h (1 Bft) S-SW 208 0 min 0,000 mm 0,0 UV-I 33 W/m 4,2 C 7,2 C 6,4 km/h (2 Bft) 100,00 %
20.04.2016 07:00 7,2 C 81 % 1026,1 hPa 0,0 l/m 5,4 km/h (1 Bft) SW 231 0 min 0,026 mm 0,0 UV-I 33 W/m 4,2 C 7,2 C 8,0 km/h (2 Bft) 96,30 %
20.04.2016 07:01 7,2 C 81 % 1026,1 hPa 0,0 l/m 4,6 km/h (1 Bft) SW 225 0 min 0,000 mm 0,0 UV-I 34 W/m 4,2 C 7,2 C 6,4 km/h (2 Bft) 96,15 %
20.04.2016 07:02 7,3 C 81 % 1026,1 hPa 0,0 l/m 5,6 km/h (1 Bft) SW 218 0 min 0,000 mm 0,0 UV-I 37 W/m 4,3 C 7,3 C 8,0 km/h (2 Bft) 95,83 %
20.04.2016 07:03 7,3 C 81 % 1026,1 hPa 0,0 l/m 4,2 km/h (1 Bft) SW 219 0 min 0,000 mm 0,0 UV-I 39 W/m 4,3 C 7,3 C 6,4 km/h (2 Bft) 100,00 %
20.04.2016 07:04 7,3 C 81 % 1026,1 hPa 0,0 l/m 4,8 km/h (1 Bft) W-SW 244 0 min 0,000 mm 0,0 UV-I 40 W/m 4,3 C 7,3 C 8,0 km/h (2 Bft) 92,59 %
20.04.2016 07:05 7,3 C 81 % 1026,1 hPa 0,0 l/m 4,5 km/h (1 Bft) SW 229 0 min 0,000 mm 0,0 UV-I 41 W/m 4,3 C 7,3 C 6,4 km/h (2 Bft) 100,00 %
20.04.2016 07:06 7,3 C 81 % 1026,1 hPa 0,0 l/m 5,2 km/h (1 Bft) S-SW 198 0 min 0,000 mm 0,0 UV-I 43 W/m 4,3 C 7,3 C 6,4 km/h (2 Bft) 95,83 %
20.04.2016 07:07 7,3 C 81 % 1026,2 hPa 0,0 l/m 5,1 km/h (1 Bft) S-SW 200 0 min 0,000 mm 0,0 UV-I 45 W/m 4,3 C 7,3 C 8,0 km/h (2 Bft) 100,00 %
20.04.2016 07:08 7,3 C 81 % 1026,1 hPa 0,0 l/m 4,4 km/h (1 Bft) S-SW 213 0 min 0,000 mm 0,0 UV-I 47 W/m 4,3 C 7,3 C 6,4 km/h (2 Bft) 96,97 %
20.04.2016 07:09 7,3 C 81 % 1026,2 hPa 0,0 l/m 4,3 km/h (1 Bft) S-SW 207 0 min 0,000 mm 0,0 UV-I 50 W/m 4,3 C 7,3 C 4,8 km/h (1 Bft) 98,45 %
20.04.2016 07:10 7,3 C 81 % 1026,2 hPa 0,0 l/m 5,5 km/h (1 Bft) W-SW 252 0 min 0,000 mm 0,0 UV-I 52 W/m 4,3 C 7,3 C 8,0 km/h (2 Bft) 97,73 %
20.04.2016 07:11 7,3 C 81 % 1026,2 hPa 0,0 l/m 5,0 km/h (1 Bft) SW 221 0 min 0,000 mm 0,0 UV-I 53 W/m 4,3 C 7,3 C 6,4 km/h (2 Bft) 100,00 %
20.04.2016 07:12 7,3 C 81 % 1026,2 hPa 0,0 l/m 3,8 km/h (1 Bft) W-SW 238 0 min 0,000 mm 0,0 UV-I 53 W/m 4,3 C 7,3 C 4,8 km/h (1 Bft) 96,30 %
20.04.2016 07:13 7,3 C 81 % 1026,2 hPa 0,0 l/m 2,7 km/h (1 Bft) SW 220 0 min 0,000 mm 0,0 UV-I 54 W/m 4,3 C 7,3 C 4,8 km/h (1 Bft) 100,00 %
20.04.2016 07:14 7,4 C 81 % 1026,2 hPa 0,0 l/m 3,9 km/h (1 Bft) S-SW 211 0 min 0,000 mm 0,0 UV-I 54 W/m 4,4 C 7,4 C 6,4 km/h (2 Bft) 100,00 %
20.04.2016 07:15 7,4 C 81 % 1026,2 hPa 0,0 l/m 5,0 km/h (1 Bft) S-SW 211 0 min 0,000 mm 0,0 UV-I 54 W/m 4,4 C 7,4 C 6,4 km/h (2 Bft) 100,00 %
20.04.2016 07:16 7,4 C 81 % 1026,2 hPa 0,0 l/m 5,4 km/h (1 Bft) S-SW 206 0 min 0,000 mm 0,0 UV-I 57 W/m 4,4 C 7,4 C 6,4 km/h (2 Bft) 95,83 %
20.04.2016 07:17 7,4 C 81 % 1026,2 hPa 0,0 l/m 5,6 km/h (1 Bft) S-SW 207 0 min 0,000 mm 0,0 UV-I 59 W/m 4,4 C 7,4 C 8,0 km/h (2 Bft) 100,00 %
20.04.2016 07:18 7,4 C 81 % 1026,2 hPa 0,0 l/m 5,1 km/h (1 Bft) SW 219 0 min 0,000 mm 0,0 UV-I 60 W/m 4,4 C 7,4 C 8,0 km/h (2 Bft) 100,00 %
20.04.2016 07:19 7,4 C 81 % 1026,3 hPa 0,0 l/m 4,2 km/h (1 Bft) S-SW 205 0 min 0,000 mm 0,0 UV-I 60 W/m 4,4 C 7,4 C 6,4 km/h (2 Bft) 95,65 %
20.04.2016 07:20 7,4 C 80 % 1026,3 hPa 0,0 l/m 4,2 km/h (1 Bft) S-SW 209 0 min 0,000 mm 0,0 UV-I 58 W/m 4,2 C 7,4 C 6,4 km/h (2 Bft) 100,00 %
20.04.2016 07:21 7,4 C 80 % 1026,3 hPa 0,0 l/m 3,1 km/h (1 Bft) SW 225 0 min 0,000 mm 0,0 UV-I 61 W/m 4,2 C 7,4 C 4,8 km/h (1 Bft) 100,00 %
20.04.2016 07:22 7,4 C 80 % 1026,2 hPa 0,0 l/m 3,9 km/h (1 Bft) SW 226 0 min 0,000 mm 0,0 UV-I 62 W/m 4,2 C 7,4 C 4,8 km/h (1 Bft) 100,00 %
20.04.2016 07:23 7,4 C 81 % 1026,3 hPa 0,0 l/m 2,1 km/h (1 Bft) SW 226 0 min 0,000 mm 0,0 UV-I 67 W/m 4,4 C 7,4 C 4,8 km/h (1 Bft) 100,00 %
20.04.2016 07:24 7,5 C 81 % 1026,3 hPa 0,0 l/m 4,1 km/h (1 Bft) SW 222 0 min 0,000 mm 0,0 UV-I 70 W/m 4,5 C 7,5 C 6,4 km/h (2 Bft) 100,00 %
20.04.2016 07:25 7,5 C 81 % 1026,4 hPa 0,0 l/m 3,9 km/h (1 Bft) SW 223 0 min 0,000 mm 0,0 UV-I 73 W/m 4,5 C 7,5 C 6,4 km/h (2 Bft) 100,00 %
20.04.2016 07:26 7,5 C 81 % 1026,4 hPa 0,0 l/m 5,0 km/h (1 Bft) S-SW 204 0 min 0,000 mm 0,0 UV-I 76 W/m 4,5 C 7,5 C 6,4 km/h (2 Bft) 100,00 %
20.04.2016 07:27 7,5 C 80 % 1026,4 hPa 0,0 l/m 2,8 km/h (1 Bft) S-SW 199 0 min 0,000 mm 0,0 UV-I 78 W/m 4,3 C 7,5 C 4,8 km/h (1 Bft) 100,00 %
20.04.2016 07:28 7,6 C 80 % 1026,4 hPa 0,0 l/m 3,0 km/h (1 Bft) S-SW 202 0 min 0,000 mm 0,0 UV-I 82 W/m 4,4 C 7,6 C 4,8 km/h (1 Bft) 100,00 %
20.04.2016 07:29 7,6 C 80 % 1026,4 hPa 0,0 l/m 3,0 km/h (1 Bft) S-SW 202 0 min 0,000 mm 0,0 UV-I 85 W/m 4,4 C 7,6 C 4,8 km/h (1 Bft) 95,83 %
20.04.2016 07:30 7,6 C 81 % 1026,4 hPa 0,0 l/m 2,9 km/h (1 Bft) SW 219 0 min 0,000 mm 0,0 UV-I 123 W/m 4,6 C 7,6 C 6,4 km/h (2 Bft) 100,00 %
20.04.2016 07:31 7,6 C 81 % 1026,4 hPa 0,0 l/m 4,7 km/h (1 Bft) SW 223 0 min 0,000 mm 0,0 UV-I 100 W/m 4,6 C 7,6 C 6,4 km/h (2 Bft) 95,83 %
20.04.2016 07:32 7,6 C 81 % 1026,4 hPa 0,0 l/m 5,0 km/h (1 Bft) SW 227 0 min 0,000 mm 0,0 UV-I 93 W/m 4,6 C 7,6 C 6,4 km/h (2 Bft) 100,00 %
20.04.2016 07:33 7,6 C 81 % 1026,4 hPa 0,0 l/m 3,5 km/h (1 Bft) SW 227 0 min 0,000 mm 0,0 UV-I 93 W/m 4,6 C 7,6 C 4,8 km/h (1 Bft) 100,00 %
20.04.2016 07:34 7,7 C 81 % 1026,4 hPa 0,0 l/m 3,0 km/h (1 Bft) SW 227 0 min 0,000 mm 0,0 UV-I 92 W/m 4,7 C 7,7 C 4,8 km/h (1 Bft) 95,65 %
20.04.2016 07:35 7,7 C 81 % 1026,4 hPa 0,0 l/m 3,6 km/h (1 Bft) SW 227 0 min 0,000 mm 0,0 UV-I 91 W/m 4,7 C 7,7 C 4,8 km/h (1 Bft) 100,00 %
20.04.2016 07:36 7,7 C 80 % 1026,4 hPa 0,0 l/m 3,1 km/h (1 Bft) SW 227 0 min 0,000 mm 0,0 UV-I 90 W/m 4,5 C 7,7 C 4,8 km/h (1 Bft) 100,00 %
20.04.2016 07:37 7,7 C 80 % 1026,4 hPa 0,0 l/m 4,1 km/h (1 Bft) SW 228 0 min 0,000 mm 0,0 UV-I 91 W/m 4,5 C 7,7 C 6,4 km/h (2 Bft) 100,00 %
20.04.2016 07:38 7,7 C 80 % 1026,5 hPa 0,0 l/m 4,0 km/h (1 Bft) SW 228 0 min 0,000 mm 0,0 UV-I 93 W/m 4,5 C 7,7 C 4,8 km/h (1 Bft) 100,00 %
20.04.2016 07:39 7,7 C 80 % 1026,5 hPa 0,0 l/m 3,3 km/h (1 Bft) W-SW 237 0 min 0,000 mm 0,0 UV-I 97 W/m 4,5 C 7,7 C 4,8 km/h (1 Bft) 95,65 %
20.04.2016 07:40 7,7 C 80 % 1026,5 hPa 0,0 l/m 1,0 km/h (0 Bft) W-SW 237 0 min 0,000 mm 0,0 UV-I 107 W/m 4,5 C 7,7 C 3,2 km/h (1 Bft) 100,00 %
20.04.2016 07:41 7,7 C 80 % 1026,5 hPa 0,0 l/m 2,3 km/h (1 Bft) W-SW 238 0 min 0,000 mm 0,0 UV-I 140 W/m 4,5 C 7,7 C 3,2 km/h (1 Bft) 100,00 %
20.04.2016 07:42 7,7 C 80 % 1026,5 hPa 0,0 l/m 0,5 km/h (0 Bft) W-SW 238 0 min 0,000 mm 0,0 UV-I 122 W/m 4,5 C 7,7 C 3,2 km/h (1 Bft) 100,00 %
20.04.2016 07:43 7,7 C 80 % 1026,5 hPa 0,0 l/m 0,0 km/h (0 Bft) W-SW 238 0 min 0,000 mm 0,0 UV-I 106 W/m 4,5 C 7,7 C 0,0 km/h (0 Bft) 100,00 %
20.04.2016 07:44 7,8 C 80 % 1026,5 hPa 0,0 l/m 0,7 km/h (0 Bft) W-SW 238 0 min 0,000 mm 0,0 UV-I 105 W/m 4,6 C 7,8 C 1,6 km/h (1 Bft) 96,30 %
20.04.2016 07:45 7,8 C 80 % 1026,5 hPa 0,0 l/m 0,2 km/h (0 Bft) W-SW 238 0 min 0,000 mm 0,0 UV-I 106 W/m 4,6 C 7,8 C 1,6 km/h (1 Bft) 100,00 %
20.04.2016 07:46 7,8 C 80 % 1026,5 hPa 0,0 l/m 1,6 km/h (1 Bft) W-SW 238 0 min 0,000 mm 0,0 UV-I 109 W/m 4,6 C 7,8 C 3,2 km/h (1 Bft) 100,00 %
20.04.2016 07:47 7,8 C 81 % 1026,5 hPa 0,0 l/m 0,9 km/h (0 Bft) W-SW 238 0 min 0,000 mm 0,0 UV-I 112 W/m 4,7 C 7,8 C 1,6 km/h (1 Bft) 100,00 %
20.04.2016 07:48 7,8 C 81 % 1026,5 hPa 0,0 l/m 1,7 km/h (1 Bft) W-SW 238 0 min 0,000 mm 0,0 UV-I 115 W/m 4,7 C 7,8 C 3,2 km/h (1 Bft) 100,00 %
20.04.2016 07:49 7,8 C 80 % 1026,5 hPa 0,0 l/m 1,0 km/h (0 Bft) W-SW 238 0 min 0,000 mm 0,0 UV-I 118 W/m 4,6 C 7,8 C 1,6 km/h (1 Bft) 100,00 %
20.04.2016 07:50 7,8 C 80 % 1026,6 hPa 0,0 l/m 0,2 km/h (0 Bft) W-SW 238 0 min 0,000 mm 0,0 UV-I 118 W/m 4,6 C 7,8 C 1,6 km/h (1 Bft) 100,00 %
20.04.2016 07:51 7,8 C 80 % 1026,6 hPa 0,0 l/m 0,7 km/h (0 Bft) W-SW 238 0 min 0,000 mm 0,0 UV-I 120 W/m 4,6 C 7,8 C 1,6 km/h (1 Bft) 96,15 %
20.04.2016 07:52 7,8 C 80 % 1026,5 hPa 0,0 l/m 2,9 km/h (1 Bft) W-SW 238 0 min 0,000 mm 0,0 UV-I 122 W/m 4,6 C 7,8 C 3,2 km/h (1 Bft) 100,00 %
20.04.2016 07:53 7,9 C 80 % 1026,5 hPa 0,0 l/m 1,6 km/h (1 Bft) W-SW 238 0 min 0,000 mm 0,0 UV-I 126 W/m 4,7 C 7,9 C 3,2 km/h (1 Bft) 100,00 %
20.04.2016 07:54 7,9 C 80 % 1026,5 hPa 0,0 l/m 1,4 km/h (1 Bft) W-SW 246 0 min 0,000 mm 0,0 UV-I 161 W/m 4,7 C 7,9 C 4,8 km/h (1 Bft) 100,00 %
20.04.2016 07:55 7,9 C 80 % 1026,5 hPa 0,0 l/m 2,5 km/h (1 Bft) W-NW 282 0 min 0,000 mm 0,0 UV-I 134 W/m 4,7 C 7,9 C 3,2 km/h (1 Bft) 100,00 %
20.04.2016 07:56 7,9 C 80 % 1026,6 hPa 0,0 l/m 3,2 km/h (1 Bft) W-SW 255 0 min 0,000 mm 0,0 UV-I 133 W/m 4,7 C 7,9 C 4,8 km/h (1 Bft) 100,00 %
20.04.2016 07:57 8,0 C 80 % 1026,6 hPa 0,0 l/m 2,4 km/h (1 Bft) W-SW 255 0 min 0,000 mm 0,0 UV-I 124 W/m 4,8 C 8,0 C 3,2 km/h (1 Bft) 100,00 %
20.04.2016 07:58 8,0 C 80 % 1026,6 hPa 0,0 l/m 2,8 km/h (1 Bft) W 264 0 min 0,000 mm 0,0 UV-I 115 W/m 4,8 C 8,0 C 4,8 km/h (1 Bft) 100,00 %
20.04.2016 07:59 8,0 C 79 % 1026,6 hPa 0,0 l/m 2,7 km/h (1 Bft) W 263 0 min 0,000 mm 0,0 UV-I 106 W/m 4,6 C 8,0 C 3,2 km/h (1 Bft) 100,00 %
20.04.2016 08:00 8,1 C 79 % 1026,6 hPa 0,0 l/m 2,1 km/h (1 Bft) W 266 0 min 0,051 mm 0,0 UV-I 101 W/m 4,7 C 8,1 C 6,4 km/h (2 Bft) 100,00 %
20.04.2016 08:01 8,1 C 79 % 1026,7 hPa 0,0 l/m 3,4 km/h (1 Bft) W 264 0 min 0,000 mm 0,0 UV-I 100 W/m 4,7 C 8,1 C 6,4 km/h (2 Bft) 95,83 %
20.04.2016 08:02 8,1 C 79 % 1026,7 hPa 0,0 l/m 3,9 km/h (1 Bft) W-SW 257 0 min 0,000 mm 0,0 UV-I 105 W/m 4,7 C 8,1 C 6,4 km/h (2 Bft) 96,15 %
20.04.2016 08:03 8,1 C 78 % 1026,7 hPa 0,0 l/m 1,0 km/h (0 Bft) W-SW 257 0 min 0,000 mm 0,0 UV-I 109 W/m 4,5 C 8,1 C 4,8 km/h (1 Bft) 100,00 %
20.04.2016 08:04 8,1 C 78 % 1026,7 hPa 0,0 l/m 0,4 km/h (0 Bft) W-SW 257 0 min 0,000 mm 0,0 UV-I 114 W/m 4,5 C 8,1 C 1,6 km/h (1 Bft) 100,00 %
20.04.2016 08:05 8,2 C 78 % 1026,7 hPa 0,0 l/m 1,9 km/h (1 Bft) W 261 0 min 0,000 mm 0,0 UV-I 119 W/m 4,6 C 8,2 C 3,2 km/h (1 Bft) 100,00 %
20.04.2016 08:06 8,2 C 78 % 1026,7 hPa 0,0 l/m 2,8 km/h (1 Bft) W 270 0 min 0,000 mm 0,0 UV-I 124 W/m 4,6 C 8,2 C 4,8 km/h (1 Bft) 100,00 %
20.04.2016 08:07 8,2 C 78 % 1026,7 hPa 0,0 l/m 1,6 km/h (1 Bft) W 270 0 min 0,000 mm 0,0 UV-I 130 W/m 4,6 C 8,2 C 3,2 km/h (1 Bft) 100,00 %
20.04.2016 08:08 8,2 C 78 % 1026,7 hPa 0,0 l/m 0,4 km/h (0 Bft) W 270 0 min 0,000 mm 0,0 UV-I 133 W/m 4,6 C 8,2 C 1,6 km/h (1 Bft) 100,00 %
20.04.2016 08:09 8,2 C 78 % 1026,7 hPa 0,0 l/m 1,4 km/h (1 Bft) W 270 0 min 0,000 mm 0,0 UV-I 133 W/m 4,6 C 8,2 C 3,2 km/h (1 Bft) 100,00 %
20.04.2016 08:10 8,2 C 78 % 1026,7 hPa 0,0 l/m 2,5 km/h (1 Bft) W 281 0 min 0,000 mm 0,0 UV-I 133 W/m 4,6 C 8,2 C 4,8 km/h (1 Bft) 100,00 %
20.04.2016 08:11 8,3 C 78 % 1026,7 hPa 0,0 l/m 3,9 km/h (1 Bft) W 281 0 min 0,000 mm 0,0 UV-I 137 W/m 4,7 C 8,3 C 4,8 km/h (1 Bft) 100,00 %
20.04.2016 08:12 8,3 C 78 % 1026,8 hPa 0,0 l/m 1,2 km/h (1 Bft) W 281 1 min 0,000 mm 0,0 UV-I 224 W/m 4,7 C 8,3 C 3,2 km/h (1 Bft) 100,00 %
20.04.2016 08:13 8,3 C 78 % 1026,8 hPa 0,0 l/m 0,9 km/h (0 Bft) W 281 1 min 0,000 mm 0,0 UV-I 214 W/m 4,7 C 8,3 C 1,6 km/h (1 Bft) 100,00 %
20.04.2016 08:14 8,3 C 78 % 1026,7 hPa 0,0 l/m 2,4 km/h (1 Bft) W 268 0 min 0,000 mm 0,0 UV-I 146 W/m 4,7 C 8,3 C 6,4 km/h (2 Bft) 100,00 %
20.04.2016 08:15 8,3 C 78 % 1026,8 hPa 0,0 l/m 4,8 km/h (1 Bft) W 263 0 min 0,000 mm 0,0 UV-I 155 W/m 4,7 C 8,3 C 6,4 km/h (2 Bft) 100,00 %
20.04.2016 08:16 8,4 C 77 % 1026,8 hPa 0,0 l/m 4,4 km/h (1 Bft) W 266 0 min 0,000 mm 0,0 UV-I 152 W/m 4,6 C 8,4 C 4,8 km/h (1 Bft) 100,00 %
20.04.2016 08:17 8,4 C 77 % 1026,7 hPa 0,0 l/m 2,4 km/h (1 Bft) W 276 0 min 0,000 mm 0,0 UV-I 140 W/m 4,6 C 8,4 C 4,8 km/h (1 Bft) 100,00 %
20.04.2016 08:18 8,4 C 77 % 1026,8 hPa 0,0 l/m 1,4 km/h (1 Bft) W-NW 300 0 min 0,000 mm 0,0 UV-I 127 W/m 4,6 C 8,4 C 4,8 km/h (1 Bft) 96,15 %
20.04.2016 08:19 8,4 C 77 % 1026,7 hPa 0,0 l/m 5,9 km/h (2 Bft) W 274 0 min 0,000 mm 0,0 UV-I 121 W/m 4,6 C 8,4 C 9,7 km/h (2 Bft) 100,00 %
20.04.2016 08:20 8,4 C 77 % 1026,8 hPa 0,0 l/m 3,9 km/h (1 Bft) W 260 0 min 0,000 mm 0,0 UV-I 120 W/m 4,6 C 8,4 C 6,4 km/h (2 Bft) 100,00 %
20.04.2016 08:21 8,4 C 77 % 1026,8 hPa 0,0 l/m 1,1 km/h (1 Bft) W 260 0 min 0,000 mm 0,0 UV-I 122 W/m 4,6 C 8,4 C 1,6 km/h (1 Bft) 100,00 %
20.04.2016 08:22 8,5 C 77 % 1026,8 hPa 0,0 l/m 2,1 km/h (1 Bft) W 260 0 min 0,000 mm 0,0 UV-I 124 W/m 4,7 C 8,5 C 3,2 km/h (1 Bft) 100,00 %
20.04.2016 08:23 8,5 C 77 % 1026,8 hPa 0,0 l/m 1,1 km/h (1 Bft) W 268 0 min 0,000 mm 0,3 UV-I 124 W/m 4,7 C 8,5 C 3,2 km/h (1 Bft) 95,65 %
20.04.2016 08:24 8,5 C 77 % 1026,8 hPa 0,0 l/m 1,2 km/h (1 Bft) W 268 0 min 0,000 mm 0,5 UV-I 123 W/m 4,7 C 8,5 C 3,2 km/h (1 Bft) 100,00 %
20.04.2016 08:25 8,5 C 78 % 1026,8 hPa 0,0 l/m 2,5 km/h (1 Bft) W 268 0 min 0,000 mm 0,5 UV-I 121 W/m 4,9 C 8,5 C 4,8 km/h (1 Bft) 100,00 %
20.04.2016 08:26 8,5 C 77 % 1026,8 hPa 0,0 l/m 1,2 km/h (1 Bft) W 268 0 min 0,000 mm 0,5 UV-I 124 W/m 4,7 C 8,5 C 1,6 km/h (1 Bft) 100,00 %
20.04.2016 08:27 8,6 C 77 % 1026,8 hPa 0,0 l/m 1,7 km/h (1 Bft) W 271 0 min 0,000 mm 0,5 UV-I 132 W/m 4,8 C 8,6 C 4,8 km/h (1 Bft) 100,00 %
20.04.2016 08:28 8,6 C 77 % 1026,8 hPa 0,0 l/m 1,3 km/h (1 Bft) W 271 0 min 0,000 mm 0,5 UV-I 155 W/m 4,8 C 8,6 C 3,2 km/h (1 Bft) 100,00 %
20.04.2016 08:29 8,6 C 76 % 1026,8 hPa 0,0 l/m 0,1 km/h (0 Bft) W 271 0 min 0,000 mm 0,5 UV-I 181 W/m 4,6 C 8,6 C 1,6 km/h (1 Bft) 91,30 %
20.04.2016 08:30 8,6 C 77 % 1026,8 hPa 0,0 l/m 1,8 km/h (1 Bft) W 271 0 min 0,000 mm 0,5 UV-I 185 W/m 4,8 C 8,6 C 4,8 km/h (1 Bft) 100,00 %
20.04.2016 08:31 8,6 C 77 % 1026,8 hPa 0,0 l/m 1,8 km/h (1 Bft) W-NW 301 0 min 0,000 mm 0,6 UV-I 195 W/m 4,8 C 8,6 C 3,2 km/h (1 Bft) 100,00 %
20.04.2016 08:32 8,6 C 77 % 1026,8 hPa 0,0 l/m 3,9 km/h (1 Bft) W-NW 298 1 min 0,000 mm 0,6 UV-I 245 W/m 4,8 C 8,6 C 6,4 km/h (2 Bft) 96,55 %
20.04.2016 08:33 8,7 C 77 % 1026,8 hPa 0,0 l/m 0,8 km/h (0 Bft) W-NW 298 1 min 0,000 mm 0,6 UV-I 261 W/m 4,9 C 8,7 C 3,2 km/h (1 Bft) 100,00 %
20.04.2016 08:34 8,7 C 77 % 1026,8 hPa 0,0 l/m 0,3 km/h (0 Bft) W-NW 298 1 min 0,000 mm 0,6 UV-I 281 W/m 4,9 C 8,7 C 1,6 km/h (1 Bft) 100,00 %
20.04.2016 08:35 8,7 C 78 % 1026,8 hPa 0,0 l/m 1,2 km/h (1 Bft) W-NW 298 0 min 0,000 mm 0,6 UV-I 222 W/m 5,1 C 8,7 C 3,2 km/h (1 Bft) 100,00 %
20.04.2016 08:36 8,8 C 77 % 1026,8 hPa 0,0 l/m 1,8 km/h (1 Bft) W-NW 298 1 min 0,000 mm 0,6 UV-I 252 W/m 5,0 C 8,8 C 3,2 km/h (1 Bft) 92,59 %
20.04.2016 08:37 8,8 C 78 % 1026,8 hPa 0,0 l/m 5,0 km/h (1 Bft) W-SW 243 1 min 0,000 mm 0,6 UV-I 227 W/m 5,2 C 8,8 C 6,4 km/h (2 Bft) 100,00 %
20.04.2016 08:38 8,8 C 77 % 1026,9 hPa 0,0 l/m 4,8 km/h (1 Bft) W 267 0 min 0,000 mm 0,6 UV-I 195 W/m 5,0 C 8,8 C 6,4 km/h (2 Bft) 94,12 %
20.04.2016 08:39 8,8 C 76 % 1026,9 hPa 0,0 l/m 3,1 km/h (1 Bft) W 263 0 min 0,000 mm 0,6 UV-I 214 W/m 4,8 C 8,8 C 4,8 km/h (1 Bft) 97,62 %
20.04.2016 08:40 8,9 C 76 % 1026,9 hPa 0,0 l/m 2,4 km/h (1 Bft) W 277 0 min 0,000 mm 0,6 UV-I 196 W/m 4,9 C 8,9 C 4,8 km/h (1 Bft) 100,00 %
20.04.2016 08:41 8,9 C 76 % 1026,9 hPa 0,0 l/m 4,7 km/h (1 Bft) NW 315 0 min 0,000 mm 0,6 UV-I 170 W/m 4,9 C 8,9 C 6,4 km/h (2 Bft) 95,83 %
20.04.2016 08:42 8,9 C 75 % 1026,9 hPa 0,0 l/m 2,4 km/h (1 Bft) NW 315 0 min 0,000 mm 0,6 UV-I 167 W/m 4,7 C 8,9 C 4,8 km/h (1 Bft) 95,65 %
20.04.2016 08:43 8,9 C 75 % 1026,9 hPa 0,0 l/m 1,6 km/h (1 Bft) NW 315 0 min 0,000 mm 0,6 UV-I 168 W/m 4,7 C 8,9 C 3,2 km/h (1 Bft) 100,00 %
20.04.2016 08:44 8,9 C 75 % 1026,9 hPa 0,0 l/m 2,4 km/h (1 Bft) NW 304 0 min 0,000 mm 0,6 UV-I 211 W/m 4,7 C 8,9 C 3,2 km/h (1 Bft) 93,10 %
20.04.2016 08:45 8,9 C 76 % 1026,9 hPa 0,0 l/m 1,1 km/h (1 Bft) NW 304 0 min 0,000 mm 0,7 UV-I 230 W/m 4,9 C 8,9 C 3,2 km/h (1 Bft) 100,00 %
20.04.2016 08:46 8,9 C 76 % 1026,9 hPa 0,0 l/m 1,4 km/h (1 Bft) NW 304 0 min 0,000 mm 0,7 UV-I 187 W/m 4,9 C 8,9 C 3,2 km/h (1 Bft) 95,65 %
20.04.2016 08:47 9,0 C 76 % 1026,9 hPa 0,0 l/m 0,6 km/h (0 Bft) NW 304 0 min 0,000 mm 0,7 UV-I 180 W/m 5,0 C 9,0 C 3,2 km/h (1 Bft) 100,00 %
20.04.2016 08:48 9,1 C 77 % 1026,9 hPa 0,0 l/m 0,7 km/h (0 Bft) NW 313 0 min 0,000 mm 0,8 UV-I 204 W/m 5,3 C 9,1 C 3,2 km/h (1 Bft) 95,65 %
20.04.2016 08:49 9,1 C 77 % 1026,9 hPa 0,0 l/m 1,1 km/h (1 Bft) NW 313 1 min 0,000 mm 0,8 UV-I 378 W/m 5,3 C 9,1 C 3,2 km/h (1 Bft) 100,00 %
20.04.2016 08:50 9,1 C 76 % 1026,9 hPa 0,0 l/m 3,4 km/h (1 Bft) W 281 1 min 0,000 mm 0,9 UV-I 414 W/m 5,1 C 9,1 C 4,8 km/h (1 Bft) 96,15 %
20.04.2016 08:51 9,1 C 75 % 1026,9 hPa 0,0 l/m 4,1 km/h (1 Bft) W 281 1 min 0,000 mm 0,9 UV-I 427 W/m 4,9 C 9,1 C 6,4 km/h (2 Bft) 95,83 %
20.04.2016 08:52 9,2 C 74 % 1026,9 hPa 0,0 l/m 2,9 km/h (1 Bft) W 281 1 min 0,000 mm 0,9 UV-I 418 W/m 4,8 C 9,2 C 4,8 km/h (1 Bft) 100,00 %
20.04.2016 08:53 9,2 C 74 % 1026,9 hPa 0,0 l/m 0,8 km/h (0 Bft) W 281 1 min 0,000 mm 0,8 UV-I 378 W/m 4,8 C 9,2 C 3,2 km/h (1 Bft) 96,30 %
20.04.2016 08:54 9,2 C 74 % 1026,9 hPa 0,0 l/m 2,5 km/h (1 Bft) W 280 1 min 0,000 mm 0,8 UV-I 359 W/m 4,8 C 9,2 C 4,8 km/h (1 Bft) 100,00 %
20.04.2016 08:55 9,2 C 73 % 1026,9 hPa 0,0 l/m 2,9 km/h (1 Bft) W-NW 288 0 min 0,000 mm 0,8 UV-I 238 W/m 4,6 C 9,2 C 4,8 km/h (1 Bft) 95,83 %
20.04.2016 08:56 9,2 C 73 % 1026,9 hPa 0,0 l/m 0,7 km/h (0 Bft) W-NW 288 0 min 0,000 mm 0,8 UV-I 186 W/m 4,6 C 9,2 C 3,2 km/h (1 Bft) 100,00 %
20.04.2016 08:57 9,2 C 74 % 1026,9 hPa 0,0 l/m 0,2 km/h (0 Bft) W-NW 288 0 min 0,000 mm 0,8 UV-I 184 W/m 4,8 C 9,2 C 1,6 km/h (1 Bft) 96,15 %
20.04.2016 08:58 9,3 C 74 % 1026,9 hPa 0,0 l/m 0,3 km/h (0 Bft) W-NW 288 0 min 0,000 mm 0,8 UV-I 194 W/m 4,9 C 9,3 C 1,6 km/h (1 Bft) 100,00 %
20.04.2016 08:59 9,3 C 75 % 1026,9 hPa 0,0 l/m 1,7 km/h (1 Bft) W-NW 290 0 min 0,000 mm 0,9 UV-I 211 W/m 5,1 C 9,3 C 3,2 km/h (1 Bft) 96,15 %
20.04.2016 09:00 9,3 C 75 % 1026,9 hPa 0,0 l/m 0,3 km/h (0 Bft) W-NW 290 0 min 0,000 mm 1,0 UV-I 256 W/m 5,1 C 9,3 C 1,6 km/h (1 Bft) 100,00 %
20.04.2016 09:01 9,4 C 75 % 1026,9 hPa 0,0 l/m 1,0 km/h (0 Bft) W-NW 290 1 min 0,101 mm 1,0 UV-I 459 W/m 5,2 C 9,4 C 3,2 km/h (1 Bft) 96,15 %
20.04.2016 09:02 9,4 C 75 % 1026,9 hPa 0,0 l/m 3,7 km/h (1 Bft) NW 321 1 min 0,000 mm 1,0 UV-I 409 W/m 5,2 C 9,4 C 4,8 km/h (1 Bft) 95,83 %
20.04.2016 09:03 9,4 C 74 % 1026,9 hPa 0,0 l/m 1,5 km/h (1 Bft) NW 321 1 min 0,000 mm 0,9 UV-I 323 W/m 5,0 C 9,4 C 4,8 km/h (1 Bft) 100,00 %
20.04.2016 09:04 9,4 C 72 % 1026,9 hPa 0,0 l/m 1,0 km/h (0 Bft) NW 321 1 min 0,000 mm 0,9 UV-I 265 W/m 4,6 C 9,4 C 1,6 km/h (1 Bft) 95,83 %
20.04.2016 09:05 9,4 C 73 % 1026,9 hPa 0,0 l/m 0,5 km/h (0 Bft) NW 323 0 min 0,000 mm 0,9 UV-I 222 W/m 4,8 C 9,4 C 1,6 km/h (1 Bft) 100,00 %
20.04.2016 09:06 9,5 C 73 % 1026,9 hPa 0,0 l/m 0,2 km/h (0 Bft) NW 323 0 min 0,000 mm 0,9 UV-I 209 W/m 4,9 C 9,5 C 1,6 km/h (1 Bft) 96,30 %
20.04.2016 09:07 9,5 C 74 % 1026,9 hPa 0,0 l/m 2,7 km/h (1 Bft) NW 313 0 min 0,000 mm 1,0 UV-I 209 W/m 5,1 C 9,5 C 4,8 km/h (1 Bft) 96,88 %
20.04.2016 09:08 9,5 C 75 % 1026,9 hPa 0,0 l/m 2,5 km/h (1 Bft) NW 315 0 min 0,000 mm 0,9 UV-I 209 W/m 5,3 C 9,5 C 4,8 km/h (1 Bft) 100,00 %
20.04.2016 09:09 9,6 C 73 % 1027,0 hPa 0,0 l/m 2,5 km/h (1 Bft) NW 304 0 min 0,000 mm 1,0 UV-I 209 W/m 5,0 C 9,6 C 4,8 km/h (1 Bft) 100,00 %
20.04.2016 09:10 9,6 C 72 % 1027,0 hPa 0,0 l/m 3,1 km/h (1 Bft) NW 304 0 min 0,000 mm 0,9 UV-I 191 W/m 4,8 C 9,6 C 4,8 km/h (1 Bft) 96,30 %
20.04.2016 09:11 9,6 C 72 % 1026,9 hPa 0,0 l/m 1,9 km/h (1 Bft) NW 304 0 min 0,000 mm 0,9 UV-I 172 W/m 4,8 C 9,6 C 3,2 km/h (1 Bft) 100,00 %
20.04.2016 09:12 9,6 C 71 % 1026,9 hPa 0,0 l/m 1,4 km/h (1 Bft) NW 326 0 min 0,000 mm 0,9 UV-I 166 W/m 4,6 C 9,6 C 4,8 km/h (1 Bft) 100,00 %
20.04.2016 09:13 9,6 C 72 % 1026,9 hPa 0,0 l/m 1,0 km/h (0 Bft) NW 321 0 min 0,000 mm 1,0 UV-I 185 W/m 4,8 C 9,6 C 3,2 km/h (1 Bft) 96,30 %
20.04.2016 09:14 9,6 C 73 % 1026,9 hPa 0,0 l/m 1,3 km/h (1 Bft) NW 316 0 min 0,000 mm 1,0 UV-I 237 W/m 5,0 C 9,6 C 3,2 km/h (1 Bft) 100,00 %
20.04.2016 09:15 9,6 C 72 % 1026,9 hPa 0,0 l/m 0,2 km/h (0 Bft) NW 316 0 min 0,000 mm 1,2 UV-I 267 W/m 4,8 C 9,6 C 1,6 km/h (1 Bft) 100,00 %
20.04.2016 09:16 9,6 C 71 % 1026,9 hPa 0,0 l/m 0,1 km/h (0 Bft) NW 316 1 min 0,000 mm 1,2 UV-I 489 W/m 4,6 C 9,6 C 1,6 km/h (1 Bft) 100,00 %
20.04.2016 09:17 9,6 C 71 % 1026,9 hPa 0,0 l/m 0,0 km/h (0 Bft) NW 316 1 min 0,000 mm 1,2 UV-I 504 W/m 4,6 C 9,6 C 0,0 km/h (0 Bft) 100,00 %
20.04.2016 09:18 9,7 C 71 % 1026,9 hPa 0,0 l/m 1,1 km/h (1 Bft) NW 316 1 min 0,000 mm 1,3 UV-I 499 W/m 4,7 C 9,7 C 3,2 km/h (1 Bft) 100,00 %
20.04.2016 09:19 9,7 C 72 % 1026,9 hPa 0,0 l/m 0,6 km/h (0 Bft) NW 316 1 min 0,000 mm 1,1 UV-I 413 W/m 4,9 C 9,7 C 1,6 km/h (1 Bft) 96,30 %
20.04.2016 09:20 9,7 C 73 % 1026,9 hPa 0,0 l/m 2,3 km/h (1 Bft) W-NW 294 1 min 0,000 mm 1,2 UV-I 308 W/m 5,1 C 9,7 C 6,4 km/h (2 Bft) 100,00 %
20.04.2016 09:21 9,8 C 74 % 1026,9 hPa 0,0 l/m 3,7 km/h (1 Bft) W-NW 289 1 min 0,000 mm 1,3 UV-I 524 W/m 5,4 C 9,8 C 6,4 km/h (2 Bft) 100,00 %
20.04.2016 09:22 9,8 C 72 % 1027,0 hPa 0,0 l/m 3,1 km/h (1 Bft) W-NW 284 1 min 0,000 mm 1,3 UV-I 580 W/m 5,0 C 9,8 C 6,4 km/h (2 Bft) 91,30 %
20.04.2016 09:23 9,9 C 70 % 1027,0 hPa 0,0 l/m 5,7 km/h (1 Bft) W 260 1 min 0,000 mm 1,3 UV-I 601 W/m 4,7 C 9,9 C 6,4 km/h (2 Bft) 100,00 %
20.04.2016 09:24 9,9 C 70 % 1027,0 hPa 0,0 l/m 6,6 km/h (2 Bft) W 269 1 min 0,000 mm 1,3 UV-I 598 W/m 4,7 C 9,8 C 8,0 km/h (2 Bft) 100,00 %
20.04.2016 09:25 9,9 C 69 % 1027,0 hPa 0,0 l/m 5,0 km/h (1 Bft) W-SW 250 1 min 0,000 mm 1,1 UV-I 598 W/m 4,5 C 9,9 C 8,0 km/h (2 Bft) 100,00 %
20.04.2016 09:26 9,9 C 69 % 1027,0 hPa 0,0 l/m 6,7 km/h (2 Bft) W 264 1 min 0,000 mm 1,0 UV-I 414 W/m 4,5 C 9,7 C 8,0 km/h (2 Bft) 100,00 %
20.04.2016 09:27 10,0 C 69 % 1027,0 hPa 0,0 l/m 3,8 km/h (1 Bft) W-SW 257 0 min 0,000 mm 1,0 UV-I 253 W/m 4,6 C 10,0 C 4,8 km/h (1 Bft) 100,00 %
20.04.2016 09:28 10,0 C 69 % 1027,1 hPa 0,0 l/m 0,9 km/h (0 Bft) W 265 0 min 0,000 mm 1,0 UV-I 258 W/m 4,6 C 10,0 C 3,2 km/h (1 Bft) 92,86 %
20.04.2016 09:29 10,1 C 70 % 1027,0 hPa 0,0 l/m 1,7 km/h (1 Bft) W 265 0 min 0,000 mm 1,1 UV-I 277 W/m 4,9 C 10,1 C 3,2 km/h (1 Bft) 95,83 %
20.04.2016 09:30 10,1 C 71 % 1027,0 hPa 0,0 l/m 4,7 km/h (1 Bft) W 280 0 min 0,000 mm 1,3 UV-I 278 W/m 5,1 C 10,1 C 11,3 km/h (2 Bft) 100,00 %
20.04.2016 09:31 10,1 C 69 % 1027,0 hPa 0,0 l/m 1,7 km/h (1 Bft) W-NW 282 0 min 0,000 mm 1,2 UV-I 292 W/m 4,7 C 10,1 C 3,2 km/h (1 Bft) 100,00 %
20.04.2016 09:32 10,1 C 71 % 1027,0 hPa 0,0 l/m 2,5 km/h (1 Bft) W-NW 286 1 min 0,000 mm 1,2 UV-I 303 W/m 5,1 C 10,1 C 4,8 km/h (1 Bft) 100,00 %
20.04.2016 09:33 10,1 C 71 % 1027,0 hPa 0,0 l/m 7,6 km/h (2 Bft) NW 316 0 min 0,000 mm 1,2 UV-I 297 W/m 5,1 C 9,2 C 11,3 km/h (2 Bft) 100,00 %
20.04.2016 09:34 10,1 C 69 % 1027,0 hPa 0,0 l/m 7,7 km/h (2 Bft) W-NW 286 1 min 0,000 mm 1,2 UV-I 455 W/m 4,7 C 9,2 C 11,3 km/h (2 Bft) 100,00 %
20.04.2016 09:35 10,1 C 67 % 1027,0 hPa 0,0 l/m 5,1 km/h (1 Bft) W 266 1 min 0,000 mm 1,1 UV-I 414 W/m 4,3 C 10,1 C 6,4 km/h (2 Bft) 100,00 %
20.04.2016 09:36 10,1 C 69 % 1027,0 hPa 0,0 l/m 3,9 km/h (1 Bft) W-SW 240 0 min 0,000 mm 1,1 UV-I 187 W/m 4,7 C 10,1 C 6,4 km/h (2 Bft) 100,00 %
20.04.2016 09:37 10,1 C 69 % 1027,0 hPa 0,0 l/m 3,7 km/h (1 Bft) W-SW 246 0 min 0,000 mm 1,0 UV-I 159 W/m 4,7 C 10,1 C 8,0 km/h (2 Bft) 100,00 %
20.04.2016 09:38 10,1 C 68 % 1027,0 hPa 0,0 l/m 4,3 km/h (1 Bft) SW 223 0 min 0,000 mm 1,1 UV-I 161 W/m 4,5 C 10,1 C 6,4 km/h (2 Bft) 100,00 %
20.04.2016 09:39 10,1 C 69 % 1027,0 hPa 0,0 l/m 3,6 km/h (1 Bft) W 269 0 min 0,000 mm 1,2 UV-I 179 W/m 4,7 C 10,1 C 6,4 km/h (2 Bft) 100,00 %
20.04.2016 09:40 10,1 C 69 % 1027,0 hPa 0,0 l/m 0,6 km/h (0 Bft) W 270 0 min 0,000 mm 1,3 UV-I 216 W/m 4,7 C 10,1 C 3,2 km/h (1 Bft) 100,00 %
20.04.2016 09:41 10,1 C 70 % 1027,0 hPa 0,0 l/m 1,2 km/h (1 Bft) W-NW 290 0 min 0,000 mm 1,5 UV-I 221 W/m 4,9 C 10,1 C 3,2 km/h (1 Bft) 100,00 %
20.04.2016 09:42 10,1 C 70 % 1027,0 hPa 0,0 l/m 0,2 km/h (0 Bft) W-NW 290 0 min 0,000 mm 1,6 UV-I 221 W/m 4,9 C 10,1 C 1,6 km/h (1 Bft) 100,00 %
20.04.2016 09:43 10,2 C 71 % 1027,0 hPa 0,0 l/m 1,9 km/h (1 Bft) W-NW 290 0 min 0,000 mm 1,5 UV-I 221 W/m 5,2 C 10,2 C 3,2 km/h (1 Bft) 100,00 %
20.04.2016 09:44 10,2 C 71 % 1027,0 hPa 0,0 l/m 1,9 km/h (1 Bft) W 268 1 min 0,000 mm 1,5 UV-I 458 W/m 5,2 C 10,2 C 3,2 km/h (1 Bft) 100,00 %
20.04.2016 09:45 10,3 C 73 % 1027,0 hPa 0,0 l/m 4,8 km/h (1 Bft) W-NW 302 1 min 0,000 mm 1,3 UV-I 601 W/m 5,7 C 10,3 C 8,0 km/h (2 Bft) 100,00 %
20.04.2016 09:46 10,3 C 70 % 1027,0 hPa 0,0 l/m 3,6 km/h (1 Bft) W-NW 289 0 min 0,000 mm 1,2 UV-I 301 W/m 5,1 C 10,3 C 4,8 km/h (1 Bft) 98,60 %
20.04.2016 09:47 10,4 C 70 % 1027,0 hPa 0,0 l/m 2,7 km/h (1 Bft) W-NW 286 0 min 0,000 mm 1,2 UV-I 241 W/m 5,2 C 10,4 C 4,8 km/h (1 Bft) 100,00 %
20.04.2016 09:48 10,4 C 70 % 1027,0 hPa 0,0 l/m 3,9 km/h (1 Bft) NW 309 0 min 0,000 mm 1,2 UV-I 243 W/m 5,2 C 10,4 C 6,4 km/h (2 Bft) 100,00 %
20.04.2016 09:49 10,4 C 69 % 1027,0 hPa 0,0 l/m 2,1 km/h (1 Bft) NW 309 0 min 0,000 mm 1,2 UV-I 254 W/m 5,0 C 10,4 C 3,2 km/h (1 Bft) 98,61 %
20.04.2016 09:50 10,4 C 69 % 1027,0 hPa 0,0 l/m 2,3 km/h (1 Bft) NW 322 0 min 0,000 mm 1,2 UV-I 258 W/m 5,0 C 10,4 C 4,8 km/h (1 Bft) 100,00 %
20.04.2016 09:51 10,4 C 69 % 1027,0 hPa 0,0 l/m 2,8 km/h (1 Bft) N 355 0 min 0,000 mm 1,3 UV-I 261 W/m 5,0 C 10,4 C 6,4 km/h (2 Bft) 100,00 %
20.04.2016 09:52 10,4 C 70 % 1027,0 hPa 0,0 l/m 2,5 km/h (1 Bft) NW 309 0 min 0,000 mm 1,3 UV-I 265 W/m 5,2 C 10,4 C 3,2 km/h (1 Bft) 100,00 %
20.04.2016 09:53 10,4 C 70 % 1027,0 hPa 0,0 l/m 3,1 km/h (1 Bft) NW 314 0 min 0,000 mm 1,3 UV-I 272 W/m 5,2 C 10,4 C 4,8 km/h (1 Bft) 100,00 %
20.04.2016 09:54 10,4 C 69 % 1027,0 hPa 0,0 l/m 1,2 km/h (1 Bft) NW 314 0 min 0,000 mm 1,4 UV-I 290 W/m 5,0 C 10,4 C 1,6 km/h (1 Bft) 100,00 %
20.04.2016 09:55 10,3 C 68 % 1027,0 hPa 0,0 l/m 3,9 km/h (1 Bft) NW 309 0 min 0,000 mm 1,6 UV-I 304 W/m 4,7 C 10,3 C 4,8 km/h (1 Bft) 100,00 %
20.04.2016 09:56 10,3 C 68 % 1027,0 hPa 0,0 l/m 4,3 km/h (1 Bft) NW 306 1 min 0,000 mm 1,5 UV-I 476 W/m 4,7 C 10,3 C 6,4 km/h (2 Bft) 100,00 %
20.04.2016 09:57 10,4 C 69 % 1027,1 hPa 0,0 l/m 3,7 km/h (1 Bft) NW 306 1 min 0,000 mm 1,4 UV-I 533 W/m 5,0 C 10,4 C 4,8 km/h (1 Bft) 100,00 %
20.04.2016 09:58 10,4 C 69 % 1027,1 hPa 0,0 l/m 3,7 km/h (1 Bft) NW 306 1 min 0,000 mm 1,5 UV-I 332 W/m 5,0 C 10,4 C 4,8 km/h (1 Bft) 100,00 %
20.04.2016 09:59 10,4 C 68 % 1027,1 hPa 0,0 l/m 1,9 km/h (1 Bft) NW 314 0 min 0,000 mm 1,4 UV-I 322 W/m 4,8 C 10,4 C 3,2 km/h (1 Bft) 100,00 %
20.04.2016 10:00 10,4 C 69 % 1027,1 hPa 0,0 l/m 2,3 km/h (1 Bft) NW 309 0 min 0,178 mm 1,5 UV-I 322 W/m 5,0 C 10,4 C 4,8 km/h (1 Bft) 100,00 %
20.04.2016 10:01 10,4 C 68 % 1027,1 hPa 0,0 l/m 1,3 km/h (1 Bft) NW 318 1 min 0,000 mm 1,6 UV-I 350 W/m 4,8 C 10,4 C 3,2 km/h (1 Bft) 100,00 %
20.04.2016 10:02 10,4 C 69 % 1027,1 hPa 0,0 l/m 3,2 km/h (1 Bft) NW 315 1 min 0,000 mm 1,7 UV-I 381 W/m 5,0 C 10,4 C 4,8 km/h (1 Bft) 100,00 %
20.04.2016 10:03 10,5 C 69 % 1027,1 hPa 0,0 l/m 3,1 km/h (1 Bft) W-NW 302 1 min 0,000 mm 1,8 UV-I 381 W/m 5,1 C 10,5 C 4,8 km/h (1 Bft) 100,00 %
20.04.2016 10:04 10,5 C 67 % 1027,1 hPa 0,0 l/m 3,0 km/h (1 Bft) W-NW 299 1 min 0,000 mm 1,8 UV-I 422 W/m 4,6 C 10,5 C 4,8 km/h (1 Bft) 100,00 %
20.04.2016 10:05 10,6 C 67 % 1027,1 hPa 0,0 l/m 1,4 km/h (1 Bft) W-NW 299 1 min 0,000 mm 1,9 UV-I 710 W/m 4,7 C 10,6 C 3,2 km/h (1 Bft) 100,00 %
20.04.2016 10:06 10,6 C 71 % 1027,1 hPa 0,0 l/m 1,4 km/h (1 Bft) NW 319 1 min 0,000 mm 1,6 UV-I 710 W/m 5,6 C 10,6 C 3,2 km/h (1 Bft) 96,15 %
20.04.2016 10:07 10,7 C 69 % 1027,1 hPa 0,0 l/m 2,6 km/h (1 Bft) NW 306 1 min 0,000 mm 1,4 UV-I 470 W/m 5,2 C 10,7 C 4,8 km/h (1 Bft) 100,00 %
20.04.2016 10:08 10,7 C 69 % 1027,1 hPa 0,0 l/m 3,4 km/h (1 Bft) NW 317 0 min 0,000 mm 1,5 UV-I 257 W/m 5,2 C 10,7 C 4,8 km/h (1 Bft) 100,00 %
20.04.2016 10:09 10,7 C 68 % 1027,1 hPa 0,0 l/m 1,7 km/h (1 Bft) NW 317 0 min 0,000 mm 1,6 UV-I 263 W/m 5,0 C 10,7 C 4,8 km/h (1 Bft) 100,00 %
20.04.2016 10:10 10,7 C 68 % 1027,1 hPa 0,0 l/m 1,6 km/h (1 Bft) NW 317 0 min 0,000 mm 1,8 UV-I 292 W/m 5,0 C 10,7 C 3,2 km/h (1 Bft) 100,00 %
20.04.2016 10:11 10,7 C 69 % 1027,1 hPa 0,0 l/m 2,8 km/h (1 Bft) W 276 0 min 0,000 mm 1,8 UV-I 281 W/m 5,2 C 10,7 C 4,8 km/h (1 Bft) 100,00 %
20.04.2016 10:12 10,8 C 69 % 1027,1 hPa 0,0 l/m 3,2 km/h (1 Bft) W 277 1 min 0,000 mm 2,1 UV-I 470 W/m 5,3 C 10,8 C 4,8 km/h (1 Bft) 100,00 %
20.04.2016 10:13 10,8 C 69 % 1027,1 hPa 0,0 l/m 4,2 km/h (1 Bft) W 266 1 min 0,000 mm 2,2 UV-I 705 W/m 5,3 C 10,8 C 6,4 km/h (2 Bft) 100,00 %
20.04.2016 10:14 10,8 C 68 % 1027,2 hPa 0,0 l/m 6,4 km/h (2 Bft) SW 228 1 min 0,000 mm 2,3 UV-I 736 W/m 5,1 C 10,8 C 11,3 km/h (2 Bft) 100,00 %
20.04.2016 10:15 10,9 C 69 % 1027,2 hPa 0,0 l/m 7,3 km/h (2 Bft) W 259 1 min 0,000 mm 2,3 UV-I 725 W/m 5,4 C 10,3 C 14,5 km/h (3 Bft) 100,00 %
20.04.2016 10:16 10,9 C 67 % 1027,2 hPa 0,0 l/m 10,3 km/h (2 Bft) W-NW 289 1 min 0,000 mm 2,1 UV-I 649 W/m 5,0 C 8,4 C 12,9 km/h (3 Bft) 95,83 %
20.04.2016 10:17 10,9 C 66 % 1027,2 hPa 0,0 l/m 3,9 km/h (1 Bft) W 278 1 min 0,000 mm 2,0 UV-I 640 W/m 4,8 C 10,9 C 6,4 km/h (2 Bft) 96,55 %
20.04.2016 10:18 10,9 C 66 % 1027,2 hPa 0,0 l/m 3,2 km/h (1 Bft) W-NW 284 1 min 0,000 mm 1,7 UV-I 473 W/m 4,8 C 10,9 C 4,8 km/h (1 Bft) 100,00 %
20.04.2016 10:19 10,9 C 65 % 1027,2 hPa 0,0 l/m 1,7 km/h (1 Bft) W-NW 284 0 min 0,000 mm 1,7 UV-I 288 W/m 4,6 C 10,9 C 3,2 km/h (1 Bft) 100,00 %
20.04.2016 10:20 11,0 C 66 % 1027,2 hPa 0,0 l/m 2,7 km/h (1 Bft) W-NW 288 0 min 0,000 mm 2,0 UV-I 297 W/m 4,9 C 11,0 C 4,8 km/h (1 Bft) 100,00 %
20.04.2016 10:21 11,0 C 68 % 1027,3 hPa 0,0 l/m 2,0 km/h (1 Bft) W-NW 289 0 min 0,000 mm 2,1 UV-I 297 W/m 5,3 C 11,0 C 3,2 km/h (1 Bft) 100,00 %
20.04.2016 10:22 11,1 C 69 % 1027,3 hPa 0,0 l/m 1,4 km/h (1 Bft) W-NW 289 0 min 0,000 mm 1,8 UV-I 318 W/m 5,6 C 11,1 C 3,2 km/h (1 Bft) 96,30 %
20.04.2016 10:23 11,1 C 67 % 1027,3 hPa 0,0 l/m 3,4 km/h (1 Bft) W-NW 288 1 min 0,000 mm 2,1 UV-I 399 W/m 5,2 C 11,1 C 4,8 km/h (1 Bft) 100,00 %
20.04.2016 10:24 11,1 C 66 % 1027,3 hPa 0,0 l/m 1,3 km/h (1 Bft) W-NW 288 1 min 0,000 mm 2,3 UV-I 399 W/m 5,0 C 11,1 C 3,2 km/h (1 Bft) 100,00 %
20.04.2016 10:25 11,2 C 69 % 1027,3 hPa 0,0 l/m 3,2 km/h (1 Bft) W-NW 283 1 min 0,000 mm 2,3 UV-I 566 W/m 5,7 C 11,2 C 6,4 km/h (2 Bft) 100,00 %
20.04.2016 10:26 11,2 C 67 % 1027,3 hPa 0,0 l/m 4,4 km/h (1 Bft) NW 323 1 min 0,000 mm 2,0 UV-I 638 W/m 5,3 C 11,2 C 8,0 km/h (2 Bft) 100,00 %
20.04.2016 10:27 11,2 C 65 % 1027,3 hPa 0,0 l/m 3,3 km/h (1 Bft) NW 310 0 min 0,000 mm 2,0 UV-I 313 W/m 4,9 C 11,2 C 4,8 km/h (1 Bft) 96,15 %
20.04.2016 10:28 11,2 C 65 % 1027,3 hPa 0,0 l/m 1,4 km/h (1 Bft) NW 310 0 min 0,000 mm 2,3 UV-I 295 W/m 4,9 C 11,2 C 3,2 km/h (1 Bft) 100,00 %
20.04.2016 10:29 11,3 C 66 % 1027,3 hPa 0,0 l/m 2,0 km/h (1 Bft) NW 311 1 min 0,000 mm 2,4 UV-I 422 W/m 5,2 C 11,3 C 3,2 km/h (1 Bft) 100,00 %
20.04.2016 10:30 11,3 C 65 % 1027,3 hPa 0,0 l/m 3,6 km/h (1 Bft) W 267 1 min 0,000 mm 2,3 UV-I 655 W/m 5,0 C 11,3 C 6,4 km/h (2 Bft) 97,56 %
20.04.2016 10:31 11,3 C 65 % 1027,2 hPa 0,0 l/m 2,4 km/h (1 Bft) W 267 1 min 0,000 mm 2,2 UV-I 636 W/m 5,0 C 11,3 C 4,8 km/h (1 Bft) 95,65 %
20.04.2016 10:32 11,3 C 65 % 1027,2 hPa 0,0 l/m 5,9 km/h (2 Bft) W-NW 287 1 min 0,000 mm 2,2 UV-I 514 W/m 5,0 C 11,3 C 8,0 km/h (2 Bft) 100,00 %
20.04.2016 10:33 11,3 C 63 % 1027,3 hPa 0,0 l/m 3,0 km/h (1 Bft) W-NW 291 1 min 0,000 mm 2,3 UV-I 480 W/m 4,5 C 11,3 C 4,8 km/h (1 Bft) 95,65 %
20.04.2016 10:34 11,3 C 63 % 1027,2 hPa 0,0 l/m 1,9 km/h (1 Bft) W-NW 294 1 min 0,000 mm 2,0 UV-I 471 W/m 4,5 C 11,3 C 3,2 km/h (1 Bft) 100,00 %
20.04.2016 10:35 11,3 C 65 % 1027,2 hPa 0,0 l/m 0,9 km/h (0 Bft) W-NW 294 0 min 0,000 mm 2,2 UV-I 346 W/m 5,0 C 11,3 C 3,2 km/h (1 Bft) 100,00 %
20.04.2016 10:36 11,3 C 65 % 1027,2 hPa 0,0 l/m 1,2 km/h (1 Bft) W-NW 294 1 min 0,000 mm 2,5 UV-I 549 W/m 5,0 C 11,3 C 3,2 km/h (1 Bft) 100,00 %
20.04.2016 10:37 11,4 C 65 % 1027,2 hPa 0,0 l/m 2,6 km/h (1 Bft) N-NW 341 1 min 0,000 mm 2,4 UV-I 752 W/m 5,1 C 11,4 C 4,8 km/h (1 Bft) 100,00 %
20.04.2016 10:38 11,4 C 65 % 1027,3 hPa 0,0 l/m 5,0 km/h (1 Bft) SW 232 1 min 0,000 mm 2,0 UV-I 752 W/m 5,1 C 11,4 C 9,7 km/h (2 Bft) 100,00 %
20.04.2016 10:39 11,4 C 66 % 1027,3 hPa 0,0 l/m 3,3 km/h (1 Bft) W-NW 290 0 min 0,000 mm 1,9 UV-I 334 W/m 5,3 C 11,4 C 11,3 km/h (2 Bft) 96,30 %
20.04.2016 10:40 11,4 C 66 % 1027,3 hPa 0,0 l/m 4,2 km/h (1 Bft) W-SW 240 0 min 0,000 mm 1,9 UV-I 278 W/m 5,3 C 11,4 C 8,0 km/h (2 Bft) 94,12 %
20.04.2016 10:41 11,4 C 64 % 1027,3 hPa 0,0 l/m 7,7 km/h (2 Bft) W-SW 238 0 min 0,000 mm 1,9 UV-I 272 W/m 4,8 C 10,5 C 11,3 km/h (2 Bft) 96,67 %
20.04.2016 10:42 11,4 C 66 % 1027,3 hPa 0,0 l/m 3,8 km/h (1 Bft) W-SW 257 0 min 0,000 mm 2,0 UV-I 272 W/m 5,3 C 11,4 C 8,0 km/h (2 Bft) 100,00 %
20.04.2016 10:43 11,4 C 65 % 1027,3 hPa 0,0 l/m 5,0 km/h (1 Bft) S 191 0 min 0,000 mm 2,0 UV-I 259 W/m 5,1 C 11,4 C 8,0 km/h (2 Bft) 95,83 %
20.04.2016 10:44 11,4 C 65 % 1027,3 hPa 0,0 l/m 4,7 km/h (1 Bft) S-SW 209 0 min 0,000 mm 2,0 UV-I 251 W/m 5,1 C 11,4 C 6,4 km/h (2 Bft) 96,15 %
20.04.2016 10:45 11,4 C 66 % 1027,3 hPa 0,0 l/m 4,0 km/h (1 Bft) W 267 0 min 0,000 mm 2,5 UV-I 306 W/m 5,3 C 11,4 C 6,4 km/h (2 Bft) 91,67 %
20.04.2016 10:46 11,5 C 66 % 1027,3 hPa 0,0 l/m 8,1 km/h (2 Bft) W-SW 245 1 min 0,000 mm 2,6 UV-I 700 W/m 5,4 C 10,4 C 16,1 km/h (3 Bft) 95,65 %
20.04.2016 10:47 11,5 C 64 % 1027,3 hPa 0,0 l/m 8,8 km/h (2 Bft) SW 227 1 min 0,000 mm 2,7 UV-I 713 W/m 4,9 C 9,9 C 11,3 km/h (2 Bft) 96,30 %
20.04.2016 10:48 11,5 C 65 % 1027,3 hPa 0,0 l/m 5,1 km/h (1 Bft) SW 234 1 min 0,000 mm 2,7 UV-I 752 W/m 5,2 C 11,5 C 8,0 km/h (2 Bft) 92,86 %
20.04.2016 10:49 11,6 C 63 % 1027,3 hPa 0,0 l/m 2,2 km/h (1 Bft) W 261 1 min 0,000 mm 2,8 UV-I 775 W/m 4,8 C 11,6 C 3,2 km/h (1 Bft) 100,00 %
20.04.2016 10:50 11,6 C 63 % 1027,3 hPa 0,0 l/m 3,4 km/h (1 Bft) W 261 1 min 0,000 mm 2,5 UV-I 775 W/m 4,8 C 11,6 C 6,4 km/h (2 Bft) 96,55 %
20.04.2016 10:51 11,6 C 65 % 1027,4 hPa 0,0 l/m 7,0 km/h (2 Bft) S-SW 199 1 min 0,000 mm 2,3 UV-I 684 W/m 5,2 C 11,2 C 11,3 km/h (2 Bft) 95,83 %
20.04.2016 10:52 11,7 C 65 % 1027,3 hPa 0,0 l/m 8,3 km/h (2 Bft) S-SW 200 1 min 0,000 mm 2,5 UV-I 680 W/m 5,3 C 10,5 C 11,3 km/h (2 Bft) 100,00 %
20.04.2016 10:53 11,7 C 65 % 1027,3 hPa 0,0 l/m 7,6 km/h (2 Bft) W 261 1 min 0,000 mm 2,5 UV-I 680 W/m 5,3 C 10,9 C 12,9 km/h (3 Bft) 100,00 %
20.04.2016 10:54 11,7 C 63 % 1027,4 hPa 0,0 l/m 12,2 km/h (2 Bft) W 269 1 min 0,000 mm 2,4 UV-I 680 W/m 4,9 C 8,4 C 16,1 km/h (3 Bft) 96,15 %
20.04.2016 10:55 11,7 C 62 % 1027,3 hPa 0,0 l/m 12,7 km/h (3 Bft) W 271 1 min 0,000 mm 2,5 UV-I 680 W/m 4,7 C 8,2 C 17,7 km/h (3 Bft) 96,30 %
20.04.2016 10:56 11,7 C 62 % 1027,3 hPa 0,0 l/m 15,9 km/h (3 Bft) W-SW 257 1 min 0,000 mm 2,3 UV-I 680 W/m 4,7 C 6,9 C 20,9 km/h (4 Bft) 100,00 %
20.04.2016 10:57 11,7 C 63 % 1027,4 hPa 0,0 l/m 9,4 km/h (2 Bft) W 267 1 min 0,000 mm 2,1 UV-I 680 W/m 4,9 C 9,8 C 14,5 km/h (3 Bft) 96,15 %
20.04.2016 10:58 11,7 C 62 % 1027,4 hPa 0,0 l/m 9,9 km/h (2 Bft) W-NW 286 1 min 0,000 mm 2,3 UV-I 680 W/m 4,7 C 9,5 C 14,5 km/h (3 Bft) 100,00 %
20.04.2016 10:59 11,7 C 63 % 1027,4 hPa 0,0 l/m 8,1 km/h (2 Bft) N-NW 327 1 min 0,000 mm 2,8 UV-I 728 W/m 4,9 C 10,6 C 12,9 km/h (3 Bft) 95,65 %
20.04.2016 11:00 11,7 C 63 % 1027,4 hPa 0,0 l/m 1,7 km/h (1 Bft) N-NW 337 1 min 0,254 mm 2,9 UV-I 813 W/m 4,9 C 11,7 C 4,8 km/h (1 Bft) 93,33 %
20.04.2016 11:02 11,7 C 65 % 1027,4 hPa 0,0 l/m 1,4 km/h (1 Bft) SW 229 2 min 0,000 mm 2,9 UV-I 811 W/m 5,3 C 11,7 C 3,2 km/h (1 Bft) 98,00 %
20.04.2016 11:03 11,8 C 65 % 1027,5 hPa 0,0 l/m 8,4 km/h (2 Bft) W-SW 242 1 min 0,000 mm 2,6 UV-I 810 W/m 5,4 C 10,5 C 14,5 km/h (3 Bft) 94,12 %
20.04.2016 11:04 11,8 C 63 % 1027,4 hPa 0,0 l/m 2,7 km/h (1 Bft) S-SW 209 1 min 0,000 mm 2,0 UV-I 810 W/m 5,0 C 11,8 C 3,2 km/h (1 Bft) 96,55 %
20.04.2016 11:05 11,9 C 62 % 1027,4 hPa 0,0 l/m 2,1 km/h (1 Bft) N-NW 334 1 min 0,000 mm 2,3 UV-I 810 W/m 4,9 C 11,9 C 6,4 km/h (2 Bft) 100,00 %
20.04.2016 11:06 11,9 C 65 % 1027,4 hPa 0,0 l/m 3,7 km/h (1 Bft) N 9 1 min 0,000 mm 2,7 UV-I 810 W/m 5,5 C 11,9 C 11,3 km/h (2 Bft) 95,83 %
20.04.2016 11:07 11,9 C 66 % 1027,4 hPa 0,0 l/m 6,2 km/h (2 Bft) N 10 1 min 0,000 mm 3,0 UV-I 800 W/m 5,8 C 11,9 C 12,9 km/h (3 Bft) 100,00 %
20.04.2016 11:08 12,0 C 69 % 1027,4 hPa 0,0 l/m 3,2 km/h (1 Bft) N-NW 343 1 min 0,000 mm 2,8 UV-I 796 W/m 6,5 C 12,0 C 6,4 km/h (2 Bft) 96,55 %
20.04.2016 11:09 12,0 C 67 % 1027,4 hPa 0,0 l/m 5,6 km/h (1 Bft) NW 314 1 min 0,000 mm 2,8 UV-I 796 W/m 6,1 C 12,0 C 12,9 km/h (3 Bft) 100,00 %
20.04.2016 11:10 12,0 C 65 % 1027,5 hPa 0,0 l/m 4,3 km/h (1 Bft) NW 304 1 min 0,000 mm 3,1 UV-I 805 W/m 5,6 C 12,0 C 9,7 km/h (2 Bft) 96,55 %
20.04.2016 11:11 12,0 C 64 % 1027,5 hPa 0,0 l/m 4,6 km/h (1 Bft) N-NO 16 1 min 0,000 mm 2,7 UV-I 842 W/m 5,4 C 12,0 C 11,3 km/h (2 Bft) 100,00 %
20.04.2016 11:12 12,0 C 62 % 1027,4 hPa 0,0 l/m 9,7 km/h (2 Bft) NW 319 1 min 0,000 mm 2,2 UV-I 520 W/m 4,9 C 10,0 C 14,5 km/h (3 Bft) 100,00 %
20.04.2016 11:13 12,0 C 63 % 1027,5 hPa 0,0 l/m 2,7 km/h (1 Bft) NW 305 0 min 0,000 mm 2,0 UV-I 303 W/m 5,2 C 12,0 C 4,8 km/h (1 Bft) 100,00 %
20.04.2016 11:14 12,0 C 64 % 1027,5 hPa 0,0 l/m 4,0 km/h (1 Bft) W-NW 301 0 min 0,000 mm 1,8 UV-I 258 W/m 5,4 C 12,0 C 6,4 km/h (2 Bft) 100,00 %
20.04.2016 11:15 12,0 C 63 % 1027,5 hPa 0,0 l/m 5,6 km/h (1 Bft) W 263 0 min 0,000 mm 1,8 UV-I 241 W/m 5,2 C 12,0 C 8,0 km/h (2 Bft) 100,00 %
20.04.2016 11:16 12,0 C 63 % 1027,5 hPa 0,0 l/m 6,0 km/h (2 Bft) N-NW 333 0 min 0,000 mm 1,9 UV-I 255 W/m 5,2 C 12,0 C 9,7 km/h (2 Bft) 100,00 %
20.04.2016 11:17 12,0 C 63 % 1027,5 hPa 0,0 l/m 6,4 km/h (2 Bft) W-NW 291 0 min 0,000 mm 2,0 UV-I 260 W/m 5,2 C 12,0 C 12,9 km/h (3 Bft) 100,00 %
20.04.2016 11:18 12,0 C 61 % 1027,5 hPa 0,0 l/m 3,5 km/h (1 Bft) W-NW 294 0 min 0,000 mm 2,6 UV-I 243 W/m 4,7 C 12,0 C 4,8 km/h (1 Bft) 100,00 %
20.04.2016 11:19 12,0 C 59 % 1027,5 hPa 0,0 l/m 4,7 km/h (1 Bft) NW 309 0 min 0,000 mm 2,9 UV-I 243 W/m 4,2 C 12,0 C 8,0 km/h (2 Bft) 96,30 %
20.04.2016 11:20 12,1 C 60 % 1027,5 hPa 0,0 l/m 5,7 km/h (1 Bft) W-SW 250 0 min 0,000 mm 3,2 UV-I 316 W/m 4,6 C 12,1 C 11,3 km/h (2 Bft) 94,12 %
20.04.2016 11:21 12,1 C 59 % 1027,5 hPa 0,0 l/m 6,8 km/h (2 Bft) W-SW 241 1 min 0,000 mm 3,4 UV-I 834 W/m 4,3 C 11,8 C 11,3 km/h (2 Bft) 96,30 %
20.04.2016 11:22 12,1 C 61 % 1027,5 hPa 0,0 l/m 10,1 km/h (2 Bft) W-SW 252 1 min 0,000 mm 3,5 UV-I 842 W/m 4,8 C 9,9 C 14,5 km/h (3 Bft) 100,00 %
20.04.2016 11:23 12,2 C 60 % 1027,5 hPa 0,0 l/m 9,7 km/h (2 Bft) W-SW 240 1 min 0,000 mm 2,9 UV-I 844 W/m 4,7 C 10,2 C 14,5 km/h (3 Bft) 94,44 %
20.04.2016 11:24 12,2 C 57 % 1027,5 hPa 0,0 l/m 6,6 km/h (2 Bft) W-SW 250 1 min 0,000 mm 3,1 UV-I 844 W/m 3,9 C 12,1 C 8,0 km/h (2 Bft) 100,00 %
20.04.2016 11:25 12,2 C 58 % 1027,5 hPa 0,0 l/m 10,1 km/h (2 Bft) W-SW 250 1 min 0,000 mm 3,5 UV-I 881 W/m 4,2 C 10,0 C 14,5 km/h (3 Bft) 100,00 %
20.04.2016 11:26 12,3 C 57 % 1027,5 hPa 0,0 l/m 4,3 km/h (1 Bft) W-SW 256 1 min 0,000 mm 3,1 UV-I 901 W/m 4,0 C 12,3 C 6,4 km/h (2 Bft) 100,00 %
20.04.2016 11:27 12,3 C 60 % 1027,5 hPa 0,0 l/m 5,7 km/h (1 Bft) SW 219 1 min 0,000 mm 2,3 UV-I 762 W/m 4,8 C 12,3 C 11,3 km/h (2 Bft) 100,00 %
20.04.2016 11:28 12,4 C 60 % 1027,5 hPa 0,0 l/m 9,1 km/h (2 Bft) W 264 0 min 0,000 mm 2,1 UV-I 300 W/m 4,9 C 10,7 C 12,9 km/h (3 Bft) 96,15 %
20.04.2016 11:29 12,4 C 59 % 1027,5 hPa 0,0 l/m 9,8 km/h (2 Bft) W-SW 254 0 min 0,000 mm 2,1 UV-I 232 W/m 4,6 C 10,4 C 14,5 km/h (3 Bft) 96,30 %
20.04.2016 11:30 12,4 C 57 % 1027,5 hPa 0,0 l/m 11,1 km/h (2 Bft) W-NW 284 0 min 0,000 mm 2,8 UV-I 225 W/m 4,1 C 9,7 C 14,5 km/h (3 Bft) 100,00 %
20.04.2016 11:31 12,4 C 55 % 1027,5 hPa 0,0 l/m 9,4 km/h (2 Bft) W-SW 253 1 min 0,000 mm 3,3 UV-I 712 W/m 3,6 C 10,6 C 16,1 km/h (3 Bft) 100,00 %
20.04.2016 11:32 12,4 C 54 % 1027,4 hPa 0,0 l/m 12,7 km/h (3 Bft) W-SW 237 1 min 0,000 mm 3,4 UV-I 815 W/m 3,4 C 9,0 C 17,7 km/h (3 Bft) 100,00 %
20.04.2016 11:33 12,4 C 56 % 1027,4 hPa 0,0 l/m 15,1 km/h (3 Bft) W 259 1 min 0,000 mm 3,5 UV-I 826 W/m 3,9 C 8,0 C 19,3 km/h (3 Bft) 100,00 %
20.04.2016 11:34 12,4 C 54 % 1027,5 hPa 0,0 l/m 8,4 km/h (2 Bft) W 278 1 min 0,000 mm 3,5 UV-I 833 W/m 3,4 C 11,1 C 16,1 km/h (3 Bft) 100,00 %
20.04.2016 11:35 12,5 C 54 % 1027,3 hPa 0,0 l/m 7,7 km/h (2 Bft) W-SW 242 1 min 0,000 mm 3,6 UV-I 840 W/m 3,5 C 11,7 C 12,9 km/h (3 Bft) 100,00 %
20.04.2016 11:36 12,6 C 57 % 1027,3 hPa 0,0 l/m 9,9 km/h (2 Bft) W 275 1 min 0,000 mm 3,7 UV-I 861 W/m 4,3 C 10,5 C 12,9 km/h (3 Bft) 94,44 %
20.04.2016 11:37 12,6 C 58 % 1027,4 hPa 0,0 l/m 12,5 km/h (3 Bft) SW 234 1 min 0,000 mm 3,7 UV-I 863 W/m 4,6 C 9,3 C 16,1 km/h (3 Bft) 100,00 %
20.04.2016 11:38 12,7 C 55 % 1027,3 hPa 0,0 l/m 10,5 km/h (2 Bft) SW 235 1 min 0,000 mm 3,6 UV-I 867 W/m 3,9 C 10,3 C 17,7 km/h (3 Bft) 100,00 %
20.04.2016 11:39 12,7 C 57 % 1027,4 hPa 0,0 l/m 4,8 km/h (1 Bft) W-SW 248 1 min 0,000 mm 2,5 UV-I 867 W/m 4,4 C 12,7 C 8,0 km/h (2 Bft) 96,55 %
20.04.2016 11:40 12,7 C 57 % 1027,4 hPa 0,0 l/m 11,4 km/h (2 Bft) NW 304 1 min 0,000 mm 2,8 UV-I 867 W/m 4,4 C 9,9 C 16,1 km/h (3 Bft) 100,00 %
20.04.2016 11:41 12,7 C 58 % 1027,4 hPa 0,0 l/m 4,2 km/h (1 Bft) NW 315 1 min 0,000 mm 3,0 UV-I 867 W/m 4,7 C 12,7 C 11,3 km/h (2 Bft) 100,00 %
20.04.2016 11:42 12,7 C 58 % 1027,4 hPa 0,0 l/m 4,8 km/h (1 Bft) S-SW 196 1 min 0,000 mm 2,2 UV-I 867 W/m 4,7 C 12,7 C 8,0 km/h (2 Bft) 100,00 %
20.04.2016 11:43 12,7 C 58 % 1027,4 hPa 0,0 l/m 6,4 km/h (2 Bft) W-NW 291 0 min 0,000 mm 2,3 UV-I 272 W/m 4,7 C 12,7 C 17,7 km/h (3 Bft) 100,00 %
20.04.2016 11:44 12,7 C 56 % 1027,5 hPa 0,0 l/m 7,8 km/h (2 Bft) W-SW 252 0 min 0,000 mm 2,4 UV-I 232 W/m 4,2 C 11,8 C 14,5 km/h (3 Bft) 100,00 %
20.04.2016 11:45 12,7 C 56 % 1027,4 hPa 0,0 l/m 3,8 km/h (1 Bft) NW 304 0 min 0,000 mm 3,3 UV-I 232 W/m 4,2 C 12,7 C 11,3 km/h (2 Bft) 100,00 %
20.04.2016 11:46 12,7 C 58 % 1027,5 hPa 0,0 l/m 3,7 km/h (1 Bft) NW 311 0 min 0,000 mm 2,2 UV-I 224 W/m 4,7 C 12,7 C 6,4 km/h (2 Bft) 100,00 %
20.04.2016 11:47 12,7 C 59 % 1027,4 hPa 0,0 l/m 2,7 km/h (1 Bft) NW 312 0 min 0,000 mm 2,2 UV-I 216 W/m 4,9 C 12,7 C 4,8 km/h (1 Bft) 100,00 %
20.04.2016 11:48 12,7 C 58 % 1027,4 hPa 0,0 l/m 4,6 km/h (1 Bft) W-SW 255 0 min 0,000 mm 2,2 UV-I 228 W/m 4,7 C 12,7 C 11,3 km/h (2 Bft) 100,00 %
20.04.2016 11:49 12,7 C 58 % 1027,4 hPa 0,0 l/m 2,5 km/h (1 Bft) W-SW 254 0 min 0,000 mm 2,2 UV-I 204 W/m 4,7 C 12,7 C 9,7 km/h (2 Bft) 91,30 %
20.04.2016 11:50 12,6 C 58 % 1027,4 hPa 0,0 l/m 6,4 km/h (2 Bft) W 260 0 min 0,000 mm 2,2 UV-I 191 W/m 4,6 C 12,6 C 17,7 km/h (3 Bft) 98,60 %
20.04.2016 11:51 12,6 C 57 % 1027,4 hPa 0,0 l/m 10,2 km/h (2 Bft) W-SW 243 0 min 0,000 mm 2,2 UV-I 200 W/m 4,3 C 10,4 C 16,1 km/h (3 Bft) 97,73 %
20.04.2016 11:52 12,6 C 55 % 1027,4 hPa 0,0 l/m 8,5 km/h (2 Bft) W 279 0 min 0,000 mm 2,3 UV-I 182 W/m 3,8 C 11,3 C 12,9 km/h (3 Bft) 100,00 %
20.04.2016 11:53 12,5 C 54 % 1027,4 hPa 0,0 l/m 10,3 km/h (2 Bft) W 269 0 min 0,000 mm 3,1 UV-I 188 W/m 3,5 C 10,2 C 14,5 km/h (3 Bft) 100,00 %
20.04.2016 11:54 12,5 C 53 % 1027,5 hPa 0,0 l/m 15,9 km/h (3 Bft) W-SW 254 1 min 0,000 mm 3,8 UV-I 702 W/m 3,2 C 7,8 C 20,9 km/h (4 Bft) 100,00 %
20.04.2016 11:55 12,5 C 54 % 1027,4 hPa 0,0 l/m 12,3 km/h (3 Bft) W 265 1 min 0,000 mm 3,9 UV-I 857 W/m 3,5 C 9,3 C 17,7 km/h (3 Bft) 100,00 %
20.04.2016 11:56 12,5 C 55 % 1027,4 hPa 0,0 l/m 11,4 km/h (2 Bft) W-SW 245 1 min 0,000 mm 4,0 UV-I 860 W/m 3,7 C 9,7 C 14,5 km/h (3 Bft) 91,67 %
20.04.2016 11:57 12,5 C 52 % 1027,4 hPa 0,0 l/m 7,3 km/h (2 Bft) W 275 1 min 0,000 mm 4,0 UV-I 870 W/m 2,9 C 11,9 C 11,3 km/h (2 Bft) 100,00 %
20.04.2016 11:58 12,6 C 54 % 1027,4 hPa 0,0 l/m 5,0 km/h (1 Bft) W-SW 257 1 min 0,000 mm 4,0 UV-I 869 W/m 3,5 C 12,6 C 6,4 km/h (2 Bft) 100,00 %
20.04.2016 11:59 12,7 C 56 % 1027,4 hPa 0,0 l/m 9,2 km/h (2 Bft) W 269 1 min 0,000 mm 4,0 UV-I 865 W/m 4,2 C 11,0 C 17,7 km/h (3 Bft) 100,00 %
20.04.2016 12:00 12,7 C 56 % 1027,4 hPa 0,0 l/m 14,6 km/h (3 Bft) W-NW 286 1 min 0,305 mm 4,0 UV-I 865 W/m 4,2 C 8,6 C 19,3 km/h (3 Bft) 100,00 %
20.04.2016 12:02 12,8 C 54 % 1027,4 hPa 0,0 l/m 16,4 km/h (3 Bft) W 274 2 min 0,000 mm 4,0 UV-I 880 W/m 3,7 C 8,0 C 25,7 km/h (4 Bft) 98,11 %
20.04.2016 12:03 12,8 C 55 % 1027,4 hPa 0,0 l/m 16,7 km/h (3 Bft) W 262 1 min 0,000 mm 3,8 UV-I 870 W/m 4,0 C 7,9 C 20,9 km/h (4 Bft) 100,00 %
20.04.2016 12:04 12,9 C 53 % 1027,4 hPa 0,0 l/m 17,0 km/h (3 Bft) W 270 1 min 0,000 mm 3,4 UV-I 870 W/m 3,6 C 8,0 C 22,5 km/h (4 Bft) 96,55 %
20.04.2016 12:05 12,9 C 53 % 1027,4 hPa 0,0 l/m 5,7 km/h (1 Bft) W-SW 253 1 min 0,000 mm 3,4 UV-I 870 W/m 3,6 C 12,9 C 9,7 km/h (2 Bft) 100,00 %
20.04.2016 12:06 12,9 C 55 % 1027,4 hPa 0,0 l/m 5,4 km/h (1 Bft) NW 307 1 min 0,000 mm 3,5 UV-I 870 W/m 4,1 C 12,9 C 11,3 km/h (2 Bft) 100,00 %
20.04.2016 12:07 12,9 C 55 % 1027,4 hPa 0,0 l/m 6,9 km/h (2 Bft) W-SW 237 1 min 0,000 mm 3,3 UV-I 870 W/m 4,1 C 12,6 C 12,9 km/h (3 Bft) 100,00 %
20.04.2016 12:08 12,9 C 54 % 1027,5 hPa 0,0 l/m 10,8 km/h (2 Bft) W-SW 238 1 min 0,000 mm 3,8 UV-I 870 W/m 3,8 C 10,4 C 16,1 km/h (3 Bft) 96,55 %
20.04.2016 12:09 12,9 C 54 % 1027,5 hPa 0,0 l/m 7,7 km/h (2 Bft) W-NW 286 1 min 0,000 mm 3,6 UV-I 870 W/m 3,8 C 12,1 C 14,5 km/h (3 Bft) 100,00 %
20.04.2016 12:10 12,9 C 55 % 1027,4 hPa 0,0 l/m 6,2 km/h (2 Bft) N-NW 344 1 min 0,000 mm 2,4 UV-I 513 W/m 4,1 C 12,9 C 12,9 km/h (3 Bft) 100,00 %
20.04.2016 12:11 12,9 C 54 % 1027,4 hPa 0,0 l/m 3,1 km/h (1 Bft) W-SW 252 0 min 0,000 mm 2,4 UV-I 182 W/m 3,8 C 12,9 C 6,4 km/h (2 Bft) 100,00 %
20.04.2016 12:12 12,8 C 55 % 1027,5 hPa 0,0 l/m 8,9 km/h (2 Bft) W-SW 242 0 min 0,000 mm 2,7 UV-I 236 W/m 4,0 C 11,3 C 12,9 km/h (3 Bft) 100,00 %
20.04.2016 12:13 12,8 C 53 % 1027,5 hPa 0,0 l/m 12,5 km/h (3 Bft) W 273 0 min 0,000 mm 3,8 UV-I 344 W/m 3,5 C 9,5 C 14,5 km/h (3 Bft) 100,00 %
20.04.2016 12:14 12,8 C 53 % 1027,5 hPa 0,0 l/m 7,9 km/h (2 Bft) W 263 1 min 0,000 mm 4,1 UV-I 892 W/m 3,5 C 11,9 C 12,9 km/h (3 Bft) 100,00 %
20.04.2016 12:15 12,8 C 57 % 1027,5 hPa 0,0 l/m 10,9 km/h (2 Bft) W-SW 244 1 min 0,000 mm 4,2 UV-I 899 W/m 4,5 C 10,2 C 14,5 km/h (3 Bft) 100,00 %
20.04.2016 12:16 12,9 C 53 % 1027,5 hPa 0,0 l/m 9,1 km/h (2 Bft) W-NW 296 1 min 0,000 mm 4,2 UV-I 907 W/m 3,6 C 11,3 C 12,9 km/h (3 Bft) 96,67 %
20.04.2016 12:17 12,9 C 50 % 1027,4 hPa 0,0 l/m 8,2 km/h (2 Bft) W 274 1 min 0,000 mm 4,2 UV-I 899 W/m 2,7 C 11,8 C 12,9 km/h (3 Bft) 100,00 %
20.04.2016 12:18 12,9 C 51 % 1027,4 hPa 0,0 l/m 8,1 km/h (2 Bft) W 265 1 min 0,000 mm 4,2 UV-I 896 W/m 3,0 C 11,8 C 12,9 km/h (3 Bft) 93,94 %
20.04.2016 12:19 12,9 C 51 % 1027,4 hPa 0,0 l/m 5,8 km/h (2 Bft) NW 318 1 min 0,000 mm 4,2 UV-I 910 W/m 3,0 C 12,9 C 9,7 km/h (2 Bft) 100,00 %
20.04.2016 12:20 12,9 C 51 % 1027,4 hPa 0,0 l/m 5,1 km/h (1 Bft) SW 227 1 min 0,000 mm 4,2 UV-I 904 W/m 3,0 C 12,9 C 11,3 km/h (2 Bft) 98,60 %
20.04.2016 12:21 13,0 C 52 % 1027,4 hPa 0,0 l/m 15,4 km/h (3 Bft) W-SW 243 1 min 0,000 mm 4,2 UV-I 909 W/m 3,4 C 8,6 C 22,5 km/h (4 Bft) 97,56 %
20.04.2016 12:22 13,1 C 54 % 1027,3 hPa 0,0 l/m 16,7 km/h (3 Bft) W 271 1 min 0,000 mm 4,3 UV-I 925 W/m 4,0 C 8,3 C 25,7 km/h (4 Bft) 100,00 %
20.04.2016 12:23 13,1 C 52 % 1027,4 hPa 0,0 l/m 17,1 km/h (3 Bft) W-SW 248 1 min 0,000 mm 4,2 UV-I 932 W/m 3,5 C 8,2 C 22,5 km/h (4 Bft) 96,15 %
20.04.2016 12:24 13,2 C 52 % 1027,4 hPa 0,0 l/m 15,1 km/h (3 Bft) W-SW 257 1 min 0,000 mm 4,1 UV-I 770 W/m 3,6 C 9,0 C 19,3 km/h (3 Bft) 100,00 %
20.04.2016 12:25 13,1 C 51 % 1027,4 hPa 0,0 l/m 14,7 km/h (3 Bft) W 266 1 min 0,000 mm 3,9 UV-I 742 W/m 3,2 C 9,0 C 19,3 km/h (3 Bft) 100,00 %
20.04.2016 12:26 13,1 C 50 % 1027,4 hPa 0,0 l/m 11,2 km/h (2 Bft) W-SW 240 1 min 0,000 mm 2,3 UV-I 585 W/m 2,9 C 10,4 C 17,7 km/h (3 Bft) 100,00 %
20.04.2016 12:27 13,1 C 51 % 1027,4 hPa 0,0 l/m 15,8 km/h (3 Bft) W-SW 246 0 min 0,000 mm 2,2 UV-I 227 W/m 3,2 C 8,6 C 19,3 km/h (3 Bft) 100,00 %
20.04.2016 12:28 13,1 C 51 % 1027,4 hPa 0,0 l/m 13,6 km/h (3 Bft) W-SW 255 0 min 0,000 mm 2,2 UV-I 236 W/m 3,2 C 9,4 C 19,3 km/h (3 Bft) 96,30 %
20.04.2016 12:29 13,1 C 52 % 1027,4 hPa 0,0 l/m 5,1 km/h (1 Bft) W 273 0 min 0,000 mm 2,9 UV-I 239 W/m 3,5 C 13,1 C 11,3 km/h (2 Bft) 100,00 %
20.04.2016 12:30 13,0 C 51 % 1027,4 hPa 0,0 l/m 2,5 km/h (1 Bft) NW 311 0 min 0,000 mm 2,5 UV-I 428 W/m 3,1 C 13,0 C 4,8 km/h (1 Bft) 95,65 %
20.04.2016 12:31 13,0 C 55 % 1027,4 hPa 0,0 l/m 7,9 km/h (2 Bft) N-NW 332 0 min 0,000 mm 2,1 UV-I 403 W/m 4,2 C 12,1 C 16,1 km/h (3 Bft) 100,00 %
20.04.2016 12:32 12,9 C 53 % 1027,4 hPa 0,0 l/m 5,9 km/h (2 Bft) NW 321 0 min 0,000 mm 2,2 UV-I 208 W/m 3,6 C 12,9 C 12,9 km/h (3 Bft) 92,31 %
20.04.2016 12:33 12,9 C 54 % 1027,4 hPa 0,0 l/m 8,8 km/h (2 Bft) W-NW 294 0 min 0,000 mm 2,9 UV-I 211 W/m 3,8 C 11,4 C 16,1 km/h (3 Bft) 100,00 %
20.04.2016 12:34 12,9 C 50 % 1027,4 hPa 0,0 l/m 2,4 km/h (1 Bft) N-NW 339 1 min 0,000 mm 4,0 UV-I 658 W/m 2,7 C 12,9 C 4,8 km/h (1 Bft) 96,15 %
20.04.2016 12:35 12,9 C 54 % 1027,4 hPa 0,0 l/m 5,2 km/h (1 Bft) W 261 1 min 0,000 mm 4,1 UV-I 908 W/m 3,8 C 12,9 C 8,0 km/h (2 Bft) 100,00 %
20.04.2016 12:36 12,9 C 51 % 1027,4 hPa 0,0 l/m 7,2 km/h (2 Bft) N-NW 338 1 min 0,000 mm 4,3 UV-I 909 W/m 3,0 C 12,4 C 11,3 km/h (2 Bft) 92,86 %
20.04.2016 12:37 12,9 C 53 % 1027,4 hPa 0,0 l/m 6,6 km/h (2 Bft) N-NW 338 1 min 0,000 mm 4,3 UV-I 892 W/m 3,6 C 12,8 C 14,5 km/h (3 Bft) 100,00 %
20.04.2016 12:38 12,9 C 52 % 1027,3 hPa 0,0 l/m 10,0 km/h (2 Bft) W-NW 283 1 min 0,000 mm 4,3 UV-I 881 W/m 3,3 C 10,8 C 16,1 km/h (3 Bft) 96,15 %
20.04.2016 12:39 12,9 C 51 % 1027,3 hPa 0,0 l/m 13,8 km/h (3 Bft) W-NW 291 1 min 0,000 mm 4,3 UV-I 884 W/m 3,0 C 9,1 C 19,3 km/h (3 Bft) 100,00 %
20.04.2016 12:40 13,0 C 51 % 1027,4 hPa 0,0 l/m 4,5 km/h (1 Bft) W-SW 253 1 min 0,000 mm 4,4 UV-I 884 W/m 3,1 C 13,0 C 8,0 km/h (2 Bft) 92,31 %
20.04.2016 12:41 13,1 C 49 % 1027,4 hPa 0,0 l/m 11,7 km/h (2 Bft) SW 236 1 min 0,000 mm 4,4 UV-I 892 W/m 2,6 C 10,2 C 20,9 km/h (4 Bft) 96,30 %
20.04.2016 12:42 13,1 C 50 % 1027,4 hPa 0,0 l/m 15,2 km/h (3 Bft) W-SW 254 1 min 0,000 mm 4,5 UV-I 898 W/m 2,9 C 8,8 C 19,3 km/h (3 Bft) 100,00 %
20.04.2016 12:43 13,2 C 50 % 1027,4 hPa 0,0 l/m 14,0 km/h (3 Bft) W-SW 248 1 min 0,000 mm 4,5 UV-I 901 W/m 3,0 C 9,4 C 19,3 km/h (3 Bft) 91,67 %
20.04.2016 12:44 13,2 C 47 % 1027,3 hPa 0,0 l/m 11,9 km/h (2 Bft) W-SW 256 1 min 0,000 mm 4,6 UV-I 910 W/m 2,1 C 10,2 C 16,1 km/h (3 Bft) 100,00 %
20.04.2016 12:45 13,2 C 48 % 1027,4 hPa 0,0 l/m 6,8 km/h (2 Bft) W 269 1 min 0,000 mm 4,6 UV-I 903 W/m 2,4 C 13,0 C 14,5 km/h (3 Bft) 96,30 %
20.04.2016 12:46 13,3 C 48 % 1027,4 hPa 0,0 l/m 12,0 km/h (2 Bft) W-SW 239 1 min 0,000 mm 4,6 UV-I 885 W/m 2,5 C 10,3 C 16,1 km/h (3 Bft) 91,67 %
20.04.2016 12:47 13,3 C 49 % 1027,4 hPa 0,0 l/m 10,3 km/h (2 Bft) W-SW 248 1 min 0,000 mm 4,5 UV-I 864 W/m 2,8 C 11,1 C 16,1 km/h (3 Bft) 96,15 %
20.04.2016 12:48 13,4 C 49 % 1027,4 hPa 0,0 l/m 12,2 km/h (2 Bft) W-SW 251 1 min 0,000 mm 4,6 UV-I 871 W/m 2,9 C 10,3 C 17,7 km/h (3 Bft) 96,55 %
20.04.2016 12:49 13,4 C 49 % 1027,4 hPa 0,0 l/m 7,6 km/h (2 Bft) W-NW 285 1 min 0,000 mm 4,5 UV-I 867 W/m 2,9 C 12,7 C 11,3 km/h (2 Bft) 100,00 %
20.04.2016 12:50 13,5 C 51 % 1027,4 hPa 0,0 l/m 5,7 km/h (1 Bft) NW 305 1 min 0,000 mm 4,4 UV-I 858 W/m 3,6 C 13,5 C 9,7 km/h (2 Bft) 91,67 %
20.04.2016 12:51 13,6 C 50 % 1027,3 hPa 0,0 l/m 2,3 km/h (1 Bft) W-NW 282 1 min 0,000 mm 4,3 UV-I 863 W/m 3,4 C 13,6 C 6,4 km/h (2 Bft) 100,00 %
20.04.2016 12:52 13,6 C 54 % 1027,3 hPa 0,0 l/m 5,4 km/h (1 Bft) W-NW 294 1 min 0,000 mm 3,7 UV-I 840 W/m 4,5 C 13,6 C 11,3 km/h (2 Bft) 93,33 %
20.04.2016 12:53 13,7 C 52 % 1027,3 hPa 0,0 l/m 11,1 km/h (2 Bft) NW 313 1 min 0,000 mm 3,9 UV-I 872 W/m 4,0 C 11,2 C 14,5 km/h (3 Bft) 96,88 %
20.04.2016 12:54 13,7 C 50 % 1027,4 hPa 0,0 l/m 4,6 km/h (1 Bft) W 271 1 min 0,000 mm 4,3 UV-I 882 W/m 3,5 C 13,7 C 8,0 km/h (2 Bft) 98,52 %
20.04.2016 12:55 13,7 C 51 % 1027,4 hPa 0,0 l/m 9,7 km/h (2 Bft) W-SW 254 1 min 0,000 mm 4,2 UV-I 768 W/m 3,8 C 11,8 C 14,5 km/h (3 Bft) 97,73 %
20.04.2016 12:56 13,7 C 50 % 1027,3 hPa 0,0 l/m 4,3 km/h (1 Bft) N-NW 346 1 min 0,000 mm 4,5 UV-I 803 W/m 3,5 C 13,7 C 6,4 km/h (2 Bft) 95,83 %
20.04.2016 12:57 13,8 C 56 % 1027,3 hPa 0,0 l/m 3,8 km/h (1 Bft) W-NW 301 1 min 0,000 mm 4,5 UV-I 886 W/m 5,2 C 13,8 C 8,0 km/h (2 Bft) 96,15 %
20.04.2016 12:58 13,8 C 50 % 1027,3 hPa 0,0 l/m 8,6 km/h (2 Bft) NW 306 1 min 0,000 mm 4,6 UV-I 894 W/m 3,6 C 12,5 C 16,1 km/h (3 Bft) 100,00 %
20.04.2016 12:59 13,8 C 48 % 1027,3 hPa 0,0 l/m 14,6 km/h (3 Bft) W-SW 245 1 min 0,000 mm 4,5 UV-I 832 W/m 3,0 C 9,9 C 22,5 km/h (4 Bft) 85,71 %
20.04.2016 13:00 13,8 C 47 % 1027,3 hPa 0,0 l/m 15,5 km/h (3 Bft) W 261 1 min 0,000 mm 4,6 UV-I 891 W/m 2,7 C 9,6 C 20,9 km/h (4 Bft) 100,00 %
20.04.2016 13:01 13,8 C 47 % 1027,3 hPa 0,0 l/m 10,0 km/h (2 Bft) W-SW 248 1 min 0,406 mm 4,5 UV-I 880 W/m 2,7 C 11,8 C 16,1 km/h (3 Bft) 100,00 %
20.04.2016 13:02 13,8 C 47 % 1027,3 hPa 0,0 l/m 7,3 km/h (2 Bft) SW 232 1 min 0,000 mm 4,6 UV-I 874 W/m 2,7 C 13,3 C 14,5 km/h (3 Bft) 100,00 %
20.04.2016 13:03 13,8 C 46 % 1027,3 hPa 0,0 l/m 9,6 km/h (2 Bft) N 360 1 min 0,000 mm 4,5 UV-I 846 W/m 2,4 C 12,0 C 14,5 km/h (3 Bft) 98,51 %
20.04.2016 13:04 13,8 C 48 % 1027,3 hPa 0,0 l/m 10,9 km/h (2 Bft) W-SW 244 1 min 0,000 mm 4,4 UV-I 810 W/m 3,0 C 11,4 C 16,1 km/h (3 Bft) 100,00 %
20.04.2016 13:05 13,8 C 46 % 1027,4 hPa 0,0 l/m 7,2 km/h (2 Bft) W-SW 241 1 min 0,000 mm 4,3 UV-I 853 W/m 2,4 C 13,3 C 14,5 km/h (3 Bft) 100,00 %
20.04.2016 13:06 13,7 C 45 % 1027,4 hPa 0,0 l/m 6,3 km/h (2 Bft) NW 319 1 min 0,000 mm 2,8 UV-I 780 W/m 2,0 C 13,7 C 11,3 km/h (2 Bft) 96,30 %
20.04.2016 13:07 13,7 C 45 % 1027,4 hPa 0,0 l/m 6,7 km/h (2 Bft) N-NW 341 0 min 0,000 mm 2,8 UV-I 155 W/m 2,0 C 13,5 C 14,5 km/h (3 Bft) 100,00 %
20.04.2016 13:08 13,7 C 47 % 1027,4 hPa 0,0 l/m 9,9 km/h (2 Bft) W 266 1 min 0,000 mm 4,4 UV-I 491 W/m 2,6 C 11,7 C 19,3 km/h (3 Bft) 96,15 %
20.04.2016 13:09 13,7 C 47 % 1027,4 hPa 0,0 l/m 6,4 km/h (2 Bft) N 360 1 min 0,000 mm 4,5 UV-I 857 W/m 2,6 C 13,7 C 8,0 km/h (2 Bft) 100,00 %
20.04.2016 13:10 13,7 C 47 % 1027,4 hPa 0,0 l/m 12,9 km/h (3 Bft) W-NW 296 1 min 0,000 mm 4,5 UV-I 852 W/m 2,6 C 10,4 C 17,7 km/h (3 Bft) 100,00 %
20.04.2016 13:11 13,7 C 48 % 1027,3 hPa 0,0 l/m 9,9 km/h (2 Bft) W-NW 292 1 min 0,000 mm 4,4 UV-I 841 W/m 2,9 C 11,7 C 19,3 km/h (3 Bft) 100,00 %
20.04.2016 13:12 13,7 C 51 % 1027,3 hPa 0,0 l/m 8,8 km/h (2 Bft) N-NW 344 1 min 0,000 mm 4,4 UV-I 842 W/m 3,8 C 12,3 C 14,5 km/h (3 Bft) 100,00 %
20.04.2016 13:13 13,7 C 49 % 1027,3 hPa 0,0 l/m 9,3 km/h (2 Bft) W-NW 300 1 min 0,000 mm 4,5 UV-I 851 W/m 3,2 C 12,0 C 12,9 km/h (3 Bft) 100,00 %
20.04.2016 13:14 13,7 C 48 % 1027,3 hPa 0,0 l/m 7,5 km/h (2 Bft) W 263 1 min 0,000 mm 4,5 UV-I 845 W/m 2,9 C 13,0 C 11,3 km/h (2 Bft) 100,00 %
20.04.2016 13:15 13,7 C 48 % 1027,4 hPa 0,0 l/m 7,4 km/h (2 Bft) W 265 1 min 0,000 mm 4,4 UV-I 806 W/m 2,9 C 13,1 C 11,3 km/h (2 Bft) 100,00 %
20.04.2016 13:16 13,8 C 45 % 1027,4 hPa 0,0 l/m 14,3 km/h (3 Bft) W 260 1 min 0,000 mm 4,4 UV-I 826 W/m 2,1 C 10,0 C 20,9 km/h (4 Bft) 93,75 %
20.04.2016 13:17 13,8 C 46 % 1027,4 hPa 0,0 l/m 12,4 km/h (3 Bft) W-SW 250 1 min 0,000 mm 4,5 UV-I 826 W/m 2,4 C 10,7 C 17,7 km/h (3 Bft) 100,00 %
20.04.2016 13:18 13,8 C 45 % 1027,4 hPa 0,0 l/m 9,3 km/h (2 Bft) W 264 1 min 0,000 mm 4,6 UV-I 838 W/m 2,1 C 12,1 C 14,5 km/h (3 Bft) 100,00 %
20.04.2016 13:19 13,9 C 44 % 1027,4 hPa 0,0 l/m 8,5 km/h (2 Bft) W-SW 238 1 min 0,000 mm 4,6 UV-I 849 W/m 1,9 C 12,7 C 11,3 km/h (2 Bft) 100,00 %
20.04.2016 13:20 13,9 C 46 % 1027,3 hPa 0,0 l/m 9,1 km/h (2 Bft) SW 234 1 min 0,000 mm 4,6 UV-I 855 W/m 2,5 C 12,4 C 12,9 km/h (3 Bft) 100,00 %
20.04.2016 13:21 13,9 C 45 % 1027,3 hPa 0,0 l/m 17,4 km/h (3 Bft) SW 234 1 min 0,000 mm 4,6 UV-I 858 W/m 2,2 C 9,1 C 24,1 km/h (4 Bft) 100,00 %
20.04.2016 13:22 14,0 C 45 % 1027,3 hPa 0,0 l/m 15,2 km/h (3 Bft) W-SW 242 1 min 0,000 mm 4,6 UV-I 860 W/m 2,3 C 9,9 C 20,9 km/h (4 Bft) 100,00 %
20.04.2016 13:23 14,1 C 44 % 1027,3 hPa 0,0 l/m 11,0 km/h (2 Bft) W-SW 242 1 min 0,000 mm 4,6 UV-I 854 W/m 2,0 C 11,7 C 19,3 km/h (3 Bft) 100,00 %
20.04.2016 13:24 14,1 C 43 % 1027,3 hPa 0,0 l/m 10,3 km/h (2 Bft) N-NW 328 1 min 0,000 mm 4,4 UV-I 856 W/m 1,7 C 12,0 C 17,7 km/h (3 Bft) 100,00 %
20.04.2016 13:25 14,1 C 44 % 1027,2 hPa 0,0 l/m 11,4 km/h (2 Bft) W 263 1 min 0,000 mm 4,6 UV-I 856 W/m 2,0 C 11,5 C 20,9 km/h (4 Bft) 100,00 %
20.04.2016 13:26 14,1 C 44 % 1027,3 hPa 0,0 l/m 12,7 km/h (3 Bft) W-NW 288 1 min 0,000 mm 4,6 UV-I 861 W/m 2,0 C 11,0 C 24,1 km/h (4 Bft) 95,83 %
20.04.2016 13:27 14,1 C 45 % 1027,3 hPa 0,0 l/m 11,7 km/h (2 Bft) W 273 1 min 0,000 mm 4,6 UV-I 862 W/m 2,4 C 11,4 C 17,7 km/h (3 Bft) 100,00 %
20.04.2016 13:28 14,1 C 43 % 1027,2 hPa 0,0 l/m 7,0 km/h (2 Bft) W-SW 242 1 min 0,000 mm 4,6 UV-I 864 W/m 1,7 C 13,7 C 12,9 km/h (3 Bft) 100,00 %
20.04.2016 13:29 14,1 C 47 % 1027,2 hPa 0,0 l/m 15,6 km/h (3 Bft) W 262 1 min 0,000 mm 4,6 UV-I 865 W/m 3,0 C 9,9 C 20,9 km/h (4 Bft) 100,00 %
20.04.2016 13:30 14,1 C 43 % 1027,2 hPa 0,0 l/m 21,3 km/h (4 Bft) SW 217 1 min 0,000 mm 4,6 UV-I 876 W/m 1,7 C 8,2 C 29,0 km/h (5 Bft) 93,33 %
20.04.2016 13:31 14,2 C 44 % 1027,2 hPa 0,0 l/m 14,5 km/h (3 Bft) W-SW 246 1 min 0,000 mm 4,6 UV-I 869 W/m 2,1 C 10,4 C 20,9 km/h (4 Bft) 100,00 %
20.04.2016 13:32 14,1 C 43 % 1027,2 hPa 0,0 l/m 12,8 km/h (3 Bft) NW 313 1 min 0,000 mm 4,5 UV-I 856 W/m 1,7 C 10,9 C 17,7 km/h (3 Bft) 100,00 %
20.04.2016 13:33 14,2 C 44 % 1027,2 hPa 0,0 l/m 5,7 km/h (1 Bft) W-SW 252 1 min 0,000 mm 4,6 UV-I 894 W/m 2,1 C 14,2 C 14,5 km/h (3 Bft) 100,00 %
20.04.2016 13:34 14,2 C 45 % 1027,2 hPa 0,0 l/m 18,3 km/h (3 Bft) W-SW 257 1 min 0,000 mm 4,7 UV-I 927 W/m 2,4 C 9,2 C 20,9 km/h (4 Bft) 100,00 %
20.04.2016 13:35 14,2 C 45 % 1027,2 hPa 0,0 l/m 15,0 km/h (3 Bft) W-SW 253 1 min 0,000 mm 4,7 UV-I 943 W/m 2,4 C 10,2 C 19,3 km/h (3 Bft) 100,00 %
20.04.2016 13:36 14,2 C 43 % 1027,3 hPa 0,0 l/m 7,6 km/h (2 Bft) W 276 1 min 0,000 mm 4,7 UV-I 965 W/m 1,8 C 13,5 C 14,5 km/h (3 Bft) 100,00 %
20.04.2016 13:37 14,2 C 45 % 1027,3 hPa 0,0 l/m 5,8 km/h (2 Bft) W-SW 245 1 min 0,000 mm 4,7 UV-I 962 W/m 2,4 C 14,2 C 11,3 km/h (2 Bft) 100,00 %
20.04.2016 13:38 14,2 C 48 % 1027,2 hPa 0,0 l/m 3,7 km/h (1 Bft) N 355 1 min 0,000 mm 4,6 UV-I 950 W/m 3,4 C 14,2 C 6,4 km/h (2 Bft) 100,00 %
20.04.2016 13:39 14,2 C 51 % 1027,2 hPa 0,0 l/m 8,2 km/h (2 Bft) W-NW 291 1 min 0,000 mm 4,5 UV-I 937 W/m 4,2 C 13,2 C 16,1 km/h (3 Bft) 100,00 %
20.04.2016 13:40 14,2 C 47 % 1027,2 hPa 0,0 l/m 11,9 km/h (2 Bft) NW 312 1 min 0,000 mm 4,4 UV-I 932 W/m 3,1 C 11,4 C 19,3 km/h (3 Bft) 100,00 %
20.04.2016 13:41 14,2 C 45 % 1027,2 hPa 0,0 l/m 9,0 km/h (2 Bft) SW 236 1 min 0,000 mm 4,4 UV-I 928 W/m 2,4 C 12,7 C 14,5 km/h (3 Bft) 100,00 %
20.04.2016 13:42 14,3 C 44 % 1027,2 hPa 0,0 l/m 11,8 km/h (2 Bft) W 281 1 min 0,000 mm 4,0 UV-I 865 W/m 2,2 C 11,5 C 19,3 km/h (3 Bft) 100,00 %
20.04.2016 13:43 14,3 C 44 % 1027,2 hPa 0,0 l/m 13,4 km/h (3 Bft) W-SW 256 1 min 0,000 mm 2,7 UV-I 670 W/m 2,2 C 10,9 C 19,3 km/h (3 Bft) 96,55 %
20.04.2016 13:44 14,2 C 43 % 1027,2 hPa 0,0 l/m 13,7 km/h (3 Bft) W-SW 244 0 min 0,000 mm 2,7 UV-I 210 W/m 1,8 C 10,7 C 17,7 km/h (3 Bft) 100,00 %
20.04.2016 13:45 14,2 C 43 % 1027,2 hPa 0,0 l/m 9,3 km/h (2 Bft) W-NW 292 0 min 0,000 mm 2,7 UV-I 206 W/m 1,8 C 12,6 C 14,5 km/h (3 Bft) 100,00 %
20.04.2016 13:46 14,2 C 42 % 1027,2 hPa 0,0 l/m 7,7 km/h (2 Bft) W-NW 299 0 min 0,000 mm 3,4 UV-I 207 W/m 1,5 C 13,4 C 12,9 km/h (3 Bft) 100,00 %
20.04.2016 13:47 14,2 C 44 % 1027,2 hPa 0,0 l/m 3,4 km/h (1 Bft) NW 317 0 min 0,000 mm 4,2 UV-I 318 W/m 2,1 C 14,2 C 6,4 km/h (2 Bft) 100,00 %
20.04.2016 13:48 14,2 C 47 % 1027,2 hPa 0,0 l/m 6,9 km/h (2 Bft) W 269 1 min 0,000 mm 4,2 UV-I 849 W/m 3,1 C 13,9 C 11,3 km/h (2 Bft) 100,00 %
20.04.2016 13:49 14,2 C 44 % 1027,1 hPa 0,0 l/m 8,2 km/h (2 Bft) W-NW 282 1 min 0,000 mm 4,3 UV-I 780 W/m 2,1 C 13,2 C 12,9 km/h (3 Bft) 100,00 %
20.04.2016 13:50 14,2 C 47 % 1027,1 hPa 0,0 l/m 6,5 km/h (2 Bft) N-NW 337 1 min 0,000 mm 4,4 UV-I 824 W/m 3,1 C 14,2 C 9,7 km/h (2 Bft) 100,00 %
20.04.2016 13:51 14,2 C 47 % 1027,1 hPa 0,0 l/m 6,4 km/h (2 Bft) NW 308 1 min 0,000 mm 4,3 UV-I 851 W/m 3,1 C 14,2 C 11,3 km/h (2 Bft) 100,00 %
20.04.2016 13:52 14,2 C 48 % 1027,1 hPa 0,0 l/m 11,5 km/h (2 Bft) W-SW 257 1 min 0,000 mm 4,2 UV-I 823 W/m 3,4 C 11,6 C 16,1 km/h (3 Bft) 100,00 %
20.04.2016 13:53 14,3 C 46 % 1027,1 hPa 0,0 l/m 9,8 km/h (2 Bft) W-NW 300 1 min 0,000 mm 3,7 UV-I 785 W/m 2,8 C 12,4 C 14,5 km/h (3 Bft) 100,00 %
20.04.2016 13:54 14,3 C 44 % 1027,1 hPa 0,0 l/m 8,0 km/h (2 Bft) SW 233 1 min 0,000 mm 4,2 UV-I 801 W/m 2,2 C 13,4 C 14,5 km/h (3 Bft) 90,91 %
20.04.2016 13:55 14,3 C 45 % 1027,1 hPa 0,0 l/m 10,1 km/h (2 Bft) W 279 1 min 0,000 mm 4,3 UV-I 800 W/m 2,5 C 12,3 C 19,3 km/h (3 Bft) 100,00 %
20.04.2016 13:56 14,3 C 45 % 1027,1 hPa 0,0 l/m 10,8 km/h (2 Bft) W-SW 247 1 min 0,000 mm 4,3 UV-I 811 W/m 2,5 C 12,0 C 17,7 km/h (3 Bft) 100,00 %
20.04.2016 13:57 14,3 C 43 % 1027,1 hPa 0,0 l/m 11,9 km/h (2 Bft) W-NW 294 1 min 0,000 mm 4,2 UV-I 808 W/m 1,9 C 11,5 C 17,7 km/h (3 Bft) 100,00 %
20.04.2016 13:58 14,3 C 45 % 1027,1 hPa 0,0 l/m 11,9 km/h (2 Bft) W 279 1 min 0,000 mm 4,2 UV-I 807 W/m 2,5 C 11,5 C 17,7 km/h (3 Bft) 100,00 %
20.04.2016 13:59 14,3 C 42 % 1027,1 hPa 0,0 l/m 9,5 km/h (2 Bft) W 268 1 min 0,000 mm 4,2 UV-I 810 W/m 1,6 C 12,6 C 16,1 km/h (3 Bft) 100,00 %
20.04.2016 14:00 14,3 C 42 % 1027,1 hPa 0,0 l/m 8,6 km/h (2 Bft) N 350 1 min 0,000 mm 4,3 UV-I 815 W/m 1,6 C 13,0 C 12,9 km/h (3 Bft) 100,00 %
20.04.2016 14:01 14,3 C 43 % 1027,1 hPa 0,0 l/m 6,4 km/h (2 Bft) W-NW 293 1 min 0,457 mm 4,1 UV-I 808 W/m 1,9 C 14,3 C 9,7 km/h (2 Bft) 100,00 %
20.04.2016 14:02 14,3 C 42 % 1027,0 hPa 0,0 l/m 5,3 km/h (1 Bft) NO 54 1 min 0,000 mm 4,2 UV-I 804 W/m 1,6 C 14,3 C 9,7 km/h (2 Bft) 96,55 %
20.04.2016 14:03 14,3 C 43 % 1026,9 hPa 0,0 l/m 4,9 km/h (1 Bft) W 277 1 min 0,000 mm 4,2 UV-I 805 W/m 1,9 C 14,3 C 12,9 km/h (3 Bft) 100,00 %
20.04.2016 14:04 14,4 C 43 % 1027,1 hPa 0,0 l/m 10,3 km/h (2 Bft) W-SW 256 1 min 0,000 mm 4,2 UV-I 799 W/m 2,0 C 12,3 C 19,3 km/h (3 Bft) 100,00 %
20.04.2016 14:05 14,4 C 42 % 1027,1 hPa 0,0 l/m 5,6 km/h (1 Bft) W-SW 246 1 min 0,000 mm 4,2 UV-I 810 W/m 1,7 C 14,4 C 11,3 km/h (2 Bft) 96,30 %
20.04.2016 14:06 14,4 C 40 % 1027,0 hPa 0,0 l/m 3,0 km/h (1 Bft) NW 304 1 min 0,000 mm 4,2 UV-I 816 W/m 1,0 C 14,4 C 4,8 km/h (1 Bft) 100,00 %
20.04.2016 14:07 14,4 C 43 % 1027,0 hPa 0,0 l/m 4,5 km/h (1 Bft) W 266 1 min 0,000 mm 4,1 UV-I 823 W/m 2,0 C 14,4 C 9,7 km/h (2 Bft) 100,00 %
20.04.2016 14:08 14,5 C 43 % 1027,0 hPa 0,0 l/m 13,9 km/h (3 Bft) W-SW 250 1 min 0,000 mm 4,2 UV-I 834 W/m 2,1 C 11,0 C 19,3 km/h (3 Bft) 100,00 %
20.04.2016 14:09 14,6 C 42 % 1027,0 hPa 0,0 l/m 16,0 km/h (3 Bft) W-SW 258 1 min 0,000 mm 4,3 UV-I 846 W/m 1,8 C 10,4 C 24,1 km/h (4 Bft) 100,00 %
20.04.2016 14:10 14,5 C 42 % 1027,0 hPa 0,0 l/m 10,5 km/h (2 Bft) NW 311 1 min 0,000 mm 4,3 UV-I 867 W/m 1,7 C 12,3 C 14,5 km/h (3 Bft) 95,83 %
20.04.2016 14:11 14,6 C 43 % 1027,0 hPa 0,0 l/m 13,8 km/h (3 Bft) W 266 1 min 0,000 mm 4,3 UV-I 872 W/m 2,2 C 11,1 C 19,3 km/h (3 Bft) 100,00 %
20.04.2016 14:12 14,6 C 43 % 1027,0 hPa 0,0 l/m 16,4 km/h (3 Bft) W 271 1 min 0,000 mm 4,3 UV-I 878 W/m 2,2 C 10,3 C 20,9 km/h (4 Bft) 100,00 %
20.04.2016 14:13 14,6 C 43 % 1027,0 hPa 0,0 l/m 14,2 km/h (3 Bft) W 276 1 min 0,000 mm 4,3 UV-I 884 W/m 2,2 C 11,0 C 20,9 km/h (4 Bft) 100,00 %
20.04.2016 14:14 14,6 C 42 % 1027,0 hPa 0,0 l/m 10,0 km/h (2 Bft) W 267 1 min 0,000 mm 4,3 UV-I 885 W/m 1,8 C 12,7 C 14,5 km/h (3 Bft) 95,83 %
20.04.2016 14:15 14,5 C 45 % 1027,0 hPa 0,0 l/m 4,3 km/h (1 Bft) W-NW 285 1 min 0,000 mm 4,3 UV-I 881 W/m 2,7 C 14,5 C 6,4 km/h (2 Bft) 100,00 %
20.04.2016 14:16 14,6 C 47 % 1027,0 hPa 0,0 l/m 6,8 km/h (2 Bft) NW 304 1 min 0,000 mm 4,2 UV-I 850 W/m 3,4 C 14,4 C 12,9 km/h (3 Bft) 96,97 %
20.04.2016 14:17 14,6 C 47 % 1027,0 hPa 0,0 l/m 6,6 km/h (2 Bft) N-NO 13 1 min 0,000 mm 4,1 UV-I 833 W/m 3,4 C 14,5 C 12,9 km/h (3 Bft) 100,00 %
20.04.2016 14:18 14,6 C 46 % 1027,0 hPa 0,0 l/m 7,3 km/h (2 Bft) W 271 1 min 0,000 mm 4,1 UV-I 833 W/m 3,1 C 14,1 C 16,1 km/h (3 Bft) 96,30 %
20.04.2016 14:19 14,6 C 48 % 1027,0 hPa 0,0 l/m 7,6 km/h (2 Bft) W-NW 289 1 min 0,000 mm 4,0 UV-I 828 W/m 3,7 C 13,9 C 14,5 km/h (3 Bft) 100,00 %
20.04.2016 14:20 14,6 C 46 % 1027,0 hPa 0,0 l/m 4,5 km/h (1 Bft) W-SW 255 1 min 0,000 mm 4,1 UV-I 821 W/m 3,1 C 14,6 C 8,0 km/h (2 Bft) 96,30 %
20.04.2016 14:21 14,7 C 46 % 1027,0 hPa 0,0 l/m 5,9 km/h (2 Bft) NW 315 1 min 0,000 mm 4,0 UV-I 821 W/m 3,2 C 14,7 C 9,7 km/h (2 Bft) 100,00 %
20.04.2016 14:22 14,7 C 42 % 1027,0 hPa 0,0 l/m 5,6 km/h (1 Bft) NO 36 1 min 0,000 mm 4,0 UV-I 817 W/m 1,9 C 14,7 C 11,3 km/h (2 Bft) 95,83 %
20.04.2016 14:23 14,7 C 44 % 1027,0 hPa 0,0 l/m 6,4 km/h (2 Bft) N 351 1 min 0,000 mm 4,0 UV-I 824 W/m 2,6 C 14,7 C 14,5 km/h (3 Bft) 95,65 %
20.04.2016 14:24 14,7 C 43 % 1026,9 hPa 0,0 l/m 5,5 km/h (1 Bft) NW 323 1 min 0,000 mm 4,0 UV-I 834 W/m 2,3 C 14,7 C 9,7 km/h (2 Bft) 100,00 %
20.04.2016 14:25 14,7 C 44 % 1026,9 hPa 0,0 l/m 5,5 km/h (1 Bft) W-NW 302 1 min 0,000 mm 3,9 UV-I 847 W/m 2,6 C 14,7 C 9,7 km/h (2 Bft) 96,55 %
20.04.2016 14:26 14,7 C 44 % 1026,9 hPa 0,0 l/m 5,7 km/h (1 Bft) W 269 1 min 0,000 mm 4,0 UV-I 853 W/m 2,6 C 14,7 C 9,7 km/h (2 Bft) 100,00 %
20.04.2016 14:27 14,7 C 44 % 1027,0 hPa 0,0 l/m 7,8 km/h (2 Bft) W-SW 257 1 min 0,000 mm 4,0 UV-I 853 W/m 2,6 C 13,9 C 17,7 km/h (3 Bft) 93,33 %
20.04.2016 14:28 14,7 C 43 % 1026,9 hPa 0,0 l/m 9,9 km/h (2 Bft) W 276 1 min 0,000 mm 3,8 UV-I 838 W/m 2,3 C 12,8 C 17,7 km/h (3 Bft) 100,00 %
20.04.2016 14:29 14,7 C 46 % 1026,9 hPa 0,0 l/m 6,6 km/h (2 Bft) NW 311 1 min 0,000 mm 3,8 UV-I 839 W/m 3,2 C 14,6 C 14,5 km/h (3 Bft) 96,15 %
20.04.2016 14:30 14,7 C 49 % 1026,9 hPa 0,0 l/m 7,6 km/h (2 Bft) NW 317 1 min 0,000 mm 2,9 UV-I 750 W/m 4,1 C 14,0 C 16,1 km/h (3 Bft) 100,00 %
20.04.2016 14:31 14,7 C 44 % 1027,0 hPa 0,0 l/m 6,7 km/h (2 Bft) N-NW 327 1 min 0,000 mm 3,4 UV-I 728 W/m 2,6 C 14,5 C 12,9 km/h (3 Bft) 96,30 %
20.04.2016 14:32 14,7 C 43 % 1027,0 hPa 0,0 l/m 6,3 km/h (2 Bft) NW 317 1 min 0,000 mm 4,0 UV-I 832 W/m 2,3 C 14,7 C 11,3 km/h (2 Bft) 93,10 %
20.04.2016 14:33 14,7 C 45 % 1027,0 hPa 0,0 l/m 11,6 km/h (2 Bft) N-NW 334 1 min 0,000 mm 3,9 UV-I 827 W/m 2,9 C 12,1 C 17,7 km/h (3 Bft) 100,00 %
20.04.2016 14:34 14,6 C 44 % 1026,8 hPa 0,0 l/m 10,3 km/h (2 Bft) N 349 1 min 0,000 mm 3,9 UV-I 808 W/m 2,5 C 12,5 C 12,9 km/h (3 Bft) 94,12 %
20.04.2016 14:35 14,6 C 46 % 1026,8 hPa 0,0 l/m 5,1 km/h (1 Bft) W 268 1 min 0,000 mm 3,9 UV-I 787 W/m 3,1 C 14,6 C 8,0 km/h (2 Bft) 100,00 %
20.04.2016 14:36 14,6 C 45 % 1026,8 hPa 0,0 l/m 14,2 km/h (3 Bft) W-NW 285 1 min 0,000 mm 3,9 UV-I 779 W/m 2,8 C 11,0 C 20,9 km/h (4 Bft) 96,55 %
20.04.2016 14:37 14,6 C 43 % 1026,8 hPa 0,0 l/m 13,6 km/h (3 Bft) W-NW 296 1 min 0,000 mm 3,8 UV-I 772 W/m 2,2 C 11,2 C 24,1 km/h (4 Bft) 100,00 %
20.04.2016 14:38 14,6 C 41 % 1026,9 hPa 0,0 l/m 10,2 km/h (2 Bft) SW 235 1 min 0,000 mm 3,8 UV-I 772 W/m 1,5 C 12,6 C 14,5 km/h (3 Bft) 96,55 %
20.04.2016 14:39 14,6 C 45 % 1026,9 hPa 0,0 l/m 10,1 km/h (2 Bft) NW 323 1 min 0,000 mm 3,8 UV-I 770 W/m 2,8 C 12,6 C 16,1 km/h (3 Bft) 95,83 %
20.04.2016 14:40 14,6 C 44 % 1026,9 hPa 0,0 l/m 4,2 km/h (1 Bft) W-NW 294 1 min 0,000 mm 3,8 UV-I 768 W/m 2,5 C 14,6 C 6,4 km/h (2 Bft) 100,00 %
20.04.2016 14:41 14,6 C 47 % 1026,9 hPa 0,0 l/m 2,4 km/h (1 Bft) W-NW 288 1 min 0,000 mm 3,8 UV-I 762 W/m 3,4 C 14,6 C 3,2 km/h (1 Bft) 96,30 %
20.04.2016 14:42 14,6 C 46 % 1026,9 hPa 0,0 l/m 6,9 km/h (2 Bft) W 277 1 min 0,000 mm 3,7 UV-I 757 W/m 3,1 C 14,3 C 12,9 km/h (3 Bft) 100,00 %
20.04.2016 14:43 14,7 C 42 % 1026,8 hPa 0,0 l/m 6,7 km/h (2 Bft) W 275 1 min 0,000 mm 3,7 UV-I 755 W/m 1,9 C 14,5 C 12,9 km/h (3 Bft) 93,10 %
20.04.2016 14:44 14,7 C 41 % 1026,8 hPa 0,0 l/m 4,4 km/h (1 Bft) W 261 1 min 0,000 mm 3,6 UV-I 752 W/m 1,6 C 14,7 C 6,4 km/h (2 Bft) 100,00 %
20.04.2016 14:45 14,8 C 42 % 1026,8 hPa 0,0 l/m 2,9 km/h (1 Bft) W-NW 294 1 min 0,000 mm 3,6 UV-I 749 W/m 2,0 C 14,8 C 6,4 km/h (2 Bft) 93,33 %
20.04.2016 14:46 14,8 C 46 % 1026,8 hPa 0,0 l/m 5,3 km/h (1 Bft) NW 305 1 min 0,000 mm 3,8 UV-I 738 W/m 3,3 C 14,8 C 14,5 km/h (3 Bft) 100,00 %
20.04.2016 14:47 14,9 C 44 % 1026,7 hPa 0,0 l/m 3,8 km/h (1 Bft) N-NW 327 1 min 0,000 mm 3,7 UV-I 758 W/m 2,8 C 14,9 C 8,0 km/h (2 Bft) 100,00 %
20.04.2016 14:48 14,9 C 44 % 1026,7 hPa 0,0 l/m 2,9 km/h (1 Bft) N-NW 335 1 min 0,000 mm 3,7 UV-I 762 W/m 2,8 C 14,9 C 4,8 km/h (1 Bft) 100,00 %
20.04.2016 14:49 15,0 C 43 % 1026,7 hPa 0,0 l/m 4,1 km/h (1 Bft) W-NW 301 1 min 0,000 mm 3,6 UV-I 760 W/m 2,5 C 15,0 C 8,0 km/h (2 Bft) 96,55 %
20.04.2016 14:50 15,1 C 40 % 1026,7 hPa 0,0 l/m 5,5 km/h (1 Bft) NW 312 1 min 0,000 mm 3,7 UV-I 752 W/m 1,6 C 15,1 C 9,7 km/h (2 Bft) 100,00 %
20.04.2016 14:51 15,1 C 39 % 1026,7 hPa 0,0 l/m 3,8 km/h (1 Bft) NW 310 1 min 0,000 mm 3,6 UV-I 744 W/m 1,3 C 15,1 C 11,3 km/h (2 Bft) 100,00 %
20.04.2016 14:52 15,1 C 40 % 1026,7 hPa 0,0 l/m 8,7 km/h (2 Bft) N-NW 330 1 min 0,000 mm 3,6 UV-I 745 W/m 1,6 C 13,8 C 16,1 km/h (3 Bft) 100,00 %
20.04.2016 14:53 15,1 C 42 % 1026,7 hPa 0,0 l/m 5,9 km/h (2 Bft) NW 315 1 min 0,000 mm 3,6 UV-I 743 W/m 2,3 C 15,1 C 12,9 km/h (3 Bft) 100,00 %
20.04.2016 14:54 15,1 C 44 % 1026,7 hPa 0,0 l/m 3,6 km/h (1 Bft) N 9 1 min 0,000 mm 3,6 UV-I 740 W/m 2,9 C 15,1 C 6,4 km/h (2 Bft) 96,30 %
20.04.2016 14:55 15,1 C 45 % 1026,7 hPa 0,0 l/m 4,6 km/h (1 Bft) NO 49 1 min 0,000 mm 3,5 UV-I 733 W/m 3,3 C 15,1 C 8,0 km/h (2 Bft) 94,12 %
20.04.2016 14:56 15,1 C 45 % 1026,6 hPa 0,0 l/m 5,7 km/h (1 Bft) N-NW 329 1 min 0,000 mm 3,5 UV-I 733 W/m 3,3 C 15,1 C 12,9 km/h (3 Bft) 100,00 %
20.04.2016 14:57 15,1 C 42 % 1026,6 hPa 0,0 l/m 4,0 km/h (1 Bft) W 276 1 min 0,000 mm 3,5 UV-I 728 W/m 2,3 C 15,1 C 8,0 km/h (2 Bft) 100,00 %
20.04.2016 14:58 15,1 C 43 % 1026,7 hPa 0,0 l/m 4,6 km/h (1 Bft) W 261 1 min 0,000 mm 3,5 UV-I 725 W/m 2,6 C 15,1 C 11,3 km/h (2 Bft) 95,83 %
20.04.2016 14:59 15,1 C 44 % 1026,7 hPa 0,0 l/m 9,5 km/h (2 Bft) SW 219 1 min 0,000 mm 3,5 UV-I 722 W/m 2,9 C 13,5 C 16,1 km/h (3 Bft) 100,00 %
20.04.2016 15:00 15,1 C 44 % 1026,7 hPa 0,0 l/m 13,9 km/h (3 Bft) W-SW 257 1 min 0,458 mm 3,4 UV-I 722 W/m 2,9 C 11,7 C 17,7 km/h (3 Bft) 100,00 %
20.04.2016 15:01 15,1 C 39 % 1026,7 hPa 0,0 l/m 11,4 km/h (2 Bft) W-SW 246 1 min 0,000 mm 3,4 UV-I 725 W/m 1,3 C 12,6 C 17,7 km/h (3 Bft) 100,00 %
20.04.2016 15:02 15,1 C 42 % 1026,7 hPa 0,0 l/m 2,7 km/h (1 Bft) W-NW 296 1 min 0,000 mm 3,4 UV-I 726 W/m 2,3 C 15,1 C 6,4 km/h (2 Bft) 100,00 %
20.04.2016 15:03 15,1 C 44 % 1026,7 hPa 0,0 l/m 5,8 km/h (2 Bft) SW 229 1 min 0,000 mm 3,4 UV-I 721 W/m 2,9 C 15,1 C 9,7 km/h (2 Bft) 100,00 %
20.04.2016 15:04 15,1 C 40 % 1026,7 hPa 0,0 l/m 3,1 km/h (1 Bft) NW 321 1 min 0,000 mm 3,4 UV-I 719 W/m 1,6 C 15,1 C 6,4 km/h (2 Bft) 96,30 %
20.04.2016 15:05 15,1 C 41 % 1026,6 hPa 0,0 l/m 8,9 km/h (2 Bft) W 261 1 min 0,000 mm 3,4 UV-I 717 W/m 2,0 C 13,7 C 16,1 km/h (3 Bft) 100,00 %
20.04.2016 15:06 15,1 C 41 % 1026,7 hPa 0,0 l/m 11,8 km/h (2 Bft) W-NW 283 1 min 0,000 mm 3,4 UV-I 712 W/m 2,0 C 12,5 C 22,5 km/h (4 Bft) 100,00 %
20.04.2016 15:07 15,1 C 40 % 1026,6 hPa 0,0 l/m 14,1 km/h (3 Bft) W-SW 250 1 min 0,000 mm 3,3 UV-I 713 W/m 1,6 C 11,6 C 17,7 km/h (3 Bft) 100,00 %
20.04.2016 15:08 15,1 C 41 % 1026,7 hPa 0,0 l/m 12,4 km/h (3 Bft) W-SW 258 1 min 0,000 mm 3,3 UV-I 710 W/m 2,0 C 12,2 C 17,7 km/h (3 Bft) 100,00 %
20.04.2016 15:09 15,1 C 40 % 1026,6 hPa 0,0 l/m 8,5 km/h (2 Bft) W 262 1 min 0,000 mm 3,3 UV-I 708 W/m 1,6 C 13,9 C 14,5 km/h (3 Bft) 100,00 %
20.04.2016 15:10 15,1 C 41 % 1026,5 hPa 0,0 l/m 9,3 km/h (2 Bft) W-SW 244 1 min 0,000 mm 3,1 UV-I 707 W/m 2,0 C 13,6 C 16,1 km/h (3 Bft) 100,00 %
20.04.2016 15:11 15,1 C 41 % 1026,6 hPa 0,0 l/m 13,0 km/h (3 Bft) W 275 1 min 0,000 mm 3,3 UV-I 706 W/m 2,0 C 12,0 C 17,7 km/h (3 Bft) 100,00 %
20.04.2016 15:12 15,2 C 41 % 1026,7 hPa 0,0 l/m 8,0 km/h (2 Bft) W-SW 256 1 min 0,000 mm 3,3 UV-I 706 W/m 2,0 C 14,3 C 14,5 km/h (3 Bft) 100,00 %
20.04.2016 15:13 15,2 C 42 % 1026,7 hPa 0,0 l/m 11,8 km/h (2 Bft) W-SW 248 1 min 0,000 mm 3,2 UV-I 705 W/m 2,4 C 12,6 C 19,3 km/h (3 Bft) 100,00 %
20.04.2016 15:14 15,2 C 42 % 1026,5 hPa 0,0 l/m 10,6 km/h (2 Bft) SW 234 1 min 0,000 mm 3,2 UV-I 701 W/m 2,4 C 13,1 C 14,5 km/h (3 Bft) 100,00 %
20.04.2016 15:15 15,2 C 40 % 1026,5 hPa 0,0 l/m 9,3 km/h (2 Bft) SW 229 1 min 0,000 mm 3,2 UV-I 700 W/m 1,7 C 13,7 C 14,5 km/h (3 Bft) 100,00 %
20.04.2016 15:16 15,2 C 42 % 1026,5 hPa 0,0 l/m 6,7 km/h (2 Bft) W-NW 301 1 min 0,000 mm 3,1 UV-I 686 W/m 2,4 C 15,0 C 12,9 km/h (3 Bft) 100,00 %
20.04.2016 15:17 15,2 C 41 % 1026,5 hPa 0,0 l/m 3,1 km/h (1 Bft) S 170 1 min 0,000 mm 3,1 UV-I 690 W/m 2,0 C 15,2 C 6,4 km/h (2 Bft) 100,00 %
20.04.2016 15:18 15,2 C 42 % 1026,6 hPa 0,0 l/m 6,7 km/h (2 Bft) W-NW 291 1 min 0,000 mm 3,1 UV-I 686 W/m 2,4 C 15,0 C 11,3 km/h (2 Bft) 100,00 %
20.04.2016 15:19 15,2 C 42 % 1026,6 hPa 0,0 l/m 5,3 km/h (1 Bft) W-SW 244 1 min 0,000 mm 3,1 UV-I 682 W/m 2,4 C 15,2 C 11,3 km/h (2 Bft) 100,00 %
20.04.2016 15:20 15,2 C 42 % 1026,5 hPa 0,0 l/m 7,6 km/h (2 Bft) N-NW 332 1 min 0,000 mm 3,0 UV-I 680 W/m 2,4 C 14,5 C 14,5 km/h (3 Bft) 100,00 %
20.04.2016 15:21 15,2 C 43 % 1026,6 hPa 0,0 l/m 5,0 km/h (1 Bft) S-SO 168 1 min 0,000 mm 3,1 UV-I 680 W/m 2,7 C 15,2 C 9,7 km/h (2 Bft) 100,00 %
20.04.2016 15:22 15,2 C 46 % 1026,5 hPa 0,0 l/m 3,2 km/h (1 Bft) N-NW 347 1 min 0,000 mm 3,0 UV-I 681 W/m 3,7 C 15,2 C 9,7 km/h (2 Bft) 100,00 %
20.04.2016 15:23 15,2 C 45 % 1026,5 hPa 0,0 l/m 5,2 km/h (1 Bft) N 5 1 min 0,000 mm 2,8 UV-I 684 W/m 3,4 C 15,2 C 8,0 km/h (2 Bft) 95,83 %
20.04.2016 15:24 15,2 C 45 % 1026,5 hPa 0,0 l/m 4,8 km/h (1 Bft) NW 321 1 min 0,000 mm 2,6 UV-I 684 W/m 3,4 C 15,2 C 9,7 km/h (2 Bft) 100,00 %
20.04.2016 15:25 15,1 C 46 % 1026,5 hPa 0,0 l/m 3,4 km/h (1 Bft) N-NW 331 1 min 0,000 mm 3,0 UV-I 680 W/m 3,6 C 15,1 C 6,4 km/h (2 Bft) 100,00 %
20.04.2016 15:26 15,1 C 45 % 1026,5 hPa 0,0 l/m 5,7 km/h (1 Bft) N 5 1 min 0,000 mm 3,0 UV-I 658 W/m 3,3 C 15,1 C 11,3 km/h (2 Bft) 100,00 %
20.04.2016 15:27 15,1 C 47 % 1026,4 hPa 0,0 l/m 4,2 km/h (1 Bft) N-NW 328 1 min 0,000 mm 2,9 UV-I 681 W/m 3,9 C 15,1 C 8,0 km/h (2 Bft) 100,00 %
20.04.2016 15:28 15,1 C 46 % 1026,4 hPa 0,0 l/m 7,5 km/h (2 Bft) W-NW 300 1 min 0,000 mm 3,0 UV-I 681 W/m 3,6 C 14,5 C 17,7 km/h (3 Bft) 100,00 %
20.04.2016 15:29 15,1 C 46 % 1026,4 hPa 0,0 l/m 4,8 km/h (1 Bft) W-NW 302 1 min 0,000 mm 2,9 UV-I 679 W/m 3,6 C 15,1 C 12,9 km/h (3 Bft) 100,00 %
20.04.2016 15:30 15,2 C 44 % 1026,4 hPa 0,0 l/m 4,2 km/h (1 Bft) NW 317 1 min 0,000 mm 2,9 UV-I 681 W/m 3,0 C 15,2 C 9,7 km/h (2 Bft) 100,00 %
20.04.2016 15:31 15,2 C 46 % 1026,5 hPa 0,0 l/m 5,4 km/h (1 Bft) W-NW 286 1 min 0,000 mm 2,9 UV-I 682 W/m 3,7 C 15,2 C 8,0 km/h (2 Bft) 100,00 %
20.04.2016 15:32 15,2 C 46 % 1026,4 hPa 0,0 l/m 9,4 km/h (2 Bft) W-NW 286 1 min 0,000 mm 2,9 UV-I 680 W/m 3,7 C 13,6 C 14,5 km/h (3 Bft) 100,00 %
20.04.2016 15:33 15,2 C 42 % 1026,5 hPa 0,0 l/m 3,0 km/h (1 Bft) NW 311 1 min 0,000 mm 2,9 UV-I 678 W/m 2,4 C 15,2 C 8,0 km/h (2 Bft) 96,15 %
20.04.2016 15:34 15,2 C 47 % 1026,5 hPa 0,0 l/m 2,4 km/h (1 Bft) NW 320 1 min 0,000 mm 2,9 UV-I 678 W/m 4,0 C 15,2 C 3,2 km/h (1 Bft) 100,00 %
20.04.2016 15:35 15,3 C 42 % 1026,4 hPa 0,0 l/m 2,7 km/h (1 Bft) W-NW 300 1 min 0,000 mm 2,7 UV-I 690 W/m 2,5 C 15,3 C 4,8 km/h (1 Bft) 100,00 %
20.04.2016 15:36 15,3 C 43 % 1026,5 hPa 0,0 l/m 4,4 km/h (1 Bft) W-NW 288 1 min 0,000 mm 2,6 UV-I 674 W/m 2,8 C 15,3 C 6,4 km/h (2 Bft) 100,00 %
20.04.2016 15:37 15,3 C 44 % 1026,4 hPa 0,0 l/m 3,6 km/h (1 Bft) N-NW 342 1 min 0,000 mm 2,3 UV-I 664 W/m 3,1 C 15,3 C 6,4 km/h (2 Bft) 100,00 %
20.04.2016 15:38 15,3 C 42 % 1026,4 hPa 0,0 l/m 1,9 km/h (1 Bft) N 355 1 min 0,000 mm 2,6 UV-I 655 W/m 2,5 C 15,3 C 3,2 km/h (1 Bft) 100,00 %
20.04.2016 15:39 15,3 C 45 % 1026,4 hPa 0,0 l/m 3,2 km/h (1 Bft) NW 313 1 min 0,000 mm 2,8 UV-I 586 W/m 3,4 C 15,3 C 6,4 km/h (2 Bft) 100,00 %
20.04.2016 15:40 15,3 C 44 % 1026,4 hPa 0,0 l/m 6,6 km/h (2 Bft) W-SW 250 1 min 0,000 mm 2,7 UV-I 529 W/m 3,1 C 15,2 C 9,7 km/h (2 Bft) 100,00 %
20.04.2016 15:41 15,3 C 43 % 1026,4 hPa 0,0 l/m 7,6 km/h (2 Bft) W 267 1 min 0,000 mm 2,7 UV-I 608 W/m 2,8 C 14,6 C 12,9 km/h (3 Bft) 100,00 %
20.04.2016 15:42 15,3 C 41 % 1026,3 hPa 0,0 l/m 5,6 km/h (1 Bft) W-NW 291 1 min 0,000 mm 2,7 UV-I 653 W/m 2,1 C 15,3 C 9,7 km/h (2 Bft) 100,00 %
20.04.2016 15:43 15,3 C 43 % 1026,4 hPa 0,0 l/m 5,7 km/h (1 Bft) W 277 1 min 0,000 mm 2,6 UV-I 641 W/m 2,8 C 15,3 C 9,7 km/h (2 Bft) 100,00 %
20.04.2016 15:44 15,3 C 43 % 1026,4 hPa 0,0 l/m 11,9 km/h (2 Bft) W 269 1 min 0,000 mm 2,6 UV-I 642 W/m 2,8 C 12,7 C 16,1 km/h (3 Bft) 95,65 %
20.04.2016 15:45 15,3 C 43 % 1026,4 hPa 0,0 l/m 10,9 km/h (2 Bft) SW 224 1 min 0,000 mm 2,6 UV-I 642 W/m 2,8 C 13,1 C 12,9 km/h (3 Bft) 100,00 %
20.04.2016 15:46 15,3 C 42 % 1026,4 hPa 0,0 l/m 9,5 km/h (2 Bft) S-SW 207 1 min 0,000 mm 2,6 UV-I 641 W/m 2,5 C 13,7 C 14,5 km/h (3 Bft) 100,00 %
20.04.2016 15:47 15,3 C 40 % 1026,4 hPa 0,0 l/m 9,3 km/h (2 Bft) SW 227 1 min 0,000 mm 2,6 UV-I 634 W/m 1,8 C 13,8 C 14,5 km/h (3 Bft) 100,00 %
20.04.2016 15:48 15,3 C 42 % 1026,4 hPa 0,0 l/m 2,7 km/h (1 Bft) W-NW 285 1 min 0,000 mm 2,5 UV-I 616 W/m 2,5 C 15,3 C 6,4 km/h (2 Bft) 96,15 %
20.04.2016 15:49 15,3 C 42 % 1026,4 hPa 0,0 l/m 6,2 km/h (2 Bft) NW 325 1 min 0,000 mm 2,5 UV-I 614 W/m 2,5 C 15,3 C 8,0 km/h (2 Bft) 100,00 %
20.04.2016 15:50 15,3 C 42 % 1026,3 hPa 0,0 l/m 2,3 km/h (1 Bft) W-NW 292 1 min 0,000 mm 2,4 UV-I 618 W/m 2,5 C 15,3 C 4,8 km/h (1 Bft) 100,00 %
20.04.2016 15:51 15,3 C 43 % 1026,4 hPa 0,0 l/m 6,5 km/h (2 Bft) W 273 1 min 0,000 mm 2,5 UV-I 627 W/m 2,8 C 15,3 C 11,3 km/h (2 Bft) 100,00 %
20.04.2016 15:52 15,3 C 42 % 1026,4 hPa 0,0 l/m 5,2 km/h (1 Bft) W-NW 301 1 min 0,000 mm 2,5 UV-I 633 W/m 2,5 C 15,3 C 11,3 km/h (2 Bft) 100,00 %
20.04.2016 15:53 15,3 C 44 % 1026,4 hPa 0,0 l/m 12,0 km/h (2 Bft) W 271 1 min 0,000 mm 2,5 UV-I 638 W/m 3,1 C 12,6 C 17,7 km/h (3 Bft) 100,00 %
20.04.2016 15:54 15,3 C 42 % 1026,4 hPa 0,0 l/m 7,2 km/h (2 Bft) NW 321 1 min 0,000 mm 2,5 UV-I 638 W/m 2,5 C 14,9 C 11,3 km/h (2 Bft) 100,00 %
20.04.2016 15:55 15,3 C 43 % 1026,3 hPa 0,0 l/m 7,4 km/h (2 Bft) W 263 1 min 0,000 mm 2,5 UV-I 641 W/m 2,8 C 14,7 C 11,3 km/h (2 Bft) 100,00 %
20.04.2016 15:56 15,4 C 42 % 1026,4 hPa 0,0 l/m 9,3 km/h (2 Bft) SW 221 1 min 0,000 mm 2,4 UV-I 626 W/m 2,6 C 13,9 C 14,5 km/h (3 Bft) 100,00 %
20.04.2016 15:57 15,4 C 43 % 1026,3 hPa 0,0 l/m 6,2 km/h (2 Bft) W-SW 249 1 min 0,000 mm 2,4 UV-I 612 W/m 2,9 C 15,4 C 11,3 km/h (2 Bft) 100,00 %
20.04.2016 15:58 15,4 C 42 % 1026,4 hPa 0,0 l/m 11,7 km/h (2 Bft) W-SW 257 1 min 0,000 mm 2,4 UV-I 607 W/m 2,6 C 12,8 C 16,1 km/h (3 Bft) 100,00 %
20.04.2016 15:59 15,4 C 43 % 1026,4 hPa 0,0 l/m 4,0 km/h (1 Bft) W-SW 254 1 min 0,000 mm 2,3 UV-I 604 W/m 2,9 C 15,4 C 6,4 km/h (2 Bft) 96,30 %
20.04.2016 16:00 15,4 C 42 % 1026,4 hPa 0,0 l/m 9,1 km/h (2 Bft) W 281 1 min 0,381 mm 2,3 UV-I 604 W/m 2,6 C 14,0 C 12,9 km/h (3 Bft) 100,00 %
20.04.2016 16:02 15,4 C 43 % 1026,3 hPa 0,0 l/m 5,6 km/h (1 Bft) SW 221 2 min 0,000 mm 2,3 UV-I 595 W/m 2,9 C 15,4 C 11,3 km/h (2 Bft) 97,87 %
20.04.2016 16:03 15,5 C 42 % 1026,3 hPa 0,0 l/m 2,6 km/h (1 Bft) O 101 1 min 0,000 mm 2,3 UV-I 592 W/m 2,6 C 15,5 C 4,8 km/h (1 Bft) 100,00 %
20.04.2016 16:04 15,5 C 43 % 1026,3 hPa 0,0 l/m 6,7 km/h (2 Bft) N 5 1 min 0,000 mm 2,3 UV-I 536 W/m 3,0 C 15,3 C 11,3 km/h (2 Bft) 96,15 %
20.04.2016 16:05 15,6 C 43 % 1026,3 hPa 0,0 l/m 6,7 km/h (2 Bft) W 259 1 min 0,000 mm 2,3 UV-I 562 W/m 3,1 C 15,4 C 12,9 km/h (3 Bft) 95,83 %
20.04.2016 16:06 15,6 C 41 % 1026,3 hPa 0,0 l/m 1,9 km/h (1 Bft) N-NW 342 1 min 0,000 mm 2,2 UV-I 596 W/m 2,4 C 15,6 C 3,2 km/h (1 Bft) 100,00 %
20.04.2016 16:07 15,6 C 45 % 1026,2 hPa 0,0 l/m 1,9 km/h (1 Bft) W-NW 287 1 min 0,000 mm 2,2 UV-I 596 W/m 3,7 C 15,6 C 6,4 km/h (2 Bft) 100,00 %
20.04.2016 16:08 15,6 C 43 % 1026,3 hPa 0,0 l/m 15,2 km/h (3 Bft) W-SW 238 1 min 0,000 mm 2,2 UV-I 595 W/m 3,1 C 11,9 C 22,5 km/h (4 Bft) 95,83 %
20.04.2016 16:09 15,6 C 41 % 1026,2 hPa 0,0 l/m 7,8 km/h (2 Bft) W 267 1 min 0,000 mm 2,2 UV-I 580 W/m 2,4 C 14,8 C 17,7 km/h (3 Bft) 96,55 %
20.04.2016 16:10 15,5 C 41 % 1026,2 hPa 0,0 l/m 6,1 km/h (2 Bft) W 268 1 min 0,000 mm 2,2 UV-I 579 W/m 2,3 C 15,5 C 9,7 km/h (2 Bft) 96,30 %
20.04.2016 16:11 15,5 C 40 % 1026,3 hPa 0,0 l/m 6,3 km/h (2 Bft) W-NW 282 1 min 0,000 mm 2,2 UV-I 580 W/m 2,0 C 15,5 C 9,7 km/h (2 Bft) 92,86 %
20.04.2016 16:12 15,5 C 42 % 1026,3 hPa 0,0 l/m 7,2 km/h (2 Bft) W-NW 292 1 min 0,000 mm 2,1 UV-I 578 W/m 2,6 C 15,1 C 14,5 km/h (3 Bft) 100,00 %
20.04.2016 16:13 15,4 C 40 % 1026,3 hPa 0,0 l/m 8,0 km/h (2 Bft) W 272 1 min 0,000 mm 2,1 UV-I 570 W/m 1,9 C 14,5 C 14,5 km/h (3 Bft) 92,31 %
20.04.2016 16:14 15,4 C 40 % 1026,2 hPa 0,0 l/m 5,3 km/h (1 Bft) W-SW 255 1 min 0,000 mm 2,1 UV-I 569 W/m 1,9 C 15,4 C 9,7 km/h (2 Bft) 96,30 %
20.04.2016 16:15 15,4 C 43 % 1026,2 hPa 0,0 l/m 3,2 km/h (1 Bft) NW 319 1 min 0,000 mm 2,1 UV-I 569 W/m 2,9 C 15,4 C 4,8 km/h (1 Bft) 100,00 %
20.04.2016 16:16 15,4 C 45 % 1026,3 hPa 0,0 l/m 5,4 km/h (1 Bft) NW 321 1 min 0,000 mm 2,0 UV-I 564 W/m 3,5 C 15,4 C 12,9 km/h (3 Bft) 96,30 %
20.04.2016 16:17 15,5 C 46 % 1026,2 hPa 0,0 l/m 7,3 km/h (2 Bft) W-NW 285 1 min 0,000 mm 2,0 UV-I 560 W/m 3,9 C 15,0 C 12,9 km/h (3 Bft) 98,60 %
20.04.2016 16:18 15,5 C 41 % 1026,3 hPa 0,0 l/m 5,6 km/h (1 Bft) NW 316 1 min 0,000 mm 2,0 UV-I 535 W/m 2,3 C 15,5 C 11,3 km/h (2 Bft) 95,45 %
20.04.2016 16:19 15,5 C 44 % 1026,3 hPa 0,0 l/m 7,8 km/h (2 Bft) W-SW 249 1 min 0,000 mm 2,0 UV-I 555 W/m 3,3 C 14,7 C 12,9 km/h (3 Bft) 100,00 %
20.04.2016 16:20 15,4 C 41 % 1026,3 hPa 0,0 l/m 6,9 km/h (2 Bft) SW 230 1 min 0,000 mm 2,0 UV-I 554 W/m 2,2 C 15,1 C 11,3 km/h (2 Bft) 95,83 %
20.04.2016 16:21 15,5 C 42 % 1026,2 hPa 0,0 l/m 3,8 km/h (1 Bft) NW 309 1 min 0,000 mm 2,0 UV-I 554 W/m 2,6 C 15,5 C 8,0 km/h (2 Bft) 98,59 %
20.04.2016 16:22 15,5 C 42 % 1026,2 hPa 0,0 l/m 2,4 km/h (1 Bft) NW 307 1 min 0,000 mm 1,9 UV-I 551 W/m 2,6 C 15,5 C 3,2 km/h (1 Bft) 97,56 %
20.04.2016 16:23 15,5 C 43 % 1026,3 hPa 0,0 l/m 2,2 km/h (1 Bft) W-NW 295 1 min 0,000 mm 1,9 UV-I 548 W/m 3,0 C 15,5 C 4,8 km/h (1 Bft) 96,15 %
20.04.2016 16:24 15,6 C 46 % 1026,3 hPa 0,0 l/m 5,0 km/h (1 Bft) W-NW 284 1 min 0,000 mm 1,9 UV-I 547 W/m 4,0 C 15,6 C 9,7 km/h (2 Bft) 100,00 %
20.04.2016 16:25 15,6 C 46 % 1026,3 hPa 0,0 l/m 8,7 km/h (2 Bft) W 268 1 min 0,000 mm 1,9 UV-I 547 W/m 4,0 C 14,4 C 14,5 km/h (3 Bft) 100,00 %
20.04.2016 16:26 15,6 C 44 % 1026,2 hPa 0,0 l/m 8,6 km/h (2 Bft) W 275 1 min 0,000 mm 1,9 UV-I 542 W/m 3,4 C 14,4 C 12,9 km/h (3 Bft) 97,56 %
20.04.2016 16:27 15,6 C 45 % 1026,3 hPa 0,0 l/m 3,4 km/h (1 Bft) NW 304 1 min 0,000 mm 1,9 UV-I 537 W/m 3,7 C 15,6 C 8,0 km/h (2 Bft) 91,67 %
20.04.2016 16:28 15,7 C 43 % 1026,2 hPa 0,0 l/m 7,4 km/h (2 Bft) W-NW 299 1 min 0,000 mm 1,9 UV-I 538 W/m 3,2 C 15,2 C 11,3 km/h (2 Bft) 100,00 %
20.04.2016 16:29 15,7 C 46 % 1026,3 hPa 0,0 l/m 1,9 km/h (1 Bft) W-NW 301 1 min 0,000 mm 1,8 UV-I 535 W/m 4,1 C 15,7 C 3,2 km/h (1 Bft) 96,30 %
20.04.2016 16:30 15,7 C 46 % 1026,2 hPa 0,0 l/m 3,5 km/h (1 Bft) NW 315 1 min 0,000 mm 1,8 UV-I 534 W/m 4,1 C 15,7 C 6,4 km/h (2 Bft) 100,00 %
20.04.2016 16:31 15,7 C 44 % 1026,2 hPa 0,0 l/m 5,7 km/h (1 Bft) W-NW 289 1 min 0,000 mm 1,8 UV-I 534 W/m 3,5 C 15,7 C 12,9 km/h (3 Bft) 92,59 %
20.04.2016 16:32 15,7 C 42 % 1026,2 hPa 0,0 l/m 5,9 km/h (2 Bft) NW 319 1 min 0,000 mm 1,8 UV-I 530 W/m 2,8 C 15,7 C 11,3 km/h (2 Bft) 94,12 %
20.04.2016 16:33 15,7 C 41 % 1026,1 hPa 0,0 l/m 2,3 km/h (1 Bft) W-NW 292 1 min 0,000 mm 1,8 UV-I 518 W/m 2,5 C 15,7 C 4,8 km/h (1 Bft) 95,83 %
20.04.2016 16:34 15,7 C 41 % 1026,2 hPa 0,0 l/m 7,9 km/h (2 Bft) W 277 1 min 0,000 mm 1,7 UV-I 514 W/m 2,5 C 14,9 C 17,7 km/h (3 Bft) 91,30 %
20.04.2016 16:35 15,7 C 43 % 1026,1 hPa 0,0 l/m 6,2 km/h (2 Bft) SW 236 1 min 0,000 mm 1,7 UV-I 514 W/m 3,2 C 15,7 C 12,9 km/h (3 Bft) 100,00 %
20.04.2016 16:36 15,7 C 44 % 1026,2 hPa 0,0 l/m 3,4 km/h (1 Bft) N-NW 340 1 min 0,000 mm 1,7 UV-I 512 W/m 3,5 C 15,7 C 4,8 km/h (1 Bft) 100,00 %
20.04.2016 16:37 15,7 C 42 % 1026,1 hPa 0,0 l/m 4,1 km/h (1 Bft) W-SW 253 1 min 0,000 mm 1,7 UV-I 505 W/m 2,8 C 15,7 C 8,0 km/h (2 Bft) 100,00 %
20.04.2016 16:38 15,8 C 44 % 1026,2 hPa 0,0 l/m 4,3 km/h (1 Bft) W-NW 284 1 min 0,000 mm 1,7 UV-I 490 W/m 3,6 C 15,8 C 9,7 km/h (2 Bft) 100,00 %
20.04.2016 16:39 15,8 C 42 % 1026,2 hPa 0,0 l/m 2,9 km/h (1 Bft) W 272 1 min 0,000 mm 1,6 UV-I 504 W/m 2,9 C 15,8 C 9,7 km/h (2 Bft) 100,00 %
20.04.2016 16:40 15,8 C 46 % 1026,1 hPa 0,0 l/m 8,3 km/h (2 Bft) NW 316 1 min 0,000 mm 1,6 UV-I 503 W/m 4,2 C 14,8 C 12,9 km/h (3 Bft) 100,00 %
20.04.2016 16:41 15,8 C 43 % 1026,1 hPa 0,0 l/m 5,6 km/h (1 Bft) W 275 1 min 0,000 mm 1,6 UV-I 501 W/m 3,3 C 15,8 C 12,9 km/h (3 Bft) 100,00 %
20.04.2016 16:42 15,8 C 45 % 1026,1 hPa 0,0 l/m 6,9 km/h (2 Bft) W-NW 297 1 min 0,000 mm 1,6 UV-I 497 W/m 3,9 C 15,5 C 14,5 km/h (3 Bft) 96,55 %
20.04.2016 16:43 15,8 C 42 % 1026,1 hPa 0,0 l/m 7,2 km/h (2 Bft) W 267 1 min 0,000 mm 1,6 UV-I 490 W/m 2,9 C 15,4 C 12,9 km/h (3 Bft) 100,00 %
20.04.2016 16:44 15,8 C 41 % 1026,2 hPa 0,0 l/m 4,7 km/h (1 Bft) NW 315 1 min 0,000 mm 1,2 UV-I 480 W/m 2,6 C 15,8 C 9,7 km/h (2 Bft) 93,33 %
20.04.2016 16:45 15,7 C 42 % 1026,2 hPa 0,0 l/m 7,0 km/h (2 Bft) W-NW 292 1 min 0,000 mm 1,5 UV-I 494 W/m 2,8 C 15,4 C 11,3 km/h (2 Bft) 100,00 %
20.04.2016 16:46 15,7 C 40 % 1026,1 hPa 0,0 l/m 8,0 km/h (2 Bft) W-NW 303 1 min 0,000 mm 1,5 UV-I 492 W/m 2,1 C 14,8 C 17,7 km/h (3 Bft) 100,00 %
20.04.2016 16:47 15,7 C 40 % 1026,1 hPa 0,0 l/m 3,3 km/h (1 Bft) W-NW 286 1 min 0,000 mm 1,5 UV-I 494 W/m 2,1 C 15,7 C 6,4 km/h (2 Bft) 100,00 %
20.04.2016 16:48 15,7 C 39 % 1026,1 hPa 0,0 l/m 2,7 km/h (1 Bft) NW 313 1 min 0,000 mm 1,5 UV-I 491 W/m 1,8 C 15,7 C 4,8 km/h (1 Bft) 100,00 %
20.04.2016 16:49 15,7 C 41 % 1026,1 hPa 0,0 l/m 3,4 km/h (1 Bft) W-NW 296 1 min 0,000 mm 1,5 UV-I 479 W/m 2,5 C 15,7 C 4,8 km/h (1 Bft) 100,00 %
20.04.2016 16:50 15,7 C 40 % 1026,0 hPa 0,0 l/m 6,4 km/h (2 Bft) W-SW 258 1 min 0,000 mm 1,4 UV-I 474 W/m 2,1 C 15,7 C 14,5 km/h (3 Bft) 100,00 %
20.04.2016 16:51 15,7 C 40 % 1026,1 hPa 0,0 l/m 9,3 km/h (2 Bft) W 271 1 min 0,000 mm 1,4 UV-I 472 W/m 2,1 C 14,2 C 16,1 km/h (3 Bft) 100,00 %
20.04.2016 16:52 15,7 C 43 % 1026,1 hPa 0,0 l/m 6,5 km/h (2 Bft) W-NW 285 1 min 0,000 mm 1,4 UV-I 469 W/m 3,2 C 15,7 C 12,9 km/h (3 Bft) 100,00 %
20.04.2016 16:53 15,7 C 40 % 1026,1 hPa 0,0 l/m 10,1 km/h (2 Bft) W 276 1 min 0,000 mm 1,4 UV-I 465 W/m 2,1 C 13,8 C 16,1 km/h (3 Bft) 100,00 %
20.04.2016 16:54 15,6 C 39 % 1026,1 hPa 0,0 l/m 7,6 km/h (2 Bft) W 271 1 min 0,000 mm 1,4 UV-I 464 W/m 1,7 C 14,9 C 11,3 km/h (2 Bft) 100,00 %
20.04.2016 16:55 15,6 C 40 % 1026,1 hPa 0,0 l/m 8,9 km/h (2 Bft) W-SW 244 1 min 0,000 mm 1,4 UV-I 466 W/m 2,1 C 14,3 C 14,5 km/h (3 Bft) 100,00 %
20.04.2016 16:56 15,6 C 41 % 1026,1 hPa 0,0 l/m 4,9 km/h (1 Bft) W-NW 291 1 min 0,000 mm 1,4 UV-I 445 W/m 2,4 C 15,6 C 9,7 km/h (2 Bft) 100,00 %
20.04.2016 16:57 15,6 C 43 % 1026,0 hPa 0,0 l/m 4,2 km/h (1 Bft) W-NW 302 1 min 0,000 mm 1,3 UV-I 429 W/m 3,1 C 15,6 C 9,7 km/h (2 Bft) 100,00 %
20.04.2016 16:58 15,6 C 41 % 1026,0 hPa 0,0 l/m 6,8 km/h (2 Bft) NW 312 1 min 0,000 mm 1,3 UV-I 455 W/m 2,4 C 15,4 C 12,9 km/h (3 Bft) 96,30 %
20.04.2016 16:59 15,6 C 40 % 1026,0 hPa 0,0 l/m 5,3 km/h (1 Bft) W 272 1 min 0,000 mm 1,3 UV-I 452 W/m 2,1 C 15,6 C 11,3 km/h (2 Bft) 95,65 %
20.04.2016 17:00 15,6 C 40 % 1026,0 hPa 0,0 l/m 4,7 km/h (1 Bft) W-NW 294 1 min 0,000 mm 1,3 UV-I 448 W/m 2,1 C 15,6 C 9,7 km/h (2 Bft) 100,00 %
20.04.2016 17:02 15,7 C 44 % 1026,0 hPa 0,0 l/m 4,8 km/h (1 Bft) W-NW 298 2 min 0,330 mm 1,3 UV-I 445 W/m 3,5 C 15,7 C 9,7 km/h (2 Bft) 100,00 %
20.04.2016 17:03 15,7 C 43 % 1026,0 hPa 0,0 l/m 2,5 km/h (1 Bft) W-SW 258 1 min 0,000 mm 1,3 UV-I 439 W/m 3,2 C 15,7 C 4,8 km/h (1 Bft) 100,00 %
20.04.2016 17:04 15,7 C 41 % 1026,1 hPa 0,0 l/m 7,0 km/h (2 Bft) SW 234 1 min 0,000 mm 1,2 UV-I 437 W/m 2,5 C 15,4 C 11,3 km/h (2 Bft) 100,00 %
20.04.2016 17:05 15,7 C 43 % 1026,0 hPa 0,0 l/m 4,1 km/h (1 Bft) W 277 1 min 0,000 mm 1,2 UV-I 433 W/m 3,2 C 15,7 C 6,4 km/h (2 Bft) 100,00 %
20.04.2016 17:06 15,7 C 41 % 1026,1 hPa 0,0 l/m 9,6 km/h (2 Bft) SW 224 1 min 0,000 mm 1,2 UV-I 430 W/m 2,5 C 14,1 C 16,1 km/h (3 Bft) 100,00 %
20.04.2016 17:07 15,7 C 40 % 1026,1 hPa 0,0 l/m 9,9 km/h (2 Bft) W 269 1 min 0,000 mm 1,2 UV-I 426 W/m 2,1 C 13,9 C 14,5 km/h (3 Bft) 100,00 %
20.04.2016 17:08 15,7 C 39 % 1026,0 hPa 0,0 l/m 6,8 km/h (2 Bft) W 275 1 min 0,000 mm 1,2 UV-I 426 W/m 1,8 C 15,5 C 12,9 km/h (3 Bft) 100,00 %
20.04.2016 17:09 15,7 C 40 % 1026,1 hPa 0,0 l/m 10,0 km/h (2 Bft) W 267 1 min 0,000 mm 1,2 UV-I 426 W/m 2,1 C 13,9 C 14,5 km/h (3 Bft) 100,00 %
20.04.2016 17:10 15,7 C 39 % 1026,1 hPa 0,0 l/m 9,6 km/h (2 Bft) W-NW 288 1 min 0,000 mm 1,2 UV-I 423 W/m 1,8 C 14,1 C 14,5 km/h (3 Bft) 100,00 %
20.04.2016 17:11 15,7 C 39 % 1026,0 hPa 0,0 l/m 5,8 km/h (2 Bft) W-NW 282 1 min 0,000 mm 1,1 UV-I 420 W/m 1,8 C 15,7 C 11,3 km/h (2 Bft) 100,00 %
20.04.2016 17:12 15,7 C 40 % 1026,1 hPa 0,0 l/m 6,6 km/h (2 Bft) N-NW 338 1 min 0,000 mm 1,0 UV-I 417 W/m 2,1 C 15,6 C 11,3 km/h (2 Bft) 100,00 %
20.04.2016 17:13 15,7 C 40 % 1026,0 hPa 0,0 l/m 6,9 km/h (2 Bft) N-NW 331 1 min 0,000 mm 1,1 UV-I 414 W/m 2,1 C 15,4 C 14,5 km/h (3 Bft) 100,00 %
20.04.2016 17:14 15,6 C 40 % 1026,0 hPa 0,0 l/m 4,3 km/h (1 Bft) W-NW 287 1 min 0,000 mm 1,1 UV-I 414 W/m 2,1 C 15,6 C 8,0 km/h (2 Bft) 100,00 %
20.04.2016 17:15 15,6 C 43 % 1026,0 hPa 0,0 l/m 2,8 km/h (1 Bft) N-NW 327 1 min 0,000 mm 1,1 UV-I 413 W/m 3,1 C 15,6 C 4,8 km/h (1 Bft) 100,00 %
20.04.2016 17:16 15,6 C 43 % 1026,0 hPa 0,0 l/m 2,7 km/h (1 Bft) NW 325 1 min 0,000 mm 1,1 UV-I 407 W/m 3,1 C 15,6 C 3,2 km/h (1 Bft) 100,00 %
20.04.2016 17:17 15,6 C 43 % 1026,0 hPa 0,0 l/m 6,1 km/h (2 Bft) W 270 1 min 0,000 mm 1,1 UV-I 403 W/m 3,1 C 15,6 C 16,1 km/h (3 Bft) 100,00 %
20.04.2016 17:18 15,6 C 42 % 1026,0 hPa 0,0 l/m 8,7 km/h (2 Bft) W-SW 252 1 min 0,000 mm 1,0 UV-I 401 W/m 2,7 C 14,4 C 12,9 km/h (3 Bft) 100,00 %
20.04.2016 17:19 15,5 C 41 % 1025,9 hPa 0,0 l/m 4,5 km/h (1 Bft) W-NW 284 1 min 0,000 mm 1,0 UV-I 398 W/m 2,3 C 15,5 C 11,3 km/h (2 Bft) 100,00 %
20.04.2016 17:20 15,6 C 41 % 1026,0 hPa 0,0 l/m 6,0 km/h (2 Bft) NW 324 1 min 0,000 mm 1,0 UV-I 397 W/m 2,4 C 15,6 C 12,9 km/h (3 Bft) 100,00 %
20.04.2016 17:21 15,5 C 44 % 1026,0 hPa 0,0 l/m 5,8 km/h (2 Bft) W 261 1 min 0,000 mm 1,0 UV-I 394 W/m 3,3 C 15,5 C 11,3 km/h (2 Bft) 100,00 %
20.04.2016 17:22 15,5 C 40 % 1026,0 hPa 0,0 l/m 7,0 km/h (2 Bft) W 277 1 min 0,000 mm 1,0 UV-I 389 W/m 2,0 C 15,2 C 11,3 km/h (2 Bft) 100,00 %
20.04.2016 17:23 15,5 C 43 % 1026,0 hPa 0,0 l/m 3,5 km/h (1 Bft) W-NW 290 1 min 0,000 mm 0,9 UV-I 387 W/m 3,0 C 15,5 C 6,4 km/h (2 Bft) 96,30 %
20.04.2016 17:24 15,5 C 44 % 1026,0 hPa 0,0 l/m 7,3 km/h (2 Bft) W-SW 257 1 min 0,000 mm 0,8 UV-I 382 W/m 3,3 C 15,0 C 11,3 km/h (2 Bft) 100,00 %
20.04.2016 17:25 15,5 C 42 % 1026,0 hPa 0,0 l/m 5,1 km/h (1 Bft) SW 232 1 min 0,000 mm 0,9 UV-I 379 W/m 2,6 C 15,5 C 12,9 km/h (3 Bft) 96,15 %
20.04.2016 17:26 15,5 C 43 % 1026,0 hPa 0,0 l/m 7,0 km/h (2 Bft) NW 306 1 min 0,000 mm 0,9 UV-I 375 W/m 3,0 C 15,2 C 16,1 km/h (3 Bft) 100,00 %
20.04.2016 17:27 15,5 C 42 % 1026,0 hPa 0,0 l/m 7,3 km/h (2 Bft) W 265 1 min 0,000 mm 0,9 UV-I 372 W/m 2,6 C 15,0 C 9,7 km/h (2 Bft) 91,67 %
20.04.2016 17:28 15,4 C 42 % 1026,0 hPa 0,0 l/m 7,2 km/h (2 Bft) NW 324 1 min 0,000 mm 0,9 UV-I 371 W/m 2,6 C 15,0 C 14,5 km/h (3 Bft) 100,00 %
20.04.2016 17:29 15,4 C 41 % 1026,0 hPa 0,0 l/m 4,3 km/h (1 Bft) W-NW 294 1 min 0,000 mm 0,9 UV-I 367 W/m 2,2 C 15,4 C 6,4 km/h (2 Bft) 100,00 %
20.04.2016 17:30 15,4 C 41 % 1026,0 hPa 0,0 l/m 4,6 km/h (1 Bft) W-NW 286 1 min 0,000 mm 0,9 UV-I 367 W/m 2,2 C 15,4 C 8,0 km/h (2 Bft) 100,00 %
20.04.2016 17:31 15,4 C 44 % 1026,0 hPa 0,0 l/m 4,6 km/h (1 Bft) W-SW 254 1 min 0,000 mm 0,9 UV-I 365 W/m 3,2 C 15,4 C 6,4 km/h (2 Bft) 100,00 %
20.04.2016 17:32 15,4 C 40 % 1026,0 hPa 0,0 l/m 5,6 km/h (1 Bft) W 271 1 min 0,000 mm 0,9 UV-I 363 W/m 1,9 C 15,4 C 9,7 km/h (2 Bft) 95,83 %
20.04.2016 17:33 15,4 C 40 % 1026,0 hPa 0,0 l/m 7,3 km/h (2 Bft) W-NW 290 1 min 0,000 mm 0,8 UV-I 360 W/m 1,9 C 14,9 C 12,9 km/h (3 Bft) 92,86 %
20.04.2016 17:34 15,4 C 40 % 1025,9 hPa 0,0 l/m 7,8 km/h (2 Bft) W-SW 255 1 min 0,000 mm 0,8 UV-I 356 W/m 1,9 C 14,6 C 12,9 km/h (3 Bft) 100,00 %
20.04.2016 17:35 15,4 C 40 % 1025,9 hPa 0,0 l/m 8,0 km/h (2 Bft) W-SW 257 1 min 0,000 mm 0,8 UV-I 352 W/m 1,9 C 14,5 C 11,3 km/h (2 Bft) 100,00 %
20.04.2016 17:36 15,4 C 39 % 1025,9 hPa 0,0 l/m 4,7 km/h (1 Bft) W-SW 256 1 min 0,000 mm 0,8 UV-I 347 W/m 1,5 C 15,4 C 6,4 km/h (2 Bft) 100,00 %
20.04.2016 17:37 15,4 C 39 % 1025,9 hPa 0,0 l/m 6,2 km/h (2 Bft) W 267 1 min 0,000 mm 0,8 UV-I 346 W/m 1,5 C 15,4 C 8,0 km/h (2 Bft) 100,00 %
20.04.2016 17:38 15,4 C 39 % 1025,9 hPa 0,0 l/m 6,0 km/h (2 Bft) SW 234 1 min 0,000 mm 0,8 UV-I 344 W/m 1,5 C 15,4 C 9,7 km/h (2 Bft) 100,00 %
20.04.2016 17:39 15,4 C 41 % 1025,9 hPa 0,0 l/m 4,4 km/h (1 Bft) NW 308 1 min 0,000 mm 0,8 UV-I 342 W/m 2,2 C 15,4 C 6,4 km/h (2 Bft) 100,00 %
20.04.2016 17:40 15,4 C 42 % 1025,9 hPa 0,0 l/m 4,2 km/h (1 Bft) W-SW 243 1 min 0,000 mm 0,8 UV-I 338 W/m 2,6 C 15,4 C 8,0 km/h (2 Bft) 100,00 %
20.04.2016 17:41 15,4 C 40 % 1025,9 hPa 0,0 l/m 7,2 km/h (2 Bft) W-SW 254 1 min 0,000 mm 0,7 UV-I 336 W/m 1,9 C 15,0 C 11,3 km/h (2 Bft) 100,00 %
20.04.2016 17:42 15,4 C 41 % 1025,9 hPa 0,0 l/m 8,2 km/h (2 Bft) W-SW 257 1 min 0,000 mm 0,7 UV-I 335 W/m 2,2 C 14,4 C 12,9 km/h (3 Bft) 100,00 %
20.04.2016 17:43 15,4 C 41 % 1025,9 hPa 0,0 l/m 4,8 km/h (1 Bft) W-NW 295 1 min 0,000 mm 0,7 UV-I 333 W/m 2,2 C 15,4 C 9,7 km/h (2 Bft) 100,00 %
20.04.2016 17:44 15,5 C 42 % 1025,9 hPa 0,0 l/m 4,3 km/h (1 Bft) W-SW 244 1 min 0,000 mm 0,7 UV-I 331 W/m 2,6 C 15,5 C 8,0 km/h (2 Bft) 100,00 %
20.04.2016 17:45 15,5 C 42 % 1025,9 hPa 0,0 l/m 8,6 km/h (2 Bft) W 260 1 min 0,000 mm 0,7 UV-I 328 W/m 2,6 C 14,3 C 11,3 km/h (2 Bft) 93,33 %
20.04.2016 17:46 15,5 C 39 % 1025,9 hPa 0,0 l/m 4,5 km/h (1 Bft) W 262 1 min 0,000 mm 0,7 UV-I 323 W/m 1,6 C 15,5 C 8,0 km/h (2 Bft) 96,88 %
20.04.2016 17:47 15,5 C 41 % 1025,9 hPa 0,0 l/m 4,3 km/h (1 Bft) W 266 1 min 0,000 mm 0,7 UV-I 320 W/m 2,3 C 15,5 C 9,7 km/h (2 Bft) 100,00 %
20.04.2016 17:48 15,4 C 39 % 1025,9 hPa 0,0 l/m 6,6 km/h (2 Bft) W-NW 284 1 min 0,000 mm 0,7 UV-I 316 W/m 1,5 C 15,3 C 9,7 km/h (2 Bft) 96,15 %
20.04.2016 17:49 15,4 C 39 % 1025,8 hPa 0,0 l/m 6,8 km/h (2 Bft) W 277 1 min 0,000 mm 0,7 UV-I 313 W/m 1,5 C 15,2 C 11,3 km/h (2 Bft) 100,00 %
20.04.2016 17:50 15,4 C 42 % 1025,9 hPa 0,0 l/m 6,0 km/h (2 Bft) NW 311 1 min 0,000 mm 0,6 UV-I 310 W/m 2,6 C 15,4 C 11,3 km/h (2 Bft) 95,65 %
20.04.2016 17:51 15,4 C 42 % 1025,9 hPa 0,0 l/m 6,9 km/h (2 Bft) N 5 1 min 0,000 mm 0,6 UV-I 308 W/m 2,6 C 15,1 C 14,5 km/h (3 Bft) 100,00 %
20.04.2016 17:52 15,4 C 44 % 1025,8 hPa 0,0 l/m 6,7 km/h (2 Bft) NW 320 1 min 0,000 mm 0,6 UV-I 306 W/m 3,2 C 15,2 C 11,3 km/h (2 Bft) 100,00 %
20.04.2016 17:53 15,4 C 43 % 1025,9 hPa 0,0 l/m 3,9 km/h (1 Bft) W-NW 301 1 min 0,000 mm 0,6 UV-I 304 W/m 2,9 C 15,4 C 9,7 km/h (2 Bft) 100,00 %
20.04.2016 17:54 15,3 C 44 % 1025,9 hPa 0,0 l/m 4,0 km/h (1 Bft) W-SW 246 1 min 0,000 mm 0,6 UV-I 298 W/m 3,1 C 15,3 C 9,7 km/h (2 Bft) 100,00 %
20.04.2016 17:55 15,4 C 42 % 1025,9 hPa 0,0 l/m 9,3 km/h (2 Bft) N-NW 327 1 min 0,000 mm 0,6 UV-I 287 W/m 2,6 C 13,9 C 16,1 km/h (3 Bft) 100,00 %
20.04.2016 17:56 15,4 C 43 % 1025,9 hPa 0,0 l/m 6,3 km/h (2 Bft) N-NW 338 1 min 0,000 mm 0,6 UV-I 294 W/m 2,9 C 15,4 C 12,9 km/h (3 Bft) 96,55 %
20.04.2016 17:57 15,3 C 39 % 1025,9 hPa 0,0 l/m 7,1 km/h (2 Bft) NW 310 1 min 0,000 mm 0,6 UV-I 293 W/m 1,4 C 14,9 C 12,9 km/h (3 Bft) 100,00 %
20.04.2016 17:58 15,3 C 40 % 1025,9 hPa 0,0 l/m 6,0 km/h (2 Bft) W-SW 254 1 min 0,000 mm 0,6 UV-I 288 W/m 1,8 C 15,3 C 9,7 km/h (2 Bft) 100,00 %
20.04.2016 17:59 15,3 C 39 % 1025,9 hPa 0,0 l/m 8,7 km/h (2 Bft) W 267 1 min 0,000 mm 0,5 UV-I 284 W/m 1,4 C 14,1 C 12,9 km/h (3 Bft) 100,00 %
20.04.2016 18:00 15,3 C 40 % 1025,9 hPa 0,0 l/m 7,1 km/h (2 Bft) W 260 1 min 0,254 mm 0,5 UV-I 281 W/m 1,8 C 14,9 C 12,9 km/h (3 Bft) 96,15 %
20.04.2016 18:01 15,3 C 41 % 1025,9 hPa 0,0 l/m 4,1 km/h (1 Bft) W-NW 289 1 min 0,000 mm 0,5 UV-I 276 W/m 2,1 C 15,3 C 6,4 km/h (2 Bft) 100,00 %
20.04.2016 18:02 15,3 C 42 % 1025,9 hPa 0,0 l/m 0,5 km/h (0 Bft) W-NW 289 1 min 0,000 mm 0,5 UV-I 272 W/m 2,5 C 15,3 C 1,6 km/h (1 Bft) 95,65 %
20.04.2016 18:03 15,3 C 43 % 1025,9 hPa 0,0 l/m 1,2 km/h (1 Bft) W-NW 289 1 min 0,000 mm 0,5 UV-I 270 W/m 2,8 C 15,3 C 3,2 km/h (1 Bft) 100,00 %
20.04.2016 18:04 15,3 C 42 % 1025,8 hPa 0,0 l/m 5,2 km/h (1 Bft) W-SW 246 1 min 0,000 mm 0,5 UV-I 269 W/m 2,5 C 15,3 C 8,0 km/h (2 Bft) 91,67 %
20.04.2016 18:05 15,3 C 42 % 1025,9 hPa 0,0 l/m 5,9 km/h (2 Bft) W-NW 299 1 min 0,000 mm 0,5 UV-I 264 W/m 2,5 C 15,3 C 8,0 km/h (2 Bft) 100,00 %
20.04.2016 18:06 15,3 C 40 % 1025,8 hPa 0,0 l/m 4,1 km/h (1 Bft) W 271 1 min 0,000 mm 0,5 UV-I 262 W/m 1,8 C 15,3 C 6,4 km/h (2 Bft) 96,30 %
20.04.2016 18:07 15,3 C 41 % 1025,9 hPa 0,0 l/m 3,2 km/h (1 Bft) W 277 1 min 0,000 mm 0,5 UV-I 259 W/m 2,1 C 15,3 C 4,8 km/h (1 Bft) 96,15 %
20.04.2016 18:08 15,3 C 40 % 1025,8 hPa 0,0 l/m 4,7 km/h (1 Bft) W 273 1 min 0,000 mm 0,5 UV-I 256 W/m 1,8 C 15,3 C 11,3 km/h (2 Bft) 100,00 %
20.04.2016 18:09 15,3 C 42 % 1025,8 hPa 0,0 l/m 5,1 km/h (1 Bft) W-SW 242 1 min 0,000 mm 0,5 UV-I 252 W/m 2,5 C 15,3 C 6,4 km/h (2 Bft) 92,31 %
20.04.2016 18:10 15,3 C 41 % 1025,8 hPa 0,0 l/m 4,3 km/h (1 Bft) W-SW 238 1 min 0,000 mm 0,1 UV-I 250 W/m 2,1 C 15,3 C 6,4 km/h (2 Bft) 100,00 %
20.04.2016 18:11 15,3 C 41 % 1025,8 hPa 0,0 l/m 4,2 km/h (1 Bft) W-NW 297 1 min 0,000 mm 0,0 UV-I 245 W/m 2,1 C 15,3 C 8,0 km/h (2 Bft) 92,31 %
20.04.2016 18:12 15,3 C 42 % 1025,9 hPa 0,0 l/m 3,2 km/h (1 Bft) W-NW 303 1 min 0,000 mm 0,0 UV-I 242 W/m 2,5 C 15,3 C 6,4 km/h (2 Bft) 100,00 %
20.04.2016 18:13 15,3 C 42 % 1025,8 hPa 0,0 l/m 2,5 km/h (1 Bft) W 265 1 min 0,000 mm 0,0 UV-I 240 W/m 2,5 C 15,3 C 4,8 km/h (1 Bft) 95,65 %
20.04.2016 18:14 15,3 C 44 % 1025,9 hPa 0,0 l/m 3,9 km/h (1 Bft) NW 304 1 min 0,000 mm 0,0 UV-I 237 W/m 3,1 C 15,3 C 8,0 km/h (2 Bft) 88,89 %
20.04.2016 18:15 15,3 C 44 % 1025,9 hPa 0,0 l/m 3,1 km/h (1 Bft) W-NW 290 1 min 0,000 mm 0,0 UV-I 235 W/m 3,1 C 15,3 C 4,8 km/h (1 Bft) 100,00 %
20.04.2016 18:16 15,3 C 44 % 1025,8 hPa 0,0 l/m 1,5 km/h (1 Bft) NW 326 1 min 0,000 mm 0,0 UV-I 230 W/m 3,1 C 15,3 C 4,8 km/h (1 Bft) 95,83 %
20.04.2016 18:17 15,3 C 43 % 1025,8 hPa 0,0 l/m 2,1 km/h (1 Bft) W-NW 302 1 min 0,000 mm 0,0 UV-I 228 W/m 2,8 C 15,3 C 4,8 km/h (1 Bft) 100,00 %
20.04.2016 18:18 15,3 C 43 % 1025,8 hPa 0,0 l/m 2,2 km/h (1 Bft) W-SW 253 1 min 0,000 mm 0,0 UV-I 224 W/m 2,8 C 15,3 C 4,8 km/h (1 Bft) 95,83 %
20.04.2016 18:19 15,3 C 42 % 1025,8 hPa 0,0 l/m 5,9 km/h (2 Bft) W 273 1 min 0,000 mm 0,0 UV-I 222 W/m 2,5 C 15,3 C 11,3 km/h (2 Bft) 100,00 %
20.04.2016 18:20 15,3 C 41 % 1025,8 hPa 0,0 l/m 6,1 km/h (2 Bft) W-NW 302 1 min 0,000 mm 0,0 UV-I 220 W/m 2,1 C 15,3 C 9,7 km/h (2 Bft) 96,30 %
20.04.2016 18:21 15,3 C 40 % 1025,8 hPa 0,0 l/m 3,5 km/h (1 Bft) W-NW 290 1 min 0,000 mm 0,0 UV-I 217 W/m 1,8 C 15,3 C 6,4 km/h (2 Bft) 100,00 %
20.04.2016 18:22 15,3 C 43 % 1025,8 hPa 0,0 l/m 1,2 km/h (1 Bft) W-NW 291 1 min 0,000 mm 0,0 UV-I 215 W/m 2,8 C 15,3 C 1,6 km/h (1 Bft) 95,83 %
20.04.2016 18:23 15,3 C 44 % 1025,8 hPa 0,0 l/m 3,9 km/h (1 Bft) W-NW 292 1 min 0,000 mm 0,0 UV-I 209 W/m 3,1 C 15,3 C 6,4 km/h (2 Bft) 100,00 %
20.04.2016 18:24 15,3 C 42 % 1025,8 hPa 0,0 l/m 5,6 km/h (1 Bft) W-SW 252 1 min 0,000 mm 0,0 UV-I 205 W/m 2,5 C 15,3 C 11,3 km/h (2 Bft) 100,00 %
20.04.2016 18:25 15,3 C 41 % 1025,8 hPa 0,0 l/m 2,5 km/h (1 Bft) W-NW 295 1 min 0,000 mm 0,0 UV-I 202 W/m 2,1 C 15,3 C 6,4 km/h (2 Bft) 96,30 %
20.04.2016 18:26 15,3 C 41 % 1025,8 hPa 0,0 l/m 3,8 km/h (1 Bft) W-NW 295 1 min 0,000 mm 0,0 UV-I 199 W/m 2,1 C 15,3 C 6,4 km/h (2 Bft) 100,00 %
20.04.2016 18:27 15,3 C 41 % 1025,8 hPa 0,0 l/m 1,7 km/h (1 Bft) N-NW 342 1 min 0,000 mm 0,0 UV-I 196 W/m 2,1 C 15,3 C 4,8 km/h (1 Bft) 91,67 %
20.04.2016 18:28 15,3 C 42 % 1025,8 hPa 0,0 l/m 2,7 km/h (1 Bft) NW 305 1 min 0,000 mm 0,0 UV-I 193 W/m 2,5 C 15,3 C 4,8 km/h (1 Bft) 96,55 %
20.04.2016 18:29 15,3 C 42 % 1025,8 hPa 0,0 l/m 2,9 km/h (1 Bft) NW 324 1 min 0,000 mm 0,0 UV-I 189 W/m 2,5 C 15,3 C 4,8 km/h (1 Bft) 96,30 %
20.04.2016 18:30 15,3 C 41 % 1025,8 hPa 0,0 l/m 3,1 km/h (1 Bft) NW 306 1 min 0,000 mm 0,0 UV-I 187 W/m 2,1 C 15,3 C 4,8 km/h (1 Bft) 100,00 %
20.04.2016 18:31 15,3 C 44 % 1025,8 hPa 0,0 l/m 0,9 km/h (0 Bft) S 187 1 min 0,000 mm 0,0 UV-I 184 W/m 3,1 C 15,3 C 3,2 km/h (1 Bft) 91,67 %
20.04.2016 18:32 15,3 C 43 % 1025,8 hPa 0,0 l/m 6,2 km/h (2 Bft) N-NW 344 1 min 0,000 mm 0,0 UV-I 180 W/m 2,8 C 15,3 C 12,9 km/h (3 Bft) 100,00 %
20.04.2016 18:33 15,3 C 44 % 1025,8 hPa 0,0 l/m 1,6 km/h (1 Bft) NW 320 1 min 0,000 mm 0,0 UV-I 176 W/m 3,1 C 15,3 C 3,2 km/h (1 Bft) 100,00 %
20.04.2016 18:34 15,3 C 45 % 1025,8 hPa 0,0 l/m 3,9 km/h (1 Bft) W-NW 288 1 min 0,000 mm 0,0 UV-I 173 W/m 3,4 C 15,3 C 6,4 km/h (2 Bft) 100,00 %
20.04.2016 18:35 15,3 C 43 % 1025,8 hPa 0,0 l/m 3,6 km/h (1 Bft) NW 322 1 min 0,000 mm 0,0 UV-I 168 W/m 2,8 C 15,3 C 6,4 km/h (2 Bft) 100,00 %
20.04.2016 18:36 15,3 C 42 % 1025,8 hPa 0,0 l/m 3,4 km/h (1 Bft) NW 322 1 min 0,000 mm 0,0 UV-I 165 W/m 2,5 C 15,3 C 6,4 km/h (2 Bft) 100,00 %
20.04.2016 18:37 15,2 C 43 % 1025,7 hPa 0,0 l/m 1,3 km/h (1 Bft) NW 306 1 min 0,000 mm 0,0 UV-I 162 W/m 2,7 C 15,2 C 3,2 km/h (1 Bft) 100,00 %
20.04.2016 18:38 15,2 C 44 % 1025,7 hPa 0,0 l/m 2,4 km/h (1 Bft) W-NW 298 1 min 0,000 mm 0,0 UV-I 159 W/m 3,0 C 15,2 C 4,8 km/h (1 Bft) 91,30 %
20.04.2016 18:39 15,2 C 43 % 1025,7 hPa 0,0 l/m 1,7 km/h (1 Bft) W-NW 298 1 min 0,000 mm 0,0 UV-I 156 W/m 2,7 C 15,2 C 3,2 km/h (1 Bft) 96,30 %
20.04.2016 18:40 15,2 C 42 % 1025,7 hPa 0,0 l/m 1,3 km/h (1 Bft) W-NW 298 1 min 0,000 mm 0,0 UV-I 154 W/m 2,4 C 15,2 C 3,2 km/h (1 Bft) 100,00 %
20.04.2016 18:41 15,2 C 44 % 1025,7 hPa 0,0 l/m 2,3 km/h (1 Bft) W-NW 298 1 min 0,000 mm 0,0 UV-I 150 W/m 3,0 C 15,2 C 3,2 km/h (1 Bft) 100,00 %
20.04.2016 18:42 15,2 C 44 % 1025,7 hPa 0,0 l/m 2,6 km/h (1 Bft) W-NW 290 1 min 0,000 mm 0,0 UV-I 148 W/m 3,0 C 15,2 C 4,8 km/h (1 Bft) 100,00 %
20.04.2016 18:43 15,2 C 43 % 1025,7 hPa 0,0 l/m 2,2 km/h (1 Bft) W-NW 289 1 min 0,000 mm 0,0 UV-I 145 W/m 2,7 C 15,2 C 6,4 km/h (2 Bft) 100,00 %
20.04.2016 18:44 15,2 C 42 % 1025,7 hPa 0,0 l/m 1,8 km/h (1 Bft) W-NW 289 1 min 0,000 mm 0,0 UV-I 142 W/m 2,4 C 15,2 C 3,2 km/h (1 Bft) 100,00 %
20.04.2016 18:45 15,2 C 42 % 1025,6 hPa 0,0 l/m 2,4 km/h (1 Bft) W-NW 287 1 min 0,000 mm 0,0 UV-I 139 W/m 2,4 C 15,2 C 6,4 km/h (2 Bft) 95,65 %
20.04.2016 18:46 15,2 C 42 % 1025,6 hPa 0,0 l/m 1,8 km/h (1 Bft) W-NW 286 1 min 0,000 mm 0,0 UV-I 135 W/m 2,4 C 15,2 C 3,2 km/h (1 Bft) 100,00 %
20.04.2016 18:47 15,2 C 45 % 1025,6 hPa 0,0 l/m 1,7 km/h (1 Bft) W-NW 286 1 min 0,000 mm 0,0 UV-I 133 W/m 3,4 C 15,2 C 3,2 km/h (1 Bft) 96,15 %
20.04.2016 18:48 15,2 C 45 % 1025,6 hPa 0,0 l/m 0,6 km/h (0 Bft) W-NW 286 1 min 0,000 mm 0,0 UV-I 129 W/m 3,4 C 15,2 C 1,6 km/h (1 Bft) 100,00 %
20.04.2016 18:49 15,2 C 43 % 1025,7 hPa 0,0 l/m 3,2 km/h (1 Bft) NW 310 1 min 0,000 mm 0,0 UV-I 126 W/m 2,7 C 15,2 C 6,4 km/h (2 Bft) 92,31 %
20.04.2016 18:50 15,2 C 41 % 1025,6 hPa 0,0 l/m 2,3 km/h (1 Bft) W 264 1 min 0,000 mm 0,0 UV-I 123 W/m 2,0 C 15,2 C 3,2 km/h (1 Bft) 100,00 %
20.04.2016 18:51 15,2 C 43 % 1025,7 hPa 0,0 l/m 1,4 km/h (1 Bft) W 264 1 min 0,000 mm 0,0 UV-I 120 W/m 2,7 C 15,2 C 3,2 km/h (1 Bft) 100,00 %
20.04.2016 18:52 15,2 C 43 % 1025,6 hPa 0,0 l/m 2,0 km/h (1 Bft) W 267 1 min 0,000 mm 0,0 UV-I 117 W/m 2,7 C 15,2 C 4,8 km/h (1 Bft) 100,00 %
20.04.2016 18:53 15,1 C 43 % 1025,6 hPa 0,0 l/m 7,2 km/h (2 Bft) NW 325 1 min 0,000 mm 0,0 UV-I 108 W/m 2,6 C 14,6 C 11,3 km/h (2 Bft) 100,00 %
20.04.2016 18:54 15,1 C 40 % 1025,6 hPa 0,0 l/m 2,3 km/h (1 Bft) W-NW 293 1 min 0,000 mm 0,0 UV-I 112 W/m 1,6 C 15,1 C 4,8 km/h (1 Bft) 100,00 %
20.04.2016 18:55 15,1 C 42 % 1025,7 hPa 0,0 l/m 2,6 km/h (1 Bft) W-NW 289 1 min 0,000 mm 0,0 UV-I 109 W/m 2,3 C 15,1 C 4,8 km/h (1 Bft) 100,00 %
20.04.2016 18:56 15,1 C 42 % 1025,7 hPa 0,0 l/m 2,8 km/h (1 Bft) W-NW 292 1 min 0,000 mm 0,0 UV-I 106 W/m 2,3 C 15,1 C 4,8 km/h (1 Bft) 100,00 %
20.04.2016 18:57 15,1 C 43 % 1025,7 hPa 0,0 l/m 2,8 km/h (1 Bft) W-NW 291 1 min 0,000 mm 0,0 UV-I 102 W/m 2,6 C 15,1 C 4,8 km/h (1 Bft) 98,57 %
20.04.2016 18:58 15,1 C 43 % 1025,7 hPa 0,0 l/m 3,4 km/h (1 Bft) W-NW 294 1 min 0,000 mm 0,0 UV-I 99 W/m 2,6 C 15,1 C 6,4 km/h (2 Bft) 100,00 %
20.04.2016 18:59 15,1 C 42 % 1025,6 hPa 0,0 l/m 1,2 km/h (1 Bft) NW 315 1 min 0,000 mm 0,0 UV-I 96 W/m 2,3 C 15,1 C 4,8 km/h (1 Bft) 96,15 %
20.04.2016 19:00 15,1 C 41 % 1025,6 hPa 0,0 l/m 3,2 km/h (1 Bft) W-NW 297 1 min 0,000 mm 0,0 UV-I 93 W/m 2,0 C 15,1 C 8,0 km/h (2 Bft) 100,00 %
20.04.2016 19:01 15,0 C 39 % 1025,6 hPa 0,0 l/m 3,4 km/h (1 Bft) W-NW 289 1 min 0,127 mm 0,0 UV-I 90 W/m 1,2 C 15,0 C 9,7 km/h (2 Bft) 95,65 %
20.04.2016 19:02 15,0 C 40 % 1025,6 hPa 0,0 l/m 3,1 km/h (1 Bft) W 260 1 min 0,000 mm 0,0 UV-I 88 W/m 1,5 C 15,0 C 6,4 km/h (2 Bft) 100,00 %
20.04.2016 19:03 14,9 C 39 % 1025,6 hPa 0,0 l/m 5,7 km/h (1 Bft) W-NW 285 1 min 0,000 mm 0,0 UV-I 84 W/m 1,1 C 14,9 C 6,4 km/h (2 Bft) 100,00 %
20.04.2016 19:04 14,9 C 40 % 1025,5 hPa 0,0 l/m 1,3 km/h (1 Bft) W-NW 284 1 min 0,000 mm 0,0 UV-I 82 W/m 1,4 C 14,9 C 3,2 km/h (1 Bft) 100,00 %
20.04.2016 19:05 14,8 C 41 % 1025,6 hPa 0,0 l/m 3,0 km/h (1 Bft) W 266 1 min 0,000 mm 0,0 UV-I 80 W/m 1,7 C 14,8 C 3,2 km/h (1 Bft) 100,00 %
20.04.2016 19:06 14,8 C 42 % 1025,6 hPa 0,0 l/m 1,9 km/h (1 Bft) W 267 1 min 0,000 mm 0,0 UV-I 78 W/m 2,0 C 14,8 C 3,2 km/h (1 Bft) 100,00 %
20.04.2016 19:07 14,8 C 42 % 1025,6 hPa 0,0 l/m 2,3 km/h (1 Bft) W-NW 297 0 min 0,000 mm 0,0 UV-I 76 W/m 2,0 C 14,8 C 4,8 km/h (1 Bft) 100,00 %
20.04.2016 19:08 14,8 C 41 % 1025,6 hPa 0,0 l/m 1,7 km/h (1 Bft) W-NW 294 0 min 0,000 mm 0,0 UV-I 74 W/m 1,7 C 14,8 C 3,2 km/h (1 Bft) 100,00 %
20.04.2016 19:09 14,8 C 42 % 1025,5 hPa 0,0 l/m 0,7 km/h (0 Bft) W-NW 294 0 min 0,000 mm 0,0 UV-I 72 W/m 2,0 C 14,8 C 3,2 km/h (1 Bft) 100,00 %
20.04.2016 19:10 14,7 C 43 % 1025,6 hPa 0,0 l/m 2,8 km/h (1 Bft) W 270 0 min 0,000 mm 0,0 UV-I 68 W/m 2,3 C 14,7 C 6,4 km/h (2 Bft) 95,65 %
20.04.2016 19:11 14,7 C 42 % 1025,5 hPa 0,0 l/m 1,7 km/h (1 Bft) W-NW 285 0 min 0,000 mm 0,0 UV-I 66 W/m 1,9 C 14,7 C 3,2 km/h (1 Bft) 100,00 %
20.04.2016 19:12 14,7 C 43 % 1025,5 hPa 0,0 l/m 3,1 km/h (1 Bft) W-NW 297 0 min 0,000 mm 0,0 UV-I 64 W/m 2,3 C 14,7 C 6,4 km/h (2 Bft) 100,00 %
20.04.2016 19:13 14,7 C 41 % 1025,5 hPa 0,0 l/m 4,2 km/h (1 Bft) W 275 0 min 0,000 mm 0,0 UV-I 62 W/m 1,6 C 14,7 C 6,4 km/h (2 Bft) 100,00 %
20.04.2016 19:14 14,7 C 41 % 1025,5 hPa 0,0 l/m 1,6 km/h (1 Bft) W 275 0 min 0,000 mm 0,0 UV-I 60 W/m 1,6 C 14,7 C 3,2 km/h (1 Bft) 100,00 %
20.04.2016 19:15 14,6 C 42 % 1025,5 hPa 0,0 l/m 2,8 km/h (1 Bft) W-NW 288 0 min 0,000 mm 0,0 UV-I 58 W/m 1,8 C 14,6 C 6,4 km/h (2 Bft) 100,00 %
20.04.2016 19:16 14,6 C 42 % 1025,5 hPa 0,0 l/m 2,2 km/h (1 Bft) W-NW 288 0 min 0,000 mm 0,0 UV-I 55 W/m 1,8 C 14,6 C 4,8 km/h (1 Bft) 100,00 %
20.04.2016 19:17 14,6 C 42 % 1025,5 hPa 0,0 l/m 0,7 km/h (0 Bft) W-NW 290 0 min 0,000 mm 0,0 UV-I 54 W/m 1,8 C 14,6 C 1,6 km/h (1 Bft) 100,00 %
20.04.2016 19:18 14,6 C 42 % 1025,5 hPa 0,0 l/m 0,7 km/h (0 Bft) W-NW 290 0 min 0,000 mm 0,0 UV-I 52 W/m 1,8 C 14,6 C 1,6 km/h (1 Bft) 100,00 %
20.04.2016 19:19 14,6 C 42 % 1025,5 hPa 0,0 l/m 1,5 km/h (1 Bft) W-NW 290 0 min 0,000 mm 0,0 UV-I 50 W/m 1,8 C 14,6 C 3,2 km/h (1 Bft) 100,00 %
20.04.2016 19:20 14,5 C 43 % 1025,5 hPa 0,0 l/m 3,6 km/h (1 Bft) W-NW 282 0 min 0,000 mm 0,0 UV-I 47 W/m 2,1 C 14,5 C 4,8 km/h (1 Bft) 100,00 %
20.04.2016 19:21 14,5 C 43 % 1025,5 hPa 0,0 l/m 1,3 km/h (1 Bft) W-NW 282 0 min 0,000 mm 0,0 UV-I 46 W/m 2,1 C 14,5 C 3,2 km/h (1 Bft) 100,00 %
20.04.2016 19:22 14,4 C 43 % 1025,5 hPa 0,0 l/m 0,6 km/h (0 Bft) W-NW 282 0 min 0,000 mm 0,0 UV-I 43 W/m 2,0 C 14,4 C 3,2 km/h (1 Bft) 100,00 %
20.04.2016 19:23 14,4 C 43 % 1025,5 hPa 0,0 l/m 2,5 km/h (1 Bft) W 274 0 min 0,000 mm 0,0 UV-I 41 W/m 2,0 C 14,4 C 4,8 km/h (1 Bft) 100,00 %
20.04.2016 19:24 14,4 C 42 % 1025,5 hPa 0,0 l/m 4,9 km/h (1 Bft) W-NW 288 0 min 0,000 mm 0,0 UV-I 39 W/m 1,7 C 14,4 C 9,7 km/h (2 Bft) 95,83 %
20.04.2016 19:25 14,4 C 43 % 1025,5 hPa 0,0 l/m 2,8 km/h (1 Bft) W-NW 288 0 min 0,000 mm 0,0 UV-I 38 W/m 2,0 C 14,4 C 6,4 km/h (2 Bft) 100,00 %
20.04.2016 19:26 14,3 C 43 % 1025,5 hPa 0,0 l/m 1,5 km/h (1 Bft) W-NW 288 0 min 0,000 mm 0,0 UV-I 35 W/m 1,9 C 14,3 C 4,8 km/h (1 Bft) 96,30 %
20.04.2016 19:27 14,3 C 43 % 1025,5 hPa 0,0 l/m 0,3 km/h (0 Bft) W-NW 288 0 min 0,000 mm 0,0 UV-I 35 W/m 1,9 C 14,3 C 1,6 km/h (1 Bft) 100,00 %
20.04.2016 19:28 14,3 C 44 % 1025,6 hPa 0,0 l/m 1,7 km/h (1 Bft) W-NW 288 0 min 0,000 mm 0,0 UV-I 33 W/m 2,2 C 14,3 C 3,2 km/h (1 Bft) 96,30 %
20.04.2016 19:29 14,3 C 44 % 1025,6 hPa 0,0 l/m 0,8 km/h (0 Bft) W-NW 288 0 min 0,000 mm 0,0 UV-I 31 W/m 2,2 C 14,3 C 3,2 km/h (1 Bft) 100,00 %
20.04.2016 19:30 14,2 C 45 % 1025,6 hPa 0,0 l/m 1,0 km/h (0 Bft) W-NW 290 0 min 0,000 mm 0,0 UV-I 30 W/m 2,4 C 14,2 C 4,8 km/h (1 Bft) 100,00 %
20.04.2016 19:31 14,2 C 44 % 1025,5 hPa 0,0 l/m 2,5 km/h (1 Bft) W 275 0 min 0,000 mm 0,0 UV-I 28 W/m 2,1 C 14,2 C 4,8 km/h (1 Bft) 100,00 %
20.04.2016 19:32 14,2 C 44 % 1025,6 hPa 0,0 l/m 2,1 km/h (1 Bft) W-NW 290 0 min 0,000 mm 0,0 UV-I 26 W/m 2,1 C 14,2 C 4,8 km/h (1 Bft) 100,00 %
20.04.2016 19:33 14,1 C 44 % 1025,6 hPa 0,0 l/m 2,1 km/h (1 Bft) W-NW 283 0 min 0,000 mm 0,0 UV-I 26 W/m 2,0 C 14,1 C 3,2 km/h (1 Bft) 100,00 %
20.04.2016 19:34 14,1 C 43 % 1025,6 hPa 0,0 l/m 3,5 km/h (1 Bft) W 276 0 min 0,000 mm 0,0 UV-I 24 W/m 1,7 C 14,1 C 4,8 km/h (1 Bft) 100,00 %
20.04.2016 19:35 14,1 C 44 % 1025,6 hPa 0,0 l/m 3,3 km/h (1 Bft) W 269 0 min 0,000 mm 0,0 UV-I 23 W/m 2,0 C 14,1 C 6,4 km/h (2 Bft) 100,00 %
20.04.2016 19:36 14,0 C 44 % 1025,6 hPa 0,0 l/m 2,4 km/h (1 Bft) W 269 0 min 0,000 mm 0,0 UV-I 22 W/m 1,9 C 14,0 C 3,2 km/h (1 Bft) 100,00 %
20.04.2016 19:37 13,9 C 44 % 1025,6 hPa 0,0 l/m 2,1 km/h (1 Bft) W 269 0 min 0,000 mm 0,0 UV-I 21 W/m 1,9 C 13,9 C 3,2 km/h (1 Bft) 100,00 %
20.04.2016 19:38 13,9 C 44 % 1025,6 hPa 0,0 l/m 1,1 km/h (1 Bft) W 269 0 min 0,000 mm 0,0 UV-I 21 W/m 1,9 C 13,9 C 1,6 km/h (1 Bft) 100,00 %
20.04.2016 19:39 13,9 C 44 % 1025,6 hPa 0,0 l/m 1,3 km/h (1 Bft) W 269 0 min 0,000 mm 0,0 UV-I 19 W/m 1,9 C 13,9 C 3,2 km/h (1 Bft) 100,00 %
20.04.2016 19:40 13,9 C 44 % 1025,6 hPa 0,0 l/m 0,3 km/h (0 Bft) W 269 0 min 0,000 mm 0,0 UV-I 19 W/m 1,9 C 13,9 C 1,6 km/h (1 Bft) 100,00 %
20.04.2016 19:41 13,8 C 44 % 1025,6 hPa 0,0 l/m 1,2 km/h (1 Bft) W 269 0 min 0,000 mm 0,0 UV-I 18 W/m 1,8 C 13,8 C 3,2 km/h (1 Bft) 100,00 %
20.04.2016 19:42 13,8 C 45 % 1025,6 hPa 0,0 l/m 1,3 km/h (1 Bft) W 269 0 min 0,000 mm 0,0 UV-I 18 W/m 2,1 C 13,8 C 3,2 km/h (1 Bft) 100,00 %
20.04.2016 19:43 13,8 C 45 % 1025,6 hPa 0,0 l/m 0,5 km/h (0 Bft) W 269 0 min 0,000 mm 0,0 UV-I 18 W/m 2,1 C 13,8 C 1,6 km/h (1 Bft) 100,00 %
20.04.2016 19:44 13,7 C 45 % 1025,6 hPa 0,0 l/m 0,1 km/h (0 Bft) W 269 0 min 0,000 mm 0,0 UV-I 16 W/m 2,0 C 13,7 C 1,6 km/h (1 Bft) 100,00 %
20.04.2016 19:45 13,7 C 45 % 1025,6 hPa 0,0 l/m 0,1 km/h (0 Bft) W 269 0 min 0,000 mm 0,0 UV-I 16 W/m 2,0 C 13,7 C 1,6 km/h (1 Bft) 100,00 %
20.04.2016 19:46 13,7 C 45 % 1025,6 hPa 0,0 l/m 0,0 km/h (0 Bft) W 269 0 min 0,000 mm 0,0 UV-I 15 W/m 2,0 C 13,7 C 0,0 km/h (0 Bft) 100,00 %
20.04.2016 19:47 13,6 C 45 % 1025,6 hPa 0,0 l/m 0,2 km/h (0 Bft) W 269 0 min 0,000 mm 0,0 UV-I 14 W/m 1,9 C 13,6 C 1,6 km/h (1 Bft) 100,00 %
20.04.2016 19:48 13,6 C 45 % 1025,6 hPa 0,0 l/m 0,5 km/h (0 Bft) W 269 1 min 0,000 mm 0,0 UV-I 14 W/m 1,9 C 13,6 C 1,6 km/h (1 Bft) 96,15 %
20.04.2016 19:49 13,6 C 45 % 1025,6 hPa 0,0 l/m 0,3 km/h (0 Bft) W 269 1 min 0,000 mm 0,0 UV-I 14 W/m 1,9 C 13,6 C 1,6 km/h (1 Bft) 100,00 %
20.04.2016 19:50 13,6 C 45 % 1025,6 hPa 0,0 l/m 0,0 km/h (0 Bft) W 269 1 min 0,000 mm 0,0 UV-I 12 W/m 1,9 C 13,6 C 0,0 km/h (0 Bft) 100,00 %
20.04.2016 19:51 13,5 C 45 % 1025,6 hPa 0,0 l/m 0,0 km/h (0 Bft) W 269 1 min 0,000 mm 0,0 UV-I 12 W/m 1,8 C 13,5 C 0,0 km/h (0 Bft) 100,00 %
20.04.2016 19:52 13,4 C 46 % 1025,6 hPa 0,0 l/m 0,1 km/h (0 Bft) W 269 0 min 0,000 mm 0,0 UV-I 12 W/m 2,0 C 13,4 C 1,6 km/h (1 Bft) 100,00 %
20.04.2016 19:53 13,4 C 46 % 1025,6 hPa 0,0 l/m 0,1 km/h (0 Bft) W 269 0 min 0,000 mm 0,0 UV-I 11 W/m 2,0 C 13,4 C 1,6 km/h (1 Bft) 100,00 %
20.04.2016 19:54 13,4 C 46 % 1025,6 hPa 0,0 l/m 0,4 km/h (0 Bft) W 269 0 min 0,000 mm 0,0 UV-I 11 W/m 2,0 C 13,4 C 1,6 km/h (1 Bft) 100,00 %
20.04.2016 19:55 13,3 C 47 % 1025,6 hPa 0,0 l/m 0,0 km/h (0 Bft) W 269 0 min 0,000 mm 0,0 UV-I 11 W/m 2,2 C 13,3 C 0,0 km/h (0 Bft) 100,00 %
20.04.2016 19:56 13,3 C 46 % 1025,7 hPa 0,0 l/m 0,0 km/h (0 Bft) W 269 0 min 0,000 mm 0,0 UV-I 9 W/m 1,9 C 13,3 C 0,0 km/h (0 Bft) 100,00 %
20.04.2016 19:57 13,3 C 46 % 1025,7 hPa 0,0 l/m 0,0 km/h (0 Bft) W 269 0 min 0,000 mm 0,0 UV-I 9 W/m 1,9 C 13,3 C 0,0 km/h (0 Bft) 95,83 %
20.04.2016 19:58 13,2 C 46 % 1025,6 hPa 0,0 l/m 0,3 km/h (0 Bft) W 269 0 min 0,000 mm 0,0 UV-I 9 W/m 1,8 C 13,2 C 1,6 km/h (1 Bft) 100,00 %
20.04.2016 19:59 13,2 C 46 % 1025,7 hPa 0,0 l/m 0,3 km/h (0 Bft) W 269 0 min 0,000 mm 0,0 UV-I 8 W/m 1,8 C 13,2 C 1,6 km/h (1 Bft) 100,00 %
20.04.2016 20:00 13,2 C 46 % 1025,7 hPa 0,0 l/m 0,5 km/h (0 Bft) W 269 0 min 0,000 mm 0,0 UV-I 7 W/m 1,8 C 13,2 C 1,6 km/h (1 Bft) 100,00 %
20.04.2016 20:01 13,1 C 47 % 1025,6 hPa 0,0 l/m 0,6 km/h (0 Bft) W 269 0 min 0,051 mm 0,0 UV-I 7 W/m 2,0 C 13,1 C 1,6 km/h (1 Bft) 100,00 %
20.04.2016 20:02 13,1 C 47 % 1025,6 hPa 0,0 l/m 1,2 km/h (1 Bft) W 269 0 min 0,000 mm 0,0 UV-I 7 W/m 2,0 C 13,1 C 3,2 km/h (1 Bft) 100,00 %
20.04.2016 20:03 13,0 C 46 % 1025,6 hPa 0,0 l/m 1,3 km/h (1 Bft) W 269 0 min 0,000 mm 0,0 UV-I 5 W/m 1,7 C 13,0 C 3,2 km/h (1 Bft) 100,00 %
20.04.2016 20:04 12,9 C 47 % 1025,7 hPa 0,0 l/m 1,5 km/h (1 Bft) W 269 0 min 0,000 mm 0,0 UV-I 5 W/m 1,9 C 12,9 C 3,2 km/h (1 Bft) 100,00 %
20.04.2016 20:05 12,9 C 47 % 1025,7 hPa 0,0 l/m 0,0 km/h (0 Bft) W 269 0 min 0,000 mm 0,0 UV-I 5 W/m 1,9 C 12,9 C 0,0 km/h (0 Bft) 96,15 %
20.04.2016 20:06 12,8 C 47 % 1025,7 hPa 0,0 l/m 0,6 km/h (0 Bft) W 269 0 min 0,000 mm 0,0 UV-I 5 W/m 1,8 C 12,8 C 1,6 km/h (1 Bft) 95,83 %
20.04.2016 20:07 12,8 C 47 % 1025,7 hPa 0,0 l/m 0,7 km/h (0 Bft) W 269 0 min 0,000 mm 0,0 UV-I 5 W/m 1,8 C 12,8 C 1,6 km/h (1 Bft) 98,63 %
20.04.2016 20:08 12,8 C 48 % 1025,7 hPa 0,0 l/m 0,7 km/h (0 Bft) W 269 0 min 0,000 mm 0,0 UV-I 4 W/m 2,1 C 12,8 C 1,6 km/h (1 Bft) 95,00 %
20.04.2016 20:09 12,7 C 49 % 1025,7 hPa 0,0 l/m 1,4 km/h (1 Bft) W 269 0 min 0,000 mm 0,0 UV-I 0 W/m 2,3 C 12,7 C 3,2 km/h (1 Bft) 92,31 %
20.04.2016 20:10 12,7 C 50 % 1025,7 hPa 0,0 l/m 0,6 km/h (0 Bft) W 269 0 min 0,000 mm 0,0 UV-I 0 W/m 2,6 C 12,7 C 1,6 km/h (1 Bft) 96,30 %
20.04.2016 20:11 12,6 C 51 % 1025,7 hPa 0,0 l/m 1,0 km/h (0 Bft) W 269 0 min 0,000 mm 0,0 UV-I 0 W/m 2,7 C 12,6 C 1,6 km/h (1 Bft) 96,15 %
20.04.2016 20:12 12,6 C 51 % 1025,7 hPa 0,0 l/m 0,7 km/h (0 Bft) W 269 0 min 0,000 mm 0,0 UV-I 0 W/m 2,7 C 12,6 C 1,6 km/h (1 Bft) 100,00 %
20.04.2016 20:13 12,5 C 51 % 1025,7 hPa 0,0 l/m 1,6 km/h (1 Bft) W 269 0 min 0,000 mm 0,0 UV-I 0 W/m 2,6 C 12,5 C 3,2 km/h (1 Bft) 95,65 %
20.04.2016 20:14 12,4 C 51 % 1025,7 hPa 0,0 l/m 1,7 km/h (1 Bft) W 269 0 min 0,000 mm 0,0 UV-I 0 W/m 2,6 C 12,4 C 3,2 km/h (1 Bft) 100,00 %
20.04.2016 20:15 12,4 C 50 % 1025,7 hPa 0,0 l/m 2,1 km/h (1 Bft) W 269 0 min 0,000 mm 0,0 UV-I 0 W/m 2,3 C 12,4 C 3,2 km/h (1 Bft) 95,65 %
20.04.2016 20:16 12,3 C 51 % 1025,7 hPa 0,0 l/m 1,8 km/h (1 Bft) W 269 0 min 0,000 mm 0,0 UV-I 0 W/m 2,5 C 12,3 C 3,2 km/h (1 Bft) 100,00 %
20.04.2016 20:17 12,3 C 52 % 1025,7 hPa 0,0 l/m 1,3 km/h (1 Bft) W 269 0 min 0,000 mm 0,0 UV-I 0 W/m 2,7 C 12,3 C 3,2 km/h (1 Bft) 92,31 %
20.04.2016 20:18 12,2 C 53 % 1025,7 hPa 0,0 l/m 1,4 km/h (1 Bft) W 269 0 min 0,000 mm 0,0 UV-I 0 W/m 2,9 C 12,2 C 3,2 km/h (1 Bft) 95,83 %
20.04.2016 20:19 12,2 C 53 % 1025,8 hPa 0,0 l/m 1,8 km/h (1 Bft) W 269 0 min 0,000 mm 0,0 UV-I 0 W/m 2,9 C 12,2 C 3,2 km/h (1 Bft) 100,00 %
20.04.2016 20:20 12,1 C 53 % 1025,7 hPa 0,0 l/m 2,0 km/h (1 Bft) W 269 0 min 0,000 mm 0,0 UV-I 0 W/m 2,8 C 12,1 C 3,2 km/h (1 Bft) 93,33 %
20.04.2016 20:21 12,1 C 53 % 1025,7 hPa 0,0 l/m 1,0 km/h (0 Bft) W 269 0 min 0,000 mm 0,0 UV-I 0 W/m 2,8 C 12,1 C 1,6 km/h (1 Bft) 100,00 %
20.04.2016 20:22 12,1 C 54 % 1025,7 hPa 0,0 l/m 0,5 km/h (0 Bft) W 269 0 min 0,000 mm 0,0 UV-I 0 W/m 3,1 C 12,1 C 1,6 km/h (1 Bft) 96,15 %
20.04.2016 20:23 12,0 C 55 % 1025,7 hPa 0,0 l/m 0,2 km/h (0 Bft) W 269 0 min 0,000 mm 0,0 UV-I 0 W/m 3,2 C 12,0 C 1,6 km/h (1 Bft) 100,00 %
20.04.2016 20:24 11,9 C 55 % 1025,8 hPa 0,0 l/m 0,3 km/h (0 Bft) W 269 0 min 0,000 mm 0,0 UV-I 0 W/m 3,2 C 11,9 C 1,6 km/h (1 Bft) 92,31 %
20.04.2016 20:25 11,9 C 54 % 1025,7 hPa 0,0 l/m 0,0 km/h (0 Bft) W 269 0 min 0,000 mm 0,0 UV-I 0 W/m 2,9 C 11,9 C 0,0 km/h (0 Bft) 100,00 %
20.04.2016 20:26 11,8 C 54 % 1025,8 hPa 0,0 l/m 0,1 km/h (0 Bft) W 269 0 min 0,000 mm 0,0 UV-I 0 W/m 2,8 C 11,8 C 1,6 km/h (1 Bft) 96,15 %
20.04.2016 20:27 11,8 C 54 % 1025,7 hPa 0,0 l/m 1,2 km/h (1 Bft) W 269 0 min 0,000 mm 0,0 UV-I 0 W/m 2,8 C 11,8 C 1,6 km/h (1 Bft) 100,00 %
20.04.2016 20:28 11,8 C 55 % 1025,7 hPa 0,0 l/m 0,9 km/h (0 Bft) W 269 0 min 0,000 mm 0,0 UV-I 0 W/m 3,1 C 11,8 C 1,6 km/h (1 Bft) 93,10 %
20.04.2016 20:29 11,7 C 55 % 1025,7 hPa 0,0 l/m 0,7 km/h (0 Bft) W 269 0 min 0,000 mm 0,0 UV-I 0 W/m 3,0 C 11,7 C 1,6 km/h (1 Bft) 95,83 %
20.04.2016 20:30 11,7 C 55 % 1025,7 hPa 0,0 l/m 1,0 km/h (0 Bft) W 269 0 min 0,000 mm 0,0 UV-I 0 W/m 3,0 C 11,7 C 1,6 km/h (1 Bft) 96,15 %
20.04.2016 20:31 11,7 C 56 % 1025,8 hPa 0,0 l/m 1,3 km/h (1 Bft) W 269 0 min 0,000 mm 0,0 UV-I 0 W/m 3,2 C 11,7 C 1,6 km/h (1 Bft) 95,83 %
20.04.2016 20:32 11,6 C 56 % 1025,8 hPa 0,0 l/m 0,6 km/h (0 Bft) W 269 0 min 0,000 mm 0,0 UV-I 0 W/m 3,1 C 11,6 C 1,6 km/h (1 Bft) 96,15 %
20.04.2016 20:33 11,5 C 58 % 1025,8 hPa 0,0 l/m 0,0 km/h (0 Bft) W 269 0 min 0,000 mm 0,0 UV-I 0 W/m 3,5 C 11,5 C 0,0 km/h (0 Bft) 95,83 %
20.04.2016 20:34 11,4 C 59 % 1025,7 hPa 0,0 l/m 0,6 km/h (0 Bft) W 269 0 min 0,000 mm 0,0 UV-I 0 W/m 3,7 C 11,4 C 1,6 km/h (1 Bft) 91,30 %
20.04.2016 20:35 11,3 C 60 % 1025,8 hPa 0,0 l/m 0,8 km/h (0 Bft) W 269 0 min 0,000 mm 0,0 UV-I 0 W/m 3,8 C 11,3 C 1,6 km/h (1 Bft) 96,30 %
20.04.2016 20:36 11,2 C 60 % 1025,7 hPa 0,0 l/m 0,3 km/h (0 Bft) W 269 0 min 0,000 mm 0,0 UV-I 0 W/m 3,7 C 11,2 C 1,6 km/h (1 Bft) 95,65 %
20.04.2016 20:37 11,1 C 61 % 1025,7 hPa 0,0 l/m 0,0 km/h (0 Bft) W 269 0 min 0,000 mm 0,0 UV-I 0 W/m 3,9 C 11,1 C 0,0 km/h (0 Bft) 98,56 %
20.04.2016 20:38 10,9 C 61 % 1025,7 hPa 0,0 l/m 0,2 km/h (0 Bft) W 269 0 min 0,000 mm 0,0 UV-I 0 W/m 3,7 C 10,9 C 1,6 km/h (1 Bft) 94,87 %
20.04.2016 20:39 10,8 C 62 % 1025,8 hPa 0,0 l/m 0,2 km/h (0 Bft) W 269 0 min 0,000 mm 0,0 UV-I 0 W/m 3,8 C 10,8 C 1,6 km/h (1 Bft) 100,00 %
20.04.2016 20:40 10,8 C 63 % 1025,8 hPa 0,0 l/m 0,7 km/h (0 Bft) W 269 0 min 0,000 mm 0,0 UV-I 0 W/m 4,0 C 10,8 C 3,2 km/h (1 Bft) 92,31 %
20.04.2016 20:41 10,7 C 63 % 1025,8 hPa 0,0 l/m 1,2 km/h (1 Bft) W 269 0 min 0,000 mm 0,0 UV-I 0 W/m 3,9 C 10,7 C 1,6 km/h (1 Bft) 100,00 %
20.04.2016 20:42 10,6 C 63 % 1025,8 hPa 0,0 l/m 1,6 km/h (1 Bft) W 269 0 min 0,000 mm 0,0 UV-I 0 W/m 3,9 C 10,6 C 3,2 km/h (1 Bft) 93,33 %
20.04.2016 20:43 10,5 C 64 % 1025,8 hPa 0,0 l/m 1,4 km/h (1 Bft) W 269 0 min 0,000 mm 0,0 UV-I 0 W/m 4,0 C 10,5 C 3,2 km/h (1 Bft) 96,55 %
20.04.2016 20:44 10,3 C 62 % 1025,8 hPa 0,0 l/m 1,4 km/h (1 Bft) W 269 0 min 0,000 mm 0,0 UV-I 0 W/m 3,3 C 10,3 C 1,6 km/h (1 Bft) 100,00 %
20.04.2016 20:45 10,3 C 62 % 1025,8 hPa 0,0 l/m 1,7 km/h (1 Bft) W 269 0 min 0,000 mm 0,0 UV-I 0 W/m 3,3 C 10,3 C 3,2 km/h (1 Bft) 100,00 %
20.04.2016 20:46 10,2 C 61 % 1025,9 hPa 0,0 l/m 1,5 km/h (1 Bft) W 269 0 min 0,000 mm 0,0 UV-I 0 W/m 3,0 C 10,2 C 3,2 km/h (1 Bft) 100,00 %
20.04.2016 20:47 10,1 C 61 % 1025,9 hPa 0,0 l/m 1,1 km/h (1 Bft) W 269 0 min 0,000 mm 0,0 UV-I 0 W/m 2,9 C 10,1 C 1,6 km/h (1 Bft) 100,00 %
20.04.2016 20:48 10,0 C 62 % 1025,9 hPa 0,0 l/m 1,0 km/h (0 Bft) W 269 0 min 0,000 mm 0,0 UV-I 0 W/m 3,1 C 10,0 C 3,2 km/h (1 Bft) 100,00 %
20.04.2016 20:49 9,9 C 61 % 1025,9 hPa 0,0 l/m 0,9 km/h (0 Bft) W 269 0 min 0,000 mm 0,0 UV-I 0 W/m 2,7 C 9,9 C 1,6 km/h (1 Bft) 100,00 %
20.04.2016 20:50 9,8 C 61 % 1025,9 hPa 0,0 l/m 0,5 km/h (0 Bft) W 269 0 min 0,000 mm 0,0 UV-I 0 W/m 2,6 C 9,8 C 1,6 km/h (1 Bft) 100,00 %
20.04.2016 20:51 9,7 C 62 % 1025,9 hPa 0,0 l/m 0,3 km/h (0 Bft) W 269 0 min 0,000 mm 0,0 UV-I 0 W/m 2,8 C 9,7 C 1,6 km/h (1 Bft) 100,00 %
20.04.2016 20:52 9,7 C 61 % 1025,9 hPa 0,0 l/m 0,6 km/h (0 Bft) W 269 0 min 0,000 mm 0,0 UV-I 0 W/m 2,5 C 9,7 C 1,6 km/h (1 Bft) 100,00 %
20.04.2016 20:53 9,6 C 62 % 1025,9 hPa 0,0 l/m 0,6 km/h (0 Bft) W 269 0 min 0,000 mm 0,0 UV-I 0 W/m 2,7 C 9,6 C 1,6 km/h (1 Bft) 96,15 %
20.04.2016 20:54 9,5 C 63 % 1025,9 hPa 0,0 l/m 0,5 km/h (0 Bft) W 269 0 min 0,000 mm 0,0 UV-I 0 W/m 2,8 C 9,5 C 1,6 km/h (1 Bft) 100,00 %
20.04.2016 20:55 9,4 C 63 % 1025,9 hPa 0,0 l/m 0,0 km/h (0 Bft) W 269 0 min 0,000 mm 0,0 UV-I 0 W/m 2,7 C 9,4 C 0,0 km/h (0 Bft) 100,00 %
20.04.2016 20:56 9,3 C 64 % 1025,9 hPa 0,0 l/m 0,1 km/h (0 Bft) W 269 0 min 0,000 mm 0,0 UV-I 0 W/m 2,8 C 9,3 C 1,6 km/h (1 Bft) 100,00 %
20.04.2016 20:57 9,3 C 65 % 1025,9 hPa 0,0 l/m 0,1 km/h (0 Bft) W 269 0 min 0,000 mm 0,0 UV-I 0 W/m 3,1 C 9,3 C 1,6 km/h (1 Bft) 100,00 %
20.04.2016 20:58 9,2 C 64 % 1025,9 hPa 0,0 l/m 0,1 km/h (0 Bft) W 269 0 min 0,000 mm 0,0 UV-I 0 W/m 2,8 C 9,2 C 1,6 km/h (1 Bft) 100,00 %
20.04.2016 20:59 9,2 C 63 % 1025,9 hPa 0,0 l/m 0,8 km/h (0 Bft) W 269 0 min 0,000 mm 0,0 UV-I 0 W/m 2,5 C 9,2 C 3,2 km/h (1 Bft) 100,00 %
20.04.2016 21:00 9,1 C 64 % 1026,0 hPa 0,0 l/m 0,3 km/h (0 Bft) W 269 0 min 0,000 mm 0,0 UV-I 0 W/m 2,7 C 9,1 C 1,6 km/h (1 Bft) 100,00 %
20.04.2016 21:01 9,1 C 64 % 1026,0 hPa 0,0 l/m 1,4 km/h (1 Bft) W 269 0 min 0,025 mm 0,0 UV-I 0 W/m 2,7 C 9,1 C 1,6 km/h (1 Bft) 100,00 %
20.04.2016 21:02 9,0 C 64 % 1026,0 hPa 0,0 l/m 1,1 km/h (1 Bft) W-SW 247 0 min 0,000 mm 0,0 UV-I 0 W/m 2,6 C 9,0 C 1,6 km/h (1 Bft) 100,00 %
20.04.2016 21:03 8,9 C 63 % 1026,0 hPa 0,0 l/m 1,3 km/h (1 Bft) SW 217 0 min 0,000 mm 0,0 UV-I 0 W/m 2,2 C 8,9 C 3,2 km/h (1 Bft) 100,00 %
20.04.2016 21:04 8,9 C 64 % 1026,0 hPa 0,0 l/m 0,5 km/h (0 Bft) SW 217 0 min 0,000 mm 0,0 UV-I 0 W/m 2,5 C 8,9 C 1,6 km/h (1 Bft) 100,00 %
20.04.2016 21:05 8,9 C 65 % 1026,0 hPa 0,0 l/m 0,6 km/h (0 Bft) SW 217 0 min 0,000 mm 0,0 UV-I 0 W/m 2,7 C 8,9 C 1,6 km/h (1 Bft) 100,00 %
20.04.2016 21:06 8,8 C 65 % 1026,0 hPa 0,0 l/m 1,3 km/h (1 Bft) SW 217 0 min 0,000 mm 0,0 UV-I 0 W/m 2,6 C 8,8 C 3,2 km/h (1 Bft) 100,00 %
20.04.2016 21:07 8,8 C 63 % 1026,1 hPa 0,0 l/m 1,3 km/h (1 Bft) S-SW 209 0 min 0,000 mm 0,0 UV-I 0 W/m 2,2 C 8,8 C 1,6 km/h (1 Bft) 100,00 %
20.04.2016 21:08 8,8 C 62 % 1026,1 hPa 0,0 l/m 1,0 km/h (0 Bft) S-SW 209 0 min 0,000 mm 0,0 UV-I 0 W/m 1,9 C 8,8 C 1,6 km/h (1 Bft) 100,00 %
20.04.2016 21:09 8,8 C 63 % 1026,1 hPa 0,0 l/m 1,0 km/h (0 Bft) S-SW 209 0 min 0,000 mm 0,0 UV-I 0 W/m 2,2 C 8,8 C 1,6 km/h (1 Bft) 100,00 %
20.04.2016 21:10 8,8 C 64 % 1026,1 hPa 0,0 l/m 1,3 km/h (1 Bft) S-SW 209 0 min 0,000 mm 0,0 UV-I 0 W/m 2,4 C 8,8 C 1,6 km/h (1 Bft) 100,00 %
20.04.2016 21:11 8,7 C 63 % 1026,1 hPa 0,0 l/m 0,9 km/h (0 Bft) S-SW 209 0 min 0,000 mm 0,0 UV-I 0 W/m 2,1 C 8,7 C 1,6 km/h (1 Bft) 100,00 %
20.04.2016 21:12 8,7 C 64 % 1026,1 hPa 0,0 l/m 0,2 km/h (0 Bft) S-SW 209 0 min 0,000 mm 0,0 UV-I 0 W/m 2,3 C 8,7 C 1,6 km/h (1 Bft) 100,00 %
20.04.2016 21:13 8,7 C 65 % 1026,1 hPa 0,0 l/m 0,7 km/h (0 Bft) S-SW 209 0 min 0,000 mm 0,0 UV-I 0 W/m 2,5 C 8,7 C 3,2 km/h (1 Bft) 100,00 %
20.04.2016 21:14 8,7 C 65 % 1026,1 hPa 0,0 l/m 1,5 km/h (1 Bft) S-SW 209 0 min 0,000 mm 0,0 UV-I 0 W/m 2,5 C 8,7 C 3,2 km/h (1 Bft) 100,00 %
20.04.2016 21:15 8,6 C 64 % 1026,1 hPa 0,0 l/m 0,8 km/h (0 Bft) S-SW 209 0 min 0,000 mm 0,0 UV-I 0 W/m 2,2 C 8,6 C 1,6 km/h (1 Bft) 100,00 %
20.04.2016 21:16 8,6 C 64 % 1026,1 hPa 0,0 l/m 1,0 km/h (0 Bft) S-SW 209 0 min 0,000 mm 0,0 UV-I 0 W/m 2,2 C 8,6 C 3,2 km/h (1 Bft) 100,00 %
20.04.2016 21:17 8,6 C 64 % 1026,1 hPa 0,0 l/m 0,2 km/h (0 Bft) S-SW 209 0 min 0,000 mm 0,0 UV-I 0 W/m 2,2 C 8,6 C 1,6 km/h (1 Bft) 100,00 %
20.04.2016 21:18 8,6 C 64 % 1026,1 hPa 0,0 l/m 0,6 km/h (0 Bft) S-SW 209 0 min 0,000 mm 0,0 UV-I 0 W/m 2,2 C 8,6 C 1,6 km/h (1 Bft) 100,00 %
20.04.2016 21:19 8,6 C 66 % 1026,1 hPa 0,0 l/m 1,0 km/h (0 Bft) S-SW 209 0 min 0,000 mm 0,0 UV-I 0 W/m 2,6 C 8,6 C 1,6 km/h (1 Bft) 100,00 %
20.04.2016 21:20 8,5 C 67 % 1026,2 hPa 0,0 l/m 1,1 km/h (1 Bft) S-SW 209 0 min 0,000 mm 0,0 UV-I 0 W/m 2,7 C 8,5 C 1,6 km/h (1 Bft) 100,00 %
20.04.2016 21:21 8,5 C 68 % 1026,2 hPa 0,0 l/m 1,0 km/h (0 Bft) S-SW 209 0 min 0,000 mm 0,0 UV-I 0 W/m 2,9 C 8,5 C 1,6 km/h (1 Bft) 100,00 %
20.04.2016 21:22 8,4 C 68 % 1026,2 hPa 0,0 l/m 1,0 km/h (0 Bft) S-SW 209 0 min 0,000 mm 0,0 UV-I 0 W/m 2,8 C 8,4 C 1,6 km/h (1 Bft) 100,00 %
20.04.2016 21:23 8,4 C 68 % 1026,1 hPa 0,0 l/m 0,9 km/h (0 Bft) S-SW 209 0 min 0,000 mm 0,0 UV-I 0 W/m 2,8 C 8,4 C 1,6 km/h (1 Bft) 95,65 %
20.04.2016 21:24 8,3 C 69 % 1026,2 hPa 0,0 l/m 1,0 km/h (0 Bft) S-SW 209 0 min 0,000 mm 0,0 UV-I 0 W/m 3,0 C 8,3 C 1,6 km/h (1 Bft) 100,00 %
20.04.2016 21:25 8,3 C 69 % 1026,2 hPa 0,0 l/m 0,8 km/h (0 Bft) S-SW 209 0 min 0,000 mm 0,0 UV-I 0 W/m 3,0 C 8,3 C 1,6 km/h (1 Bft) 100,00 %
20.04.2016 21:26 8,3 C 69 % 1026,2 hPa 0,0 l/m 0,7 km/h (0 Bft) S-SW 209 0 min 0,000 mm 0,0 UV-I 0 W/m 3,0 C 8,3 C 1,6 km/h (1 Bft) 100,00 %
20.04.2016 21:27 8,2 C 69 % 1026,2 hPa 0,0 l/m 0,0 km/h (0 Bft) S-SW 209 0 min 0,000 mm 0,0 UV-I 0 W/m 2,9 C 8,2 C 0,0 km/h (0 Bft) 96,15 %
20.04.2016 21:28 8,2 C 70 % 1026,2 hPa 0,0 l/m 0,1 km/h (0 Bft) S-SW 209 0 min 0,000 mm 0,0 UV-I 0 W/m 3,1 C 8,2 C 1,6 km/h (1 Bft) 100,00 %
20.04.2016 21:29 8,1 C 70 % 1026,2 hPa 0,0 l/m 0,1 km/h (0 Bft) S-SW 209 0 min 0,000 mm 0,0 UV-I 0 W/m 3,0 C 8,1 C 1,6 km/h (1 Bft) 95,65 %
20.04.2016 21:30 8,1 C 71 % 1026,2 hPa 0,0 l/m 0,1 km/h (0 Bft) S-SW 209 0 min 0,000 mm 0,0 UV-I 0 W/m 3,2 C 8,1 C 1,6 km/h (1 Bft) 100,00 %
20.04.2016 21:31 8,0 C 71 % 1026,2 hPa 0,0 l/m 0,0 km/h (0 Bft) S-SW 209 0 min 0,000 mm 0,0 UV-I 0 W/m 3,1 C 8,0 C 0,0 km/h (0 Bft) 100,00 %
20.04.2016 21:32 8,0 C 71 % 1026,2 hPa 0,0 l/m 0,0 km/h (0 Bft) S-SW 209 0 min 0,000 mm 0,0 UV-I 0 W/m 3,1 C 8,0 C 0,0 km/h (0 Bft) 100,00 %
20.04.2016 21:33 7,9 C 71 % 1026,2 hPa 0,0 l/m 0,6 km/h (0 Bft) S-SW 209 0 min 0,000 mm 0,0 UV-I 0 W/m 3,0 C 7,9 C 1,6 km/h (1 Bft) 95,65 %
20.04.2016 21:34 7,9 C 70 % 1026,2 hPa 0,0 l/m 0,5 km/h (0 Bft) S-SW 209 0 min 0,000 mm 0,0 UV-I 0 W/m 2,8 C 7,9 C 1,6 km/h (1 Bft) 100,00 %
20.04.2016 21:35 7,9 C 70 % 1026,2 hPa 0,0 l/m 0,7 km/h (0 Bft) S-SW 209 0 min 0,000 mm 0,0 UV-I 0 W/m 2,8 C 7,9 C 1,6 km/h (1 Bft) 95,65 %
20.04.2016 21:36 7,9 C 70 % 1026,2 hPa 0,0 l/m 1,3 km/h (1 Bft) S-SW 209 0 min 0,000 mm 0,0 UV-I 0 W/m 2,8 C 7,9 C 1,6 km/h (1 Bft) 100,00 %
20.04.2016 21:37 7,9 C 70 % 1026,2 hPa 0,0 l/m 1,8 km/h (1 Bft) S-SW 209 0 min 0,000 mm 0,0 UV-I 0 W/m 2,8 C 7,9 C 3,2 km/h (1 Bft) 100,00 %
20.04.2016 21:38 7,8 C 70 % 1026,2 hPa 0,0 l/m 2,2 km/h (1 Bft) S-SW 209 0 min 0,000 mm 0,0 UV-I 0 W/m 2,7 C 7,8 C 3,2 km/h (1 Bft) 100,00 %
20.04.2016 21:39 7,8 C 70 % 1026,2 hPa 0,0 l/m 1,5 km/h (1 Bft) S-SW 209 0 min 0,000 mm 0,0 UV-I 0 W/m 2,7 C 7,8 C 1,6 km/h (1 Bft) 100,00 %
20.04.2016 21:40 7,7 C 70 % 1026,2 hPa 0,0 l/m 1,9 km/h (1 Bft) S-SW 209 0 min 0,000 mm 0,0 UV-I 0 W/m 2,6 C 7,7 C 3,2 km/h (1 Bft) 100,00 %
20.04.2016 21:41 7,6 C 70 % 1026,2 hPa 0,0 l/m 1,4 km/h (1 Bft) S-SW 209 0 min 0,000 mm 0,0 UV-I 0 W/m 2,5 C 7,6 C 1,6 km/h (1 Bft) 100,00 %
20.04.2016 21:42 7,6 C 70 % 1026,2 hPa 0,0 l/m 1,1 km/h (1 Bft) S-SW 209 0 min 0,000 mm 0,0 UV-I 0 W/m 2,5 C 7,6 C 1,6 km/h (1 Bft) 100,00 %
20.04.2016 21:43 7,6 C 70 % 1026,2 hPa 0,0 l/m 0,7 km/h (0 Bft) S-SW 209 0 min 0,000 mm 0,0 UV-I 0 W/m 2,5 C 7,6 C 1,6 km/h (1 Bft) 100,00 %
20.04.2016 21:44 7,6 C 70 % 1026,2 hPa 0,0 l/m 0,7 km/h (0 Bft) S-SW 209 0 min 0,000 mm 0,0 UV-I 0 W/m 2,5 C 7,6 C 1,6 km/h (1 Bft) 100,00 %
20.04.2016 21:45 7,6 C 70 % 1026,2 hPa 0,0 l/m 0,8 km/h (0 Bft) S-SW 209 0 min 0,000 mm 0,0 UV-I 0 W/m 2,5 C 7,6 C 1,6 km/h (1 Bft) 100,00 %
20.04.2016 21:46 7,5 C 69 % 1026,2 hPa 0,0 l/m 1,2 km/h (1 Bft) S-SW 209 0 min 0,000 mm 0,0 UV-I 0 W/m 2,2 C 7,5 C 1,6 km/h (1 Bft) 100,00 %
20.04.2016 21:47 7,5 C 69 % 1026,2 hPa 0,0 l/m 0,4 km/h (0 Bft) S-SW 209 0 min 0,000 mm 0,0 UV-I 0 W/m 2,2 C 7,5 C 1,6 km/h (1 Bft) 100,00 %
20.04.2016 21:48 7,5 C 69 % 1026,2 hPa 0,0 l/m 1,6 km/h (1 Bft) S-SW 209 0 min 0,000 mm 0,0 UV-I 0 W/m 2,2 C 7,5 C 3,2 km/h (1 Bft) 95,65 %
20.04.2016 21:49 7,4 C 70 % 1026,2 hPa 0,0 l/m 2,3 km/h (1 Bft) S-SW 209 0 min 0,000 mm 0,0 UV-I 0 W/m 2,3 C 7,4 C 3,2 km/h (1 Bft) 100,00 %
20.04.2016 21:50 7,4 C 70 % 1026,2 hPa 0,0 l/m 0,8 km/h (0 Bft) S-SW 209 0 min 0,000 mm 0,0 UV-I 0 W/m 2,3 C 7,4 C 1,6 km/h (1 Bft) 100,00 %
20.04.2016 21:51 7,4 C 70 % 1026,1 hPa 0,0 l/m 1,3 km/h (1 Bft) S-SW 209 0 min 0,000 mm 0,0 UV-I 0 W/m 2,3 C 7,4 C 3,2 km/h (1 Bft) 100,00 %
20.04.2016 21:52 7,3 C 71 % 1026,2 hPa 0,0 l/m 2,3 km/h (1 Bft) S-SW 209 0 min 0,000 mm 0,0 UV-I 0 W/m 2,4 C 7,3 C 3,2 km/h (1 Bft) 100,00 %
20.04.2016 21:53 7,3 C 70 % 1026,2 hPa 0,0 l/m 3,0 km/h (1 Bft) S-SW 209 0 min 0,000 mm 0,0 UV-I 0 W/m 2,2 C 7,3 C 3,2 km/h (1 Bft) 100,00 %
20.04.2016 21:54 7,3 C 70 % 1026,2 hPa 0,0 l/m 3,4 km/h (1 Bft) S-SW 209 0 min 0,000 mm 0,0 UV-I 0 W/m 2,2 C 7,3 C 4,8 km/h (1 Bft) 100,00 %
20.04.2016 21:55 7,3 C 71 % 1026,2 hPa 0,0 l/m 3,1 km/h (1 Bft) S-SW 209 0 min 0,000 mm 0,0 UV-I 0 W/m 2,4 C 7,3 C 3,2 km/h (1 Bft) 100,00 %
20.04.2016 21:56 7,2 C 71 % 1026,2 hPa 0,0 l/m 3,0 km/h (1 Bft) S-SW 209 0 min 0,000 mm 0,0 UV-I 0 W/m 2,3 C 7,2 C 4,8 km/h (1 Bft) 96,15 %
20.04.2016 21:57 7,2 C 71 % 1026,2 hPa 0,0 l/m 2,7 km/h (1 Bft) S-SW 209 0 min 0,000 mm 0,0 UV-I 0 W/m 2,3 C 7,2 C 3,2 km/h (1 Bft) 100,00 %
20.04.2016 21:58 7,2 C 71 % 1026,2 hPa 0,0 l/m 2,3 km/h (1 Bft) S-SW 209 0 min 0,000 mm 0,0 UV-I 0 W/m 2,3 C 7,2 C 3,2 km/h (1 Bft) 100,00 %
20.04.2016 21:59 7,2 C 71 % 1026,2 hPa 0,0 l/m 1,7 km/h (1 Bft) S-SW 209 0 min 0,000 mm 0,0 UV-I 0 W/m 2,3 C 7,2 C 3,2 km/h (1 Bft) 100,00 %
20.04.2016 22:00 7,1 C 71 % 1026,2 hPa 0,0 l/m 1,7 km/h (1 Bft) S-SW 209 0 min 0,000 mm 0,0 UV-I 0 W/m 2,2 C 7,1 C 3,2 km/h (1 Bft) 100,00 %
20.04.2016 22:02 7,1 C 71 % 1026,2 hPa 0,0 l/m 1,2 km/h (1 Bft) S-SW 209 0 min 0,000 mm 0,0 UV-I 0 W/m 2,2 C 7,1 C 3,2 km/h (1 Bft) 100,00 %
20.04.2016 22:03 7,0 C 71 % 1026,2 hPa 0,0 l/m 0,8 km/h (0 Bft) S-SW 209 0 min 0,000 mm 0,0 UV-I 0 W/m 2,1 C 7,0 C 1,6 km/h (1 Bft) 95,65 %
20.04.2016 22:04 7,0 C 70 % 1026,2 hPa 0,0 l/m 1,0 km/h (0 Bft) S-SW 209 0 min 0,000 mm 0,0 UV-I 0 W/m 1,9 C 7,0 C 1,6 km/h (1 Bft) 100,00 %
20.04.2016 22:05 6,9 C 71 % 1026,2 hPa 0,0 l/m 0,6 km/h (0 Bft) S-SW 209 0 min 0,000 mm 0,0 UV-I 0 W/m 2,0 C 6,9 C 1,6 km/h (1 Bft) 100,00 %
20.04.2016 22:06 6,9 C 71 % 1026,2 hPa 0,0 l/m 0,3 km/h (0 Bft) S-SW 209 0 min 0,000 mm 0,0 UV-I 0 W/m 2,0 C 6,9 C 1,6 km/h (1 Bft) 100,00 %
20.04.2016 22:07 6,9 C 71 % 1026,2 hPa 0,0 l/m 0,3 km/h (0 Bft) S-SW 209 0 min 0,000 mm 0,0 UV-I 0 W/m 2,0 C 6,9 C 1,6 km/h (1 Bft) 100,00 %
20.04.2016 22:08 6,9 C 71 % 1026,2 hPa 0,0 l/m 0,6 km/h (0 Bft) S-SW 209 0 min 0,000 mm 0,0 UV-I 0 W/m 2,0 C 6,9 C 1,6 km/h (1 Bft) 100,00 %
20.04.2016 22:09 6,9 C 71 % 1026,2 hPa 0,0 l/m 0,7 km/h (0 Bft) S-SW 209 0 min 0,000 mm 0,0 UV-I 0 W/m 2,0 C 6,9 C 1,6 km/h (1 Bft) 100,00 %
20.04.2016 22:10 6,9 C 71 % 1026,2 hPa 0,0 l/m 1,2 km/h (1 Bft) S-SW 209 0 min 0,000 mm 0,0 UV-I 0 W/m 2,0 C 6,9 C 3,2 km/h (1 Bft) 100,00 %
20.04.2016 22:11 6,9 C 72 % 1026,3 hPa 0,0 l/m 0,9 km/h (0 Bft) S-SW 209 0 min 0,000 mm 0,0 UV-I 0 W/m 2,2 C 6,9 C 1,6 km/h (1 Bft) 100,00 %
20.04.2016 22:12 6,8 C 72 % 1026,3 hPa 0,0 l/m 2,5 km/h (1 Bft) S-SW 209 0 min 0,000 mm 0,0 UV-I 0 W/m 2,1 C 6,8 C 4,8 km/h (1 Bft) 100,00 %
20.04.2016 22:13 6,8 C 73 % 1026,3 hPa 0,0 l/m 2,3 km/h (1 Bft) S-SW 209 0 min 0,000 mm 0,0 UV-I 0 W/m 2,3 C 6,8 C 4,8 km/h (1 Bft) 100,00 %
20.04.2016 22:14 6,8 C 72 % 1026,3 hPa 0,0 l/m 2,3 km/h (1 Bft) S-SW 209 0 min 0,000 mm 0,0 UV-I 0 W/m 2,1 C 6,8 C 3,2 km/h (1 Bft) 100,00 %
20.04.2016 22:15 6,7 C 73 % 1026,3 hPa 0,0 l/m 1,9 km/h (1 Bft) S-SW 209 0 min 0,000 mm 0,0 UV-I 0 W/m 2,2 C 6,7 C 3,2 km/h (1 Bft) 100,00 %
20.04.2016 22:16 6,7 C 73 % 1026,2 hPa 0,0 l/m 1,0 km/h (0 Bft) S-SW 209 0 min 0,000 mm 0,0 UV-I 0 W/m 2,2 C 6,7 C 1,6 km/h (1 Bft) 95,83 %
20.04.2016 22:17 6,7 C 73 % 1026,2 hPa 0,0 l/m 1,4 km/h (1 Bft) S-SW 209 0 min 0,000 mm 0,0 UV-I 0 W/m 2,2 C 6,7 C 1,6 km/h (1 Bft) 100,00 %
20.04.2016 22:18 6,7 C 73 % 1026,2 hPa 0,0 l/m 2,7 km/h (1 Bft) S-SW 209 0 min 0,000 mm 0,0 UV-I 0 W/m 2,2 C 6,7 C 3,2 km/h (1 Bft) 100,00 %
20.04.2016 22:19 6,7 C 73 % 1026,2 hPa 0,0 l/m 3,5 km/h (1 Bft) S-SW 209 0 min 0,000 mm 0,0 UV-I 0 W/m 2,2 C 6,7 C 4,8 km/h (1 Bft) 96,15 %
20.04.2016 22:20 6,6 C 72 % 1026,3 hPa 0,0 l/m 4,5 km/h (1 Bft) S-SW 209 0 min 0,000 mm 0,0 UV-I 0 W/m 1,9 C 6,6 C 4,8 km/h (1 Bft) 95,83 %
20.04.2016 22:21 6,6 C 72 % 1026,2 hPa 0,0 l/m 3,8 km/h (1 Bft) S-SW 205 0 min 0,000 mm 0,0 UV-I 0 W/m 1,9 C 6,6 C 4,8 km/h (1 Bft) 100,00 %
20.04.2016 22:22 6,6 C 72 % 1026,2 hPa 0,0 l/m 1,6 km/h (1 Bft) S-SW 200 0 min 0,000 mm 0,0 UV-I 0 W/m 1,9 C 6,6 C 3,2 km/h (1 Bft) 96,15 %
20.04.2016 22:23 6,6 C 73 % 1026,2 hPa 0,0 l/m 1,0 km/h (0 Bft) S-SW 200 0 min 0,000 mm 0,0 UV-I 0 W/m 2,1 C 6,6 C 1,6 km/h (1 Bft) 100,00 %
20.04.2016 22:24 6,6 C 73 % 1026,2 hPa 0,0 l/m 1,4 km/h (1 Bft) S-SW 199 0 min 0,000 mm 0,0 UV-I 0 W/m 2,1 C 6,6 C 1,6 km/h (1 Bft) 95,65 %
20.04.2016 22:25 6,6 C 72 % 1026,2 hPa 0,0 l/m 1,7 km/h (1 Bft) S 187 0 min 0,000 mm 0,0 UV-I 0 W/m 1,9 C 6,6 C 3,2 km/h (1 Bft) 96,30 %
20.04.2016 22:26 6,6 C 72 % 1026,3 hPa 0,0 l/m 1,7 km/h (1 Bft) S 186 0 min 0,000 mm 0,0 UV-I 0 W/m 1,9 C 6,6 C 3,2 km/h (1 Bft) 95,65 %
20.04.2016 22:27 6,5 C 72 % 1026,3 hPa 0,0 l/m 2,0 km/h (1 Bft) S 184 0 min 0,000 mm 0,0 UV-I 0 W/m 1,8 C 6,5 C 3,2 km/h (1 Bft) 95,83 %
20.04.2016 22:28 6,5 C 72 % 1026,2 hPa 0,0 l/m 2,3 km/h (1 Bft) S 184 0 min 0,000 mm 0,0 UV-I 0 W/m 1,8 C 6,5 C 3,2 km/h (1 Bft) 100,00 %
20.04.2016 22:29 6,5 C 72 % 1026,3 hPa 0,0 l/m 2,2 km/h (1 Bft) S 184 0 min 0,000 mm 0,0 UV-I 0 W/m 1,8 C 6,5 C 4,8 km/h (1 Bft) 95,83 %
20.04.2016 22:30 6,5 C 72 % 1026,3 hPa 0,0 l/m 1,4 km/h (1 Bft) S 184 0 min 0,000 mm 0,0 UV-I 0 W/m 1,8 C 6,5 C 1,6 km/h (1 Bft) 95,65 %
20.04.2016 22:31 6,5 C 72 % 1026,3 hPa 0,0 l/m 1,4 km/h (1 Bft) S 184 0 min 0,000 mm 0,0 UV-I 0 W/m 1,8 C 6,5 C 3,2 km/h (1 Bft) 95,83 %
20.04.2016 22:32 6,5 C 72 % 1026,3 hPa 0,0 l/m 2,0 km/h (1 Bft) S 184 0 min 0,000 mm 0,0 UV-I 0 W/m 1,8 C 6,5 C 3,2 km/h (1 Bft) 100,00 %
20.04.2016 22:33 6,5 C 72 % 1026,3 hPa 0,0 l/m 2,3 km/h (1 Bft) S 184 0 min 0,000 mm 0,0 UV-I 0 W/m 1,8 C 6,5 C 3,2 km/h (1 Bft) 96,30 %
20.04.2016 22:34 6,5 C 72 % 1026,3 hPa 0,0 l/m 4,5 km/h (1 Bft) S 183 0 min 0,000 mm 0,0 UV-I 0 W/m 1,8 C 6,5 C 4,8 km/h (1 Bft) 96,55 %
20.04.2016 22:35 6,5 C 72 % 1026,3 hPa 0,0 l/m 4,6 km/h (1 Bft) S 182 0 min 0,000 mm 0,0 UV-I 0 W/m 1,8 C 6,5 C 4,8 km/h (1 Bft) 100,00 %
20.04.2016 22:36 6,5 C 72 % 1026,3 hPa 0,0 l/m 3,8 km/h (1 Bft) S 182 0 min 0,000 mm 0,0 UV-I 0 W/m 1,8 C 6,5 C 4,8 km/h (1 Bft) 96,55 %
20.04.2016 22:37 6,5 C 73 % 1026,3 hPa 0,0 l/m 3,2 km/h (1 Bft) S 182 0 min 0,000 mm 0,0 UV-I 0 W/m 2,0 C 6,5 C 4,8 km/h (1 Bft) 100,00 %
20.04.2016 22:38 6,4 C 73 % 1026,3 hPa 0,0 l/m 2,6 km/h (1 Bft) S 182 0 min 0,000 mm 0,0 UV-I 0 W/m 1,9 C 6,4 C 3,2 km/h (1 Bft) 91,30 %
20.04.2016 22:39 6,5 C 73 % 1026,3 hPa 0,0 l/m 2,4 km/h (1 Bft) S 182 0 min 0,000 mm 0,0 UV-I 0 W/m 2,0 C 6,5 C 3,2 km/h (1 Bft) 100,00 %
20.04.2016 22:40 6,4 C 73 % 1026,3 hPa 0,0 l/m 3,0 km/h (1 Bft) S 182 0 min 0,000 mm 0,0 UV-I 0 W/m 1,9 C 6,4 C 3,2 km/h (1 Bft) 93,33 %
20.04.2016 22:41 6,5 C 73 % 1026,3 hPa 0,0 l/m 2,4 km/h (1 Bft) S 182 0 min 0,000 mm 0,0 UV-I 0 W/m 2,0 C 6,5 C 3,2 km/h (1 Bft) 100,00 %
20.04.2016 22:42 6,4 C 73 % 1026,3 hPa 0,0 l/m 2,4 km/h (1 Bft) S 182 0 min 0,000 mm 0,0 UV-I 0 W/m 1,9 C 6,4 C 3,2 km/h (1 Bft) 95,83 %
20.04.2016 22:43 6,4 C 74 % 1026,3 hPa 0,0 l/m 2,3 km/h (1 Bft) S 182 0 min 0,000 mm 0,0 UV-I 0 W/m 2,1 C 6,4 C 3,2 km/h (1 Bft) 100,00 %
20.04.2016 22:44 6,4 C 74 % 1026,3 hPa 0,0 l/m 1,0 km/h (0 Bft) S 182 0 min 0,000 mm 0,0 UV-I 0 W/m 2,1 C 6,4 C 3,2 km/h (1 Bft) 96,30 %
20.04.2016 22:45 6,4 C 74 % 1026,3 hPa 0,0 l/m 0,9 km/h (0 Bft) S 182 0 min 0,000 mm 0,0 UV-I 0 W/m 2,1 C 6,4 C 1,6 km/h (1 Bft) 95,65 %
20.04.2016 22:46 6,4 C 74 % 1026,3 hPa 0,0 l/m 1,3 km/h (1 Bft) S 182 0 min 0,000 mm 0,0 UV-I 0 W/m 2,1 C 6,4 C 1,6 km/h (1 Bft) 100,00 %
20.04.2016 22:47 6,4 C 74 % 1026,3 hPa 0,0 l/m 2,1 km/h (1 Bft) S 182 0 min 0,000 mm 0,0 UV-I 0 W/m 2,1 C 6,4 C 3,2 km/h (1 Bft) 96,15 %
20.04.2016 22:48 6,4 C 74 % 1026,3 hPa 0,0 l/m 2,7 km/h (1 Bft) S 182 0 min 0,000 mm 0,0 UV-I 0 W/m 2,1 C 6,4 C 3,2 km/h (1 Bft) 100,00 %
20.04.2016 22:49 6,4 C 74 % 1026,3 hPa 0,0 l/m 2,2 km/h (1 Bft) S 182 0 min 0,000 mm 0,0 UV-I 0 W/m 2,1 C 6,4 C 3,2 km/h (1 Bft) 95,65 %
20.04.2016 22:50 6,4 C 74 % 1026,3 hPa 0,0 l/m 1,6 km/h (1 Bft) S 180 0 min 0,000 mm 0,0 UV-I 0 W/m 2,1 C 6,4 C 3,2 km/h (1 Bft) 100,00 %
20.04.2016 22:55 6,4 C 74 % 1026,3 hPa 0,0 l/m 1,6 km/h (1 Bft) S 180 0 min 0,000 mm 0,0 UV-I 0 W/m 2,1 C 6,4 C 3,2 km/h (1 Bft) 100,00 %
20.04.2016 23:00 6,3 C 75 % 1026,4 hPa 0,0 l/m 0,0 km/h (0 Bft) S 180 0 min 0,000 mm 0,0 UV-I 0 W/m 2,2 C 6,3 C 1,6 km/h (1 Bft) 97,37 %
20.04.2016 23:04 6,3 C 75 % 1026,4 hPa 0,0 l/m 0,0 km/h (0 Bft) S 182 0 min 0,000 mm 0,0 UV-I 0 W/m 2,2 C 6,3 C 0,0 km/h (0 Bft) 99,15 %
20.04.2016 23:05 6,2 C 75 % 1026,4 hPa 0,0 l/m 0,0 km/h (0 Bft) S 182 0 min 0,000 mm 0,0 UV-I 0 W/m 2,1 C 6,2 C 0,0 km/h (0 Bft) 100,00 %
20.04.2016 23:06 6,2 C 74 % 1026,4 hPa 0,0 l/m 0,0 km/h (0 Bft) S 182 0 min 0,000 mm 0,0 UV-I 0 W/m 1,9 C 6,2 C 0,0 km/h (0 Bft) 100,00 %
20.04.2016 23:07 6,2 C 74 % 1026,4 hPa 0,0 l/m 0,0 km/h (0 Bft) S 182 0 min 0,000 mm 0,0 UV-I 0 W/m 1,9 C 6,2 C 0,0 km/h (0 Bft) 95,83 %
20.04.2016 23:08 6,2 C 74 % 1026,4 hPa 0,0 l/m 0,0 km/h (0 Bft) S 182 0 min 0,000 mm 0,0 UV-I 0 W/m 1,9 C 6,2 C 0,0 km/h (0 Bft) 95,83 %
20.04.2016 23:09 6,2 C 74 % 1026,4 hPa 0,0 l/m 0,0 km/h (0 Bft) S 182 0 min 0,000 mm 0,0 UV-I 0 W/m 1,9 C 6,2 C 0,0 km/h (0 Bft) 100,00 %
20.04.2016 23:10 6,2 C 74 % 1026,4 hPa 0,0 l/m 0,0 km/h (0 Bft) S 182 0 min 0,000 mm 0,0 UV-I 0 W/m 1,9 C 6,2 C 0,0 km/h (0 Bft) 100,00 %
20.04.2016 23:11 6,2 C 74 % 1026,4 hPa 0,0 l/m 0,0 km/h (0 Bft) S 182 0 min 0,000 mm 0,0 UV-I 0 W/m 1,9 C 6,2 C 0,0 km/h (0 Bft) 100,00 %
20.04.2016 23:12 6,2 C 75 % 1026,4 hPa 0,0 l/m 0,0 km/h (0 Bft) S 182 0 min 0,000 mm 0,0 UV-I 0 W/m 2,1 C 6,2 C 0,0 km/h (0 Bft) 100,00 %
20.04.2016 23:13 6,1 C 75 % 1026,4 hPa 0,0 l/m 0,0 km/h (0 Bft) S 182 0 min 0,000 mm 0,0 UV-I 0 W/m 2,0 C 6,1 C 0,0 km/h (0 Bft) 100,00 %
20.04.2016 23:14 6,1 C 75 % 1026,4 hPa 0,0 l/m 0,0 km/h (0 Bft) S 182 0 min 0,000 mm 0,0 UV-I 0 W/m 2,0 C 6,1 C 0,0 km/h (0 Bft) 100,00 %
20.04.2016 23:15 6,1 C 76 % 1026,3 hPa 0,0 l/m 0,0 km/h (0 Bft) S 182 0 min 0,000 mm 0,0 UV-I 0 W/m 2,2 C 6,1 C 0,0 km/h (0 Bft) 100,00 %
20.04.2016 23:16 6,1 C 76 % 1026,3 hPa 0,0 l/m 0,0 km/h (0 Bft) S 182 0 min 0,000 mm 0,0 UV-I 0 W/m 2,2 C 6,1 C 0,0 km/h (0 Bft) 100,00 %
20.04.2016 23:17 6,1 C 76 % 1026,4 hPa 0,0 l/m 0,0 km/h (0 Bft) S 182 0 min 0,000 mm 0,0 UV-I 0 W/m 2,2 C 6,1 C 0,0 km/h (0 Bft) 91,67 %
20.04.2016 23:18 6,0 C 76 % 1026,4 hPa 0,0 l/m 0,0 km/h (0 Bft) S 182 0 min 0,000 mm 0,0 UV-I 0 W/m 2,1 C 6,0 C 0,0 km/h (0 Bft) 100,00 %
20.04.2016 23:19 6,0 C 77 % 1026,4 hPa 0,0 l/m 0,0 km/h (0 Bft) S 182 0 min 0,000 mm 0,0 UV-I 0 W/m 2,3 C 6,0 C 0,0 km/h (0 Bft) 100,00 %
20.04.2016 23:20 5,9 C 77 % 1026,5 hPa 0,0 l/m 0,0 km/h (0 Bft) S 182 0 min 0,000 mm 0,0 UV-I 0 W/m 2,2 C 5,9 C 0,0 km/h (0 Bft) 100,00 %
20.04.2016 23:21 5,9 C 78 % 1026,5 hPa 0,0 l/m 0,6 km/h (0 Bft) S 182 0 min 0,000 mm 0,0 UV-I 0 W/m 2,4 C 5,9 C 1,6 km/h (1 Bft) 100,00 %
20.04.2016 23:22 5,8 C 79 % 1026,5 hPa 0,0 l/m 0,2 km/h (0 Bft) S 182 0 min 0,000 mm 0,0 UV-I 0 W/m 2,4 C 5,8 C 1,6 km/h (1 Bft) 100,00 %
20.04.2016 23:23 5,8 C 79 % 1026,5 hPa 0,0 l/m 0,9 km/h (0 Bft) S 182 0 min 0,000 mm 0,0 UV-I 0 W/m 2,4 C 5,8 C 3,2 km/h (1 Bft) 100,00 %
20.04.2016 23:24 5,8 C 79 % 1026,5 hPa 0,0 l/m 1,7 km/h (1 Bft) S 182 0 min 0,000 mm 0,0 UV-I 0 W/m 2,4 C 5,8 C 3,2 km/h (1 Bft) 100,00 %
20.04.2016 23:25 5,7 C 79 % 1026,4 hPa 0,0 l/m 1,4 km/h (1 Bft) S 182 0 min 0,000 mm 0,0 UV-I 0 W/m 2,3 C 5,7 C 3,2 km/h (1 Bft) 100,00 %
20.04.2016 23:26 5,7 C 79 % 1026,5 hPa 0,0 l/m 0,3 km/h (0 Bft) S 182 0 min 0,000 mm 0,0 UV-I 0 W/m 2,3 C 5,7 C 1,6 km/h (1 Bft) 100,00 %
20.04.2016 23:27 5,7 C 80 % 1026,4 hPa 0,0 l/m 1,3 km/h (1 Bft) S 182 0 min 0,000 mm 0,0 UV-I 0 W/m 2,5 C 5,7 C 3,2 km/h (1 Bft) 100,00 %
20.04.2016 23:28 5,7 C 80 % 1026,4 hPa 0,0 l/m 0,3 km/h (0 Bft) S 182 0 min 0,000 mm 0,0 UV-I 0 W/m 2,5 C 5,7 C 1,6 km/h (1 Bft) 100,00 %
20.04.2016 23:29 5,6 C 79 % 1026,4 hPa 0,0 l/m 0,5 km/h (0 Bft) S 182 0 min 0,000 mm 0,0 UV-I 0 W/m 2,3 C 5,6 C 1,6 km/h (1 Bft) 100,00 %
20.04.2016 23:30 5,6 C 79 % 1026,4 hPa 0,0 l/m 0,3 km/h (0 Bft) S 182 0 min 0,000 mm 0,0 UV-I 0 W/m 2,3 C 5,6 C 1,6 km/h (1 Bft) 95,65 %
20.04.2016 23:31 5,6 C 79 % 1026,4 hPa 0,0 l/m 0,2 km/h (0 Bft) S 182 0 min 0,000 mm 0,0 UV-I 0 W/m 2,3 C 5,6 C 1,6 km/h (1 Bft) 100,00 %
20.04.2016 23:32 5,6 C 79 % 1026,4 hPa 0,0 l/m 0,9 km/h (0 Bft) S 182 0 min 0,000 mm 0,0 UV-I 0 W/m 2,3 C 5,6 C 1,6 km/h (1 Bft) 100,00 %
20.04.2016 23:33 5,5 C 79 % 1026,4 hPa 0,0 l/m 1,3 km/h (1 Bft) S 182 0 min 0,000 mm 0,0 UV-I 0 W/m 2,2 C 5,5 C 1,6 km/h (1 Bft) 100,00 %
20.04.2016 23:34 5,4 C 79 % 1026,5 hPa 0,0 l/m 2,0 km/h (1 Bft) S 182 0 min 0,000 mm 0,0 UV-I 0 W/m 2,1 C 5,4 C 3,2 km/h (1 Bft) 100,00 %
20.04.2016 23:35 5,4 C 79 % 1026,5 hPa 0,0 l/m 2,9 km/h (1 Bft) S 182 0 min 0,000 mm 0,0 UV-I 0 W/m 2,1 C 5,4 C 3,2 km/h (1 Bft) 100,00 %
20.04.2016 23:36 5,3 C 79 % 1026,5 hPa 0,0 l/m 1,9 km/h (1 Bft) S 182 0 min 0,000 mm 0,0 UV-I 0 W/m 2,0 C 5,3 C 3,2 km/h (1 Bft) 100,00 %
20.04.2016 23:37 5,3 C 78 % 1026,5 hPa 0,0 l/m 0,8 km/h (0 Bft) S 182 0 min 0,000 mm 0,0 UV-I 0 W/m 1,8 C 5,3 C 1,6 km/h (1 Bft) 100,00 %
20.04.2016 23:38 5,3 C 78 % 1026,5 hPa 0,0 l/m 0,9 km/h (0 Bft) S 182 0 min 0,000 mm 0,0 UV-I 0 W/m 1,8 C 5,3 C 1,6 km/h (1 Bft) 100,00 %
20.04.2016 23:39 5,3 C 78 % 1026,6 hPa 0,0 l/m 0,6 km/h (0 Bft) S 182 0 min 0,000 mm 0,0 UV-I 0 W/m 1,8 C 5,3 C 1,6 km/h (1 Bft) 100,00 %
20.04.2016 23:40 5,3 C 78 % 1026,6 hPa 0,0 l/m 0,5 km/h (0 Bft) S 182 0 min 0,000 mm 0,0 UV-I 0 W/m 1,8 C 5,3 C 1,6 km/h (1 Bft) 100,00 %
20.04.2016 23:41 5,3 C 78 % 1026,6 hPa 0,0 l/m 0,2 km/h (0 Bft) S 182 0 min 0,000 mm 0,0 UV-I 0 W/m 1,8 C 5,3 C 1,6 km/h (1 Bft) 100,00 %
20.04.2016 23:42 5,3 C 78 % 1026,6 hPa 0,0 l/m 0,3 km/h (0 Bft) S 182 0 min 0,000 mm 0,0 UV-I 0 W/m 1,8 C 5,3 C 1,6 km/h (1 Bft) 100,00 %
20.04.2016 23:43 5,3 C 79 % 1026,6 hPa 0,0 l/m 0,3 km/h (0 Bft) S 182 0 min 0,000 mm 0,0 UV-I 0 W/m 2,0 C 5,3 C 1,6 km/h (1 Bft) 100,00 %
20.04.2016 23:44 5,3 C 79 % 1026,6 hPa 0,0 l/m 1,8 km/h (1 Bft) S 182 0 min 0,000 mm 0,0 UV-I 0 W/m 2,0 C 5,3 C 3,2 km/h (1 Bft) 100,00 %
20.04.2016 23:45 5,3 C 79 % 1026,6 hPa 0,0 l/m 1,8 km/h (1 Bft) S 182 0 min 0,000 mm 0,0 UV-I 0 W/m 2,0 C 5,3 C 3,2 km/h (1 Bft) 96,55 %
20.04.2016 23:46 5,3 C 79 % 1026,6 hPa 0,0 l/m 1,6 km/h (1 Bft) S 182 0 min 0,000 mm 0,0 UV-I 0 W/m 2,0 C 5,3 C 3,2 km/h (1 Bft) 100,00 %
20.04.2016 23:47 5,2 C 78 % 1026,7 hPa 0,0 l/m 0,8 km/h (0 Bft) S 182 0 min 0,000 mm 0,0 UV-I 0 W/m 1,7 C 5,2 C 1,6 km/h (1 Bft) 100,00 %
20.04.2016 23:48 5,2 C 78 % 1026,6 hPa 0,0 l/m 0,6 km/h (0 Bft) S 182 0 min 0,000 mm 0,0 UV-I 0 W/m 1,7 C 5,2 C 1,6 km/h (1 Bft) 100,00 %
20.04.2016 23:49 5,2 C 78 % 1026,7 hPa 0,0 l/m 0,3 km/h (0 Bft) S 182 0 min 0,000 mm 0,0 UV-I 0 W/m 1,7 C 5,2 C 1,6 km/h (1 Bft) 100,00 %
20.04.2016 23:50 5,2 C 79 % 1026,7 hPa 0,0 l/m 0,3 km/h (0 Bft) S 182 0 min 0,000 mm 0,0 UV-I 0 W/m 1,9 C 5,2 C 1,6 km/h (1 Bft) 100,00 %
20.04.2016 23:51 5,2 C 79 % 1026,6 hPa 0,0 l/m 0,3 km/h (0 Bft) S 182 0 min 0,000 mm 0,0 UV-I 0 W/m 1,9 C 5,2 C 1,6 km/h (1 Bft) 100,00 %
20.04.2016 23:52 5,2 C 79 % 1026,7 hPa 0,0 l/m 0,6 km/h (0 Bft) S 182 0 min 0,000 mm 0,0 UV-I 0 W/m 1,9 C 5,2 C 1,6 km/h (1 Bft) 100,00 %
20.04.2016 23:53 5,2 C 79 % 1026,7 hPa 0,0 l/m 0,6 km/h (0 Bft) S 182 0 min 0,000 mm 0,0 UV-I 0 W/m 1,9 C 5,2 C 1,6 km/h (1 Bft) 96,55 %
20.04.2016 23:54 5,2 C 79 % 1026,7 hPa 0,0 l/m 0,8 km/h (0 Bft) S 182 0 min 0,000 mm 0,0 UV-I 0 W/m 1,9 C 5,2 C 1,6 km/h (1 Bft) 100,00 %
20.04.2016 23:55 5,2 C 79 % 1026,6 hPa 0,0 l/m 0,3 km/h (0 Bft) S 182 0 min 0,000 mm 0,0 UV-I 0 W/m 1,9 C 5,2 C 1,6 km/h (1 Bft) 96,15 %
20.04.2016 23:56 5,2 C 79 % 1026,7 hPa 0,0 l/m 1,1 km/h (1 Bft) S 182 0 min 0,000 mm 0,0 UV-I 0 W/m 1,9 C 5,2 C 3,2 km/h (1 Bft) 100,00 %
20.04.2016 23:57 5,2 C 79 % 1026,7 hPa 0,0 l/m 1,6 km/h (1 Bft) S 182 0 min 0,000 mm 0,0 UV-I 0 W/m 1,9 C 5,2 C 3,2 km/h (1 Bft) 100,00 %
20.04.2016 23:58 5,2 C 79 % 1026,7 hPa 0,0 l/m 2,0 km/h (1 Bft) S 182 0 min 0,000 mm 0,0 UV-I 0 W/m 1,9 C 5,2 C 3,2 km/h (1 Bft) 100,00 %
20.04.2016 23:59 5,2 C 79 % 1026,7 hPa 0,0 l/m 2,0 km/h (1 Bft) S 182 0 min 0,000 mm 0,0 UV-I 0 W/m 1,9 C 5,2 C 3,2 km/h (1 Bft) 100,00 %
_ Min-Zeit 23:47 14:51 00:12 - 07:43 - - - - - - 14:06 01:58 07:43 12:59
Minimum _ 5,2 C 39 % 1024,5 hPa - 0,0 km/h (0 Bft) - - - - - - 1,0 C 3,0 C 0,0 km/h (0 Bft) 85,71 %
_ Max-Zeit 16:37 05:48 11:03 00:00 13:30 - - 11:02 15:00 13:34 13:36 11:08 16:38 13:30 00:00
Maximum _ 15,8 C 82 % 1027,5 hPa 0,0 l/m 21,3 km/h
SW (4 Bft)
- - 2 min 0,458 mm 4,7 UV-I 965 W/m 6,5 C 15,8 C 29,0 km/h
W-SW (5 Bft)
100,00 %
Durchschnitt _ 10,6 C 64 % 1026,1 hPa #0,0 l/m 5,4 km/h (1 Bft) SW - #8:51 h #3,556 mm 2,5 UV-I 421 W/m 3,5 C 9,8 C 8,5 km/h (2 Bft) 98,59 %